     2.11           OBSERVATION DATA    G (GPS)             RINEX VERSION / TYPE
teqc 2010Oct21 OPUS Account 20111027 18:55:35UTC            PGM / RUN BY / DATE
C 1526                                                      MARKER NAME
3039                                                        MARKER NUMBER
CSMIDDLETON NGS                                             OBSERVER / AGENCY
4624K01631 TRIMBLE NETR5 4.41                               REC # / TYPE / VERS
12481390 TRM41249.00 NONE                                   ANT # / TYPE
  -755288.9412 -5563047.2813  3016925.9115                  APPROX POSITION XYZ
        2.0000        0.0000        0.0000                  ANTENNA: DELTA H/E/N
     1     1                                                WAVELENGTH FACT L1/2
     5    L1    L2    C1    P1    P2                        # / TYPES OF OBSERV
    15                                                      LEAP SECONDS
  2011     8    18    16    13    0.0000000     GPS         TIME OF FIRST OBS
                                                            END OF HEADER
 11  8 18 16 13  0.0000000  0  9G10G03G08G19G23G07G13G06G16
 125477346.89316  97774623.73754  23877553.273                    23877564.063
 110457500.14518  86070736.07255  21019346.711                    21019356.773
 127280731.42016  99179862.83053  24220724.602                    24220736.148
 111167613.56918  86624142.97856  21154495.383                    21154502.762
 106815820.76918  83233126.37056  20326375.117                    20326382.211
 117008442.29917  91175446.57317  22265966.789                    22265975.227
 105342948.68718  82085436.59056  20046097.094                    20046104.582
 119342337.75717  92994065.60054  22710094.516                    22710104.590
 121469657.23717  94651714.15554  23114907.922                    23114916.906
 11  8 18 16 13 30.0000000  0  9G10G03G08G19G23G07G13G06G16
 125488596.446 6  97783389.57643  23879693.070                    23879704.711
 110495142.270 8  86100067.58045  21026510.344                    21026519.801
 127214625.120 7  99128351.50543  24208145.180                    24208156.547
 111131031.914 8  86595637.81346  21147534.094                    21147541.602
 106862715.397 8  83269667.61446  20335298.820                    20335305.406
 116952677.241 7  91131993.313 7  22255354.898                    22255363.512
 105332321.599 8  82077155.74246  20044074.352                    20044082.359
 119403825.390 7  93041978.00244  22721795.289                    22721805.309
 121559609.342 7  94721806.65144  23132025.305                    23132033.711
 11  8 18 16 14  0.0000000  0  9G10G03G08G19G23G07G13G06G16
 125500304.134 6  97792512.43843  23881921.992                    23881932.504
 110533380.550 8  86129863.61245  21033786.945                    21033796.477
 127148453.129 6  99076788.94043  24195553.258                    24195564.496
 111095005.978 8  86567565.67246  21140678.656                    21140686.203
 106910154.064 8  83306632.78346  20344326.227                    20344333.102
 116896937.241 7  91088559.551 7  22244747.625                    22244756.637
 105322259.998 8  82069315.52946  20042159.781                    20042167.813
 119465764.367 7  93090242.10144  22733581.695                    22733592.063
 121649592.178 7  94791923.04944  23149148.547                    23149157.215
 11  8 18 16 14 30.0000000  0  9G10G03G08G19G23G07G13G06G16
 125512468.395 6  97801991.09343  23884235.758                    23884246.895
 110572213.146 8  86160122.76245  21041176.336                    21041185.676
 127082214.862 6  99025174.79143  24182947.922                    24182959.516
 111059537.241 8  86539927.72346  21133929.398                    21133936.727
 106958135.547 8  83344020.92546  20353456.953                    20353463.688
 116841222.472 7  91045145.478 7  22234145.719                    22234155.066
 105312765.153 8  82061916.94246  20040353.094                    20040360.773
 119528152.113 7  93138855.89944  22745454.164                    22745464.277
 121739603.470 7  94862061.65044  23166277.469                    23166285.848
 11  8 18 16 15  0.0000000  0  9G10G03G08G19G23G07G13G06G16
 125525087.284 6  97811823.98443  23886637.266                    23886648.137
 110611638.018 8  86190843.41345  21048678.742                    21048687.938
 127015909.811 6  98973508.58643  24170331.531                    24170342.156
 111024626.954 8  86512724.92046  21127286.078                    21127293.293
 107006658.061 8  83381830.65046  20362690.266                    20362697.570
 116785532.978 7  91001751.086 7  22223548.125                    22223556.891
 105303837.248 7  82054960.13046  20038653.734                    20038662.070
 119590986.148 7  93187817.42544  22757410.313                    22757421.070
 121829640.510 7  94932220.31244  23183410.563                    23183419.465
 11  8 18 16 15 30.0000000  0  9G10G03G08G19G23G07G13G06G16
 125538160.016 6  97822010.51443  23889124.539                    23889136.398
 110651654.377 8  86222024.96645  21056293.516                    21056303.000
 126949538.687 6  98921790.89443  24157701.031                    24157712.207
 110990277.595 8  86485959.19746  21120749.406                    21120756.625
 107055721.321 8  83420061.74846  20372026.977                    20372033.590
 116729870.284 7  90958377.575 7  22212956.008                    22212964.895
 105295478.560 7  82048446.86446  20037063.523                    20037071.398
 119654265.510 7  93237125.99044  22769452.258                    22769462.418
 121919702.775 7  95002398.63844  23200548.430                    23200557.363
 11  8 18 16 16  0.0000000  0  9G10G03G08G19G23G07G13G06G16
 125551685.531 6  97832549.95943  23891698.766                    23891709.656
 110692261.520 8  86253666.95445  21064021.305                    21064030.352
 126883101.849 6  98870022.09943  24145058.078                    24145069.188
 110956491.490 8  86459632.46146  21114320.008                    21114327.387
 107105325.078 8  83458714.08346  20381466.023                    20381473.164
 116674235.385 7  90915025.814 7  22202368.742                    22202377.988
 105287690.698 7  82042378.48046  20035581.617                    20035589.348
 119717988.381 7  93286780.21344  22781578.391                    22781588.809
 122009788.542 7  95072595.35844  23217690.992                    23217700.258
 11  8 18 16 16 30.0000000  0  9G10G03G08G19G23G07G13G06G16
 125565662.350 6  97843440.99143  23894358.328                    23894369.246
 110733457.738 8  86285767.86245  21071860.016                    21071869.656
 126816599.033 6  98818201.75643  24132403.141                    24132413.996
 110923270.240 8  86433745.77346  21107998.336                    21108005.227
 107155467.940 8  83497786.42246  20391007.875                    20391014.449
 116618628.904 7  90871696.099 7  22191787.578                    22191796.516
 105280474.464 8  82036755.42146  20034208.461                    20034216.203
 119782152.970 7  93336778.53845  22793788.633                    22793798.977
 122099896.147 7  95142809.00544  23234838.781                    23234847.375
 11  8 18 16 17  0.0000000  0  9G10G03G08G19G23G07G13G06G16
 125580089.499 6  97854682.89943  23897103.750                    23897114.867
 110775242.123 8  86318327.09745  21079811.758                    21079821.043
 126750030.727 6  98766330.43043  24119735.570                    24119746.770
 110890615.886 8  86408300.82146  21101784.305                    21101791.367
 107206149.182 8  83537278.27146  20400652.203                    20400658.961
 116563051.886 7  90828389.343 7  22181211.320                    22181220.590
 105273831.470 8  82031579.05846  20032944.172                    20032952.297
 119846757.424 7  93387119.60744  22806082.906                    22806092.293
 122190024.072 7  95213038.48544  23251988.891                    23251998.285
 11  8 18 16 17 30.0000000  0  9G10G03G08G19G23G07G13G06G16
 125594965.336 6  97866274.44443  23899935.289                    23899945.484
 110817613.370 8  86351343.62545  21087874.664                    21087884.270
 126683396.965 6  98714408.10243  24107055.352                    24107066.289
 110858530.617 8  86383299.29846  21095678.641                    21095685.836
 107257367.977 8  83577188.99846  20410399.336                    20410405.543
 116507505.265 7  90785106.296 7  22170641.297                    22170650.137
 105267763.181 8  82026850.51946  20031789.297                    20031797.172
 119911800.033 7  93437802.11244  22818459.711                    22818469.512
 122280170.885 7  95283282.68344  23269143.797                    23269153.551
 11  8 18 16 18  0.0000000  0  9G10G03G08G19G23G07G13G06G16
 125610288.087 6  97878214.25744  23902850.234                    23902861.891
 110860569.850 8  86384816.17745  21096049.094                    21096058.348
 126616697.603 6  98662434.62344  24094362.570                    24094373.566
 110827015.606 8  86358742.13846  21089681.398                    21089688.734
 107309122.594 8  83617517.25146  20420247.555                    20420254.188
 116451989.417 7  90741847.226 7  22160076.883                    22160086.090
 105262269.620 7  82022569.81446  20030744.180                    20030751.828
 119977278.578 7  93488824.29045  22830920.016                    22830930.418
 122370334.419 7  95353539.93344  23286301.156                    23286310.043
 11  8 18 16 18 30.0000000  0 10G10G28G03G08G19G23G07G13G06G16
 125626056.482 6  97890501.29944  23905851.688                    23905862.328
 129596858.72716 100984668.12652  24661479.211                    24661488.445
 110904109.933 8  86418743.49045  21104334.672                    21104343.762
 126549932.598 6  98610410.01043  24081657.523                    24081668.527
 110796072.428 7  86334630.56146  21083793.109                    21083800.234
 107361411.959 8  83658262.19346  20430198.055                    20430204.102
 116396505.010 7  90698612.649 7  22149518.984                    22149527.836
 105257352.092 7  82018737.97146  20029808.414                    20029816.273
 120043190.771 7  93540184.39645  22843462.984                    22843472.836
 122460512.948 7  95423808.84044  23303461.750                    23303471.102
 11  8 18 16 19  0.0000000  0 11G10G28G03G08G19G23G11G07G13G06G16
 125642269.622 6  97903134.88543  23908936.547                    23908947.715
 129523292.708 6 100927343.90842  24647479.789                    24647490.766
 110948232.484 8  86453124.66745  21112730.984                    21112739.813
 126483102.474 7  98558334.64143  24068941.180                    24068951.223
 110765703.693 8  86310966.59646  21078014.367                    21078021.645
 107414235.692 8  83699423.52046  20440249.984                    20440256.480
 130200065.32816 101454714.96953  24776267.602                    24776278.984
 116341053.139 7  90655403.417 7  22138966.516                    22138974.996
 105253012.421 8  82015356.40746  20028982.461                    20028990.281
 120109535.588 7  93591881.59744  22856087.781                    22856097.813
 122550705.523 7  95494088.70244  23320624.680                    23320633.680
 11  8 18 16 19 30.0000000  0 11G10G28G03G08G19G23G11G07G13G06G16
 125658925.922 6  97916113.80043  23912106.203                    23912117.426
 129449940.850 6 100870186.65442  24633521.453                    24633532.316
 110992936.138 8  86487958.64645  21121237.305                    21121246.664
 126416207.642 6  98506208.87043  24056210.953                    24056221.176
 110735910.796 8  86287751.33746  21072345.070                    21072352.324
 107467592.366 8  83741000.12846  20450403.578                    20450409.754
 130126844.401 6 101397659.77643  24762334.141                    24762346.266
 116285634.803 7  90612220.336 7  22128420.406                    22128429.621
 105249251.617 8  82012425.90246  20028266.781                    20028274.574
 120176310.811 7  93643914.20444  22868794.398                    22868804.809
 122640910.210 7  95564378.00644  23337790.344                    23337799.477
 11  8 18 16 20  0.0000000  0 11G10G28G03G08G19G23G11G07G13G06G16
 125676023.093 6  97929436.22643  23915360.305                    23915370.824
 129376802.996 6 100813196.07242  24619603.305                    24619614.379
 111038219.017 8  86523243.97545  21129854.719                    21129863.844
 126349247.146 6  98454031.89143  24043468.734                    24043479.207
 110706694.919 8  86264985.71546  21066785.063                    21066792.477
 107521480.151 8  83782990.58246  20460657.758                    20460664.414
 130053468.112 6 101340483.51843  24748371.344                    24748382.813
 116230249.974 7  90569063.354 7  22117880.945                    22117890.398
 105246069.846 8  82009946.60046  20027661.484                    20027669.320
 120243513.633 7  93696279.99644  22881583.031                    22881593.352
 122731124.742 7  95634674.97944  23354957.539                    23354966.602
 11  8 18 16 20 30.0000000  0 11G10G28G03G08G19G23G11G07G13G06G16
 125693559.602 6  97943101.03243  23918697.070                    23918707.453
 129303879.404 6 100756372.53742  24605726.742                    24605737.453
 111084078.582 8  86558978.67145  21138581.000                    21138590.328
 126282221.160 6  98401803.88643  24030713.984                    24030723.949
 110678057.047 7  86242670.49046  21061336.172                    21061342.742
 107575897.927 8  83825394.02046  20471013.305                    20471019.879
 129979938.278 7 101283187.57743  24734378.703                    24734390.813
 116174899.334 7  90525933.012 7  22107348.359                    22107357.148
 105243467.891 8  82007919.10146  20027166.531                    20027174.316
 120311141.880 7  93748977.28044  22894451.766                    22894461.977
 122821347.342 6  95704978.25244  23372127.180                    23372135.531
 11  8 18 16 21  0.0000000  0 11G10G28G03G08G19G23G11G07G13G06G16
 125711533.655 6  97957106.72243  23922117.328                    23922128.063
 129231170.796 5 100699716.52542  24591890.320                    24591901.426
 111130513.626 8  86595161.78945  21147417.250                    21147426.848
 126215129.783 6  98349524.96143  24017947.063                    24017957.438
 110649999.139 8  86220807.18746  21055996.797                    21056003.520
 107630844.483 8  83868209.49146  20481469.477                    20481476.031
 129906257.507 6 101225774.04743  24720357.875                    24720369.926
 116119583.596 7  90482829.851 7  22096822.242                    22096831.023
 105241446.898 7  82006344.30246  20026781.992                    20026789.848
 120379193.689 7  93802004.61644  22907402.883                    22907412.395
 122911576.455 7  95775286.58244  23389296.422                    23389305.887
 11  8 18 16 21 30.0000000  0 11G10G28G03G08G19G23G11G07G13G06G16
 125729943.316 6  97971451.89743  23925620.164                    23925631.121
 129158677.286 6 100643228.14343  24578095.563                    24578106.961
 111177522.597 8  86631792.13045  21156363.305                    21156372.586
 126147972.986 6  98297195.01743  24005167.203                    24005177.934
 110622522.544 8  86199396.86846  21050767.383                    21050774.797
 107686318.102 8  83911435.67146  20492025.578                    20492032.398
 129832427.950 6 101168244.54443  24706308.570                    24706320.031
 116064303.446 7  90439754.429 7  22086302.242                    22086311.391
 105240007.292 7  82005222.52246  20026507.477                    20026515.309
 120447666.679 7  93855360.14244  22920432.016                    22920442.578
 123001810.336 7  95845598.61044  23406467.391                    23406476.844
 11  8 18 16 22  0.0000000  0 11G10G28G03G08G19G23G11G07G13G06G16
 125748787.805 6  97986135.87143  23929206.477                    23929217.730
 129086399.827 6 100586908.07843  24564342.891                    24564352.211
 111225103.986 8  86668868.50945  21165417.680                    21165426.992
 126080750.652 7  98244814.01143  23992375.055                    23992385.781
 110595629.104 7  86178440.94246  21045650.516                    21045657.293
 107742318.077 8  83955071.99246  20502682.164                    20502688.262
 129758451.711 6 101110600.77243  24692231.023                    24692242.629
 116009059.963 7  90396707.577 7  22075790.203                    22075799.176
 105239150.035 8  82004554.53046  20026344.695                    20026352.363
 120516559.035 7  93909042.43344  22933541.461                    22933551.762
 123092047.224 7  95915913.01044  23423638.961                    23423648.617
 11  8 18 16 22 30.0000000  0 11G10G28G03G08G19G23G11G07G13G06G16
 125768065.085 6  98001157.09043  23932874.438                    23932885.988
 129014338.425 6 100530756.42143  24550628.805                    24550639.957
 111273255.547 7  86706389.17345  21174580.273                    21174590.418
 126013463.018 6  98192382.16444  23979571.070                    23979581.531
 110569319.813 7  86157940.21246  21040643.734                    21040650.750
 107798842.583 8  83999117.04346  20513438.484                    20513445.109
 129684331.079 6 101052844.44843  24678127.172                    24678138.309
 115953853.511 7  90353689.585 7  22065285.063                    22065293.305
 105238875.880 7  82004340.89646  20026292.352                    20026300.184
 120585868.287 7  93963049.60644  22946731.383                    22946741.559
 123182285.443 7  95986228.44744  23440810.711                    23440819.945
 11  8 18 16 23  0.0000000  0 11G10G28G03G08G19G23G11G07G13G06G16
 125787773.033 6  98016513.87843  23936625.203                    23936635.746
 128942493.897 7 100474773.68243  24536957.719                    24536967.816
 111321976.188 7  86744353.28245  21183851.898                    21183861.055
 125946110.440 6  98139899.70343  23966754.141                    23966764.551
 110543596.144 8  86137895.80646  21035748.703                    21035755.727
 107855890.245 8  84043569.73946  20524294.109                    20524300.746
 129610068.427 6 100994977.47843  24663994.969                    24664006.246
 115898684.932 7  90310701.089 7  22054786.195                    22054795.008
 105239185.885 7  82004582.45046  20026351.352                    20026359.145
 120655592.559 7  94017380.16044  22959998.727                    22960009.543
 123272523.587 6  96056543.81044  23457982.953                    23457991.500
 11  8 18 16 23 30.0000000  0 11G10G28G03G08G19G23G11G07G13G06G16
 125807910.285 6  98032205.21543  23940456.320                    23940467.777
 128870866.768 6 100418960.36643  24523327.695                    24523337.848
 111371263.873 8  86782759.23845  21193231.125                    21193240.363
 125878692.686 6  98087366.44443  23953924.328                    23953935.590
 110518459.732 8  86118308.98946  21030965.703                    21030972.355
 107913459.947 8  84088429.22746  20535249.469                    20535256.133
 129535666.364 6 100937001.92343  24649837.148                    24649848.309
 115843555.014 7  90267742.724 7  22044295.398                    22044304.344
 105240081.172 7  82005280.06046  20026521.891                    20026529.863
 120725729.623 7  94072032.35644  22973345.672                    22973356.316
 123362759.867 6  96126857.68144  23475154.461                    23475163.773
 11  8 18 16 24  0.0000000  0 11G10G28G03G08G19G23G11G07G13G06G16
 125828474.882 6  98048229.55943  23944370.391                    23944381.457
 128799457.129 6 100363316.54743  24509738.563                    24509748.598
 111421116.615 7  86821605.48745  21202717.789                    21202727.266
 125811209.887 6  98034782.48344  23941083.641                    23941093.672
 110493911.914 8  86099180.83246  21026294.320                    21026300.793
 107971549.899 8  84133694.10246  20546303.656                    20546310.324
 129461127.045 6 100878919.35443  24635652.414                    24635663.766
 115788464.629 8  90224815.180 7  22033812.148                    22033820.891
 105241561.750 7  82006433.75046  20026803.625                    20026811.680
 120796277.266 7  94127004.49544  22986770.500                    22986780.984
 123452992.527 6  96197168.78844  23492325.266                    23492334.582
 11  8 18 16 24 30.0000000  0 11G10G28G03G08G19G23G11G07G13G06G16
 125849465.376 6  98064585.76443  23948365.094                    23948376.121
 128728265.309 6 100307842.49543  24496191.781                    24496200.969
 111471532.812 8  86860890.79945  21212311.859                    21212320.863
 125743662.216 6  97982148.00143  23928229.133                    23928240.215
 110469953.929 8  86080512.27946  21021735.313                    21021742.359
 108030159.049 8  84179363.55846  20557456.344                    20557463.250
 129386452.702 6 100820731.61143  24621442.078                    24621453.859
 115733414.452 7  90181918.949 7  22023336.219                    22023345.098
 105243628.385 7  82008044.10246  20027196.695                    20027204.820
 120867233.314 7  94182294.87144  23000272.969                    23000283.133
 123543220.178 6  96267475.94944  23509494.664                    23509504.246
 11  8 18 16 25  0.0000000  0 11G10G28G03G08G19G23G11G07G13G06G16
 125870879.721 6  98081272.25043  23952439.930                    23952450.512
 128657292.191 6 100252538.81943  24482685.852                    24482695.711
 111522510.892 8  86900613.94445  21222012.539                    21222021.680
 125676049.772 7  97929463.02444  23915363.281                    23915373.484
 110446587.323 8  86062304.55246  21017288.656                    21017295.555
 108089285.841 8  84225436.36746  20568707.797                    20568714.363
 129311645.975 6 100762440.69243  24607206.531                    24607218.457
 115678405.978 7  90139055.210 7  22012868.258                    22012877.469
 105246282.240 8  82010112.02446  20027701.820                    20027709.637
 120938595.845 7  94237901.95944  23013852.703                    23013862.902
 123633441.065 6  96337777.87844  23526663.000                    23526672.895
 11  8 18 16 25 30.0000000  0 11G10G28G03G08G19G23G11G07G13G06G16
 125892716.286 6  98098287.70743  23956595.164                    23956606.516
 128586537.832 6 100197405.64543  24469220.711                    24469231.492
 111574048.426 8  86940773.02145  21231819.445                    21231829.266
 125608372.545 6  97876727.57844  23902484.641                    23902494.832
 110423813.065 8  86044558.38846  21012954.891                    21012961.914
 108148928.486 8  84271911.13246  20580057.766                    20580064.488
 129236708.852 6 100704048.17343  24592946.430                    24592958.508
 115623439.082 7  90096223.891 7  22002408.914                    22002417.469
 105249523.595 7  82012637.75246  20028318.820                    20028326.914
 121010362.424 7  94293823.89444  23027509.570                    23027520.316
 123723653.819 6  96408073.43844  23543830.352                    23543839.887
 11  8 18 16 26  0.0000000  0 11G10G28G03G08G19G23G11G07G13G06G16
 125914973.240 7  98115630.75544  23960831.086                    23960841.480
 128516002.503 6 100142443.11243  24455798.805                    24455808.641
 111626143.674 8  86981366.67645  21241733.109                    21241742.566
 125540630.939 7  97823941.96244  23889594.133                    23889604.719
 110401632.383 8  86027274.76446  21008733.742                    21008740.754
 108209085.615 8  84318786.79846  20591505.125                    20591511.824
 129161643.689 6 100645555.93042  24578662.453                    24578674.074
 115568514.771 7  90053425.724 7  21991956.914                    21991966.402
 105253352.967 8  82015621.67046  20029047.281                    20029055.438
 121082530.702 7  94350058.85344  23041243.000                    23041253.469
 123813856.657 6  96478361.26944  23560995.391                    23561004.977
 11  8 18 16 26 30.0000000  0 11G10G28G03G08G19G23G11G07G13G06G16
 125937648.745 6  98133299.98543  23965145.297                    23965157.152
 128445686.765 6 100087651.67943  24442417.852                    24442428.430
 111678794.961 8  87022393.62545  21251752.594                    21251761.531
 125472824.926 7  97771106.16044  23876690.867                    23876701.215
 110380046.804 8  86010454.84946  21004626.461                    21004633.180
 108269755.751 8  84366062.20846  20603050.555                    20603056.867
 129086453.029 6 100586965.85442  24564354.063                    24564366.066
 115513634.141 7  90010661.615 7  21981513.727                    21981522.609
 105257771.138 8  82019064.39446  20029888.406                    20029895.949
 121155098.491 7  94406605.13344  23055052.391                    23055061.980
 123904047.947 7  96548640.11144  23578157.836                    23578167.824
 11  8 18 16 27  0.0000000  0 11G10G28G03G08G19G23G11G07G13G06G16
 125960741.067 7  98151293.97743  23969540.633                    23969551.242
 128375591.039 6 100033031.68143  24429079.227                    24429088.922
 111732000.320 8  87063852.31145  21261876.914                    21261886.531
 125404954.449 7  97718220.10344  23863775.406                    23863785.711
 110359057.437 8  85994099.51246  21000632.102                    21000639.188
 108330937.548 8  84413736.31146  20614692.836                    20614699.766
 129011139.175 6 100528279.80442  24550022.039                    24550034.199
 115458798.378 7  89967932.466 7  21971078.172                    21971087.402
 105262778.695 8  82022966.37746  20030841.234                    20030849.316
 121228063.832 7  94463461.18244  23068937.141                    23068947.473
 123994226.416 6  96618908.96744  23595319.430                    23595327.973
 11  8 18 16 27 30.0000000  0 11G10G28G03G08G19G23G11G07G13G06G16
 125984248.024 6  98169611.08343  23974013.750                    23974023.840
 128305715.366 6  99978583.13943  24415782.250                    24415792.563
 111785757.669 8  87105741.12345  21272106.883                    21272116.512
 125337019.810 6  97665284.06044  23850847.305                    23850858.152
 110338665.160 8  85978209.44746  20996751.641                    20996758.699
 108392629.194 8  84461807.70646  20626432.508                    20626438.848
 128935704.518 6 100469499.60042  24535667.188                    24535678.863
 115404007.470 7  89925238.263 7  21960652.859                    21960661.301
 105268376.086 8  82027327.96946  20031905.945                    20031913.945
 121301424.198 7  94520625.05644  23082897.133                    23082907.906
 124084390.365 6  96689166.47544  23612476.922                    23612485.871
 11  8 18 16 28  0.0000000  0 11G10G28G03G08G19G23G11G07G13G06G16
 126008168.077 6  98188250.05543  23978565.203                    23978576.227
 128236060.280 6  99924306.49343  24402527.680                    24402537.715
 111840065.097 8  87148058.56145  21282441.406                    21282450.895
 125269021.416 7  97612298.34744  23837907.750                    23837918.531
 110318871.243 8  85962785.62746  20992984.758                    20992991.871
 108454829.196 8  84510275.22846  20638268.891                    20638275.512
 128860151.436 6 100410627.13442  24521289.930                    24521301.273
 115349262.734 7  89882580.045 7  21950234.391                    21950243.863
 105274563.868 7  82032149.61146  20033083.406                    20033091.344
 121375177.349 7  94578094.99444  23096931.852                    23096942.234
 124174537.996 7  96759411.32644  23629631.711                    23629640.461
 11  8 18 16 28 30.0000000  0 11G10G28G03G08G19G23G11G07G13G06G16
 126032499.262 6  98207209.40643  23983194.914                    23983205.785
 128166626.042 6  99870201.91343  24389314.469                    24389324.531
 111894920.813 8  87190803.23745  21292880.133                    21292889.199
 125200959.175 7  97559262.88243  23824956.508                    23824966.871
 110299677.031 8  85947829.11346  20989332.422                    20989339.461
 108517535.875 8  84559137.55446  20650201.500                    20650208.023
 128784482.365 6 100351664.36642  24506890.547                    24506901.859
 115294564.976 7  89839958.437 7  21939826.164                    21939835.059
 105281342.447 8  82037431.61346  20034373.406                    20034381.379
 121449321.046 7  94635869.23844  23111041.461                    23111051.238
 124264668.149 6  96829642.54544  23646782.188                    23646792.164
 11  8 18 16 29  0.0000000  0 11G10G28G03G08G19G23G11G07G13G06G16
 126057239.504 6  98226487.49043  23987903.219                    23987913.852
 128097412.915 6  99816269.58343  24376143.672                    24376153.168
 111950322.714 7  87233973.52145  21303422.625                    21303431.957
 125132833.303 6  97506177.82043  23811992.000                    23812002.637
 110281083.451 8  85933340.61146  20985794.188                    20985801.156
 108580747.423 8  84608393.28646  20662229.969                    20662236.914
 128708699.687 6 100292612.93742  24492469.523                    24492480.930
 115239915.189 7  89797374.184 7  21929426.656                    21929435.605
 105288712.570 8  82043174.55946  20035776.195                    20035784.148
 121523853.075 7  94693946.08644  23125224.688                    23125234.633
 124354779.203 6  96899858.87244  23663929.797                    23663940.004
 11  8 18 16 29 30.0000000  0 11G10G28G03G08G19G23G11G07G13G06G16
 126082386.947 6  98246082.88543  23992688.820                    23992699.613
 128028421.293 6  99762509.91443  24363014.969                    24363025.227
 112006268.743 7  87277567.80445  21314068.953                    21314078.496
 125064644.004 6  97453043.32943  23799016.164                    23799026.246
 110263091.632 8  85919321.00546  20982370.664                    20982377.215
 108644462.526 8  84658041.39846  20674354.805                    20674361.676
 128632805.897 6 100233474.94343  24478026.875                    24478037.969
 115185314.070 7  89754827.864 7  21919036.086                    21919045.445
 105296674.519 8  82049378.66846  20037291.563                    20037299.176
 121598771.167 7  94752323.75444  23139480.695                    23139491.344
 124444869.477 7  96970059.00744  23681073.484                    23681083.117
 11  8 18 16 30  0.0000000  0 11G10G28G03G08G19G23G11G07G13G06G16
 126107939.716 6  98265994.09443  23997550.367                    23997562.258
 127959651.693 6  99708923.22243  24349927.836                    24349938.676
 112062757.161 7  87321584.72245  21324818.109                    21324827.695
 124996391.321 6  97399859.48843  23786027.641                    23786037.992
 110245702.806 8  85905771.26446  20979061.648                    20979068.176
 108708679.650 8  84708080.69746  20686574.547                    20686581.355
 128556803.485 6 100174252.36043  24463564.617                    24463575.754
 115130762.843 7  89712320.432 7  21908655.398                    21908664.230
 105305228.659 8  82056044.23146  20038919.266                    20038926.813
 121674073.027 7  94811000.48044  23153810.203                    23153820.750
 124534937.518 7  97040241.81544  23698213.492                    23698222.273
 11  8 18 16 30 30.0000000  0 11G10G28G03G08G19G23G11G07G13G06G16
 126133895.903 6  98286219.66343  24002490.422                    24002501.223
 127891104.061 6  99655509.47643  24336883.313                    24336894.195
 112119785.994 7  87366022.74345  21335670.250                    21335679.918
 124928075.623 6  97346626.47643  23773027.695                    23773037.852
 110228917.725 8  85892691.97746  20975867.133                    20975874.340
 108773396.821 8  84758509.64146  20698890.328                    20698897.078
 128480694.703 6 100114946.87643  24449081.367                    24449092.676
 115076262.183 7  89669852.405 7  21898284.359                    21898293.215
 105314375.509 8  82063171.64446  20040659.414                    20040667.523
 121749756.230 7  94869974.33544  23168212.289                    23168222.742
 124624981.983 7  97110406.27544  23715347.688                    23715357.188
 11  8 18 16 31  0.0000000  0 11G10G28G03G08G19G23G11G07G13G06G16
 126160253.416 6  98306757.95543  24007506.414                    24007516.984
 127822778.683 6  99602268.99143  24323882.109                    24323892.738
 112177352.619 7  87410879.81345  21346624.992                    21346634.703
 124859697.102 7  97293344.53843  23760016.156                    23760026.516
 110212737.201 8  85880083.77746  20972788.508                    20972795.336
 108838612.207 8  84809326.81046  20711299.938                    20711306.684
 128404482.069 6 100055560.47043  24434578.750                    24434589.910
 115021812.867 7  89627424.388 7  21887923.031                    21887932.113
 105324115.272 8  82070761.06046  20042512.969                    20042521.016
 121825818.454 7  94929243.54544  23182686.563                    23182697.387
 124715001.320 7  97180551.14443  23732478.008                    23732487.543
 11  8 18 16 31 30.0000000  0 11G10G28G03G08G19G23G11G07G13G06G16
 126187010.339 6  98327607.49043  24012597.734                    24012608.793
 127754675.868 6  99549201.86743  24310923.445                    24310933.309
 112235454.641 7  87456154.08045  21357681.492                    21357690.801
 124791255.840 7  97240013.74344  23746991.547                    23747001.906
 110197162.238 8  85867947.44646  20969824.172                    20969831.250
 108904323.895 8  84860530.69746  20723804.633                    20723811.824
 128328167.811 6  99996094.86343  24420056.234                    24420067.477
 114967415.950 7  89585037.195 7  21877571.422                    21877580.672
 105334448.211 8  82078812.70246  20044479.070                    20044486.809
 121902257.382 7  94988806.28344  23197232.016                    23197242.934
 124804994.036 6  97250675.27243  23749603.852                    23749613.211
 11  8 18 16 32  0.0000000  0 11G10G28G03G08G19G23G11G07G13G06G16
 126214164.546 6  98348766.60843  24017764.859                    24017776.602
 127686795.890 6  99496308.41443  24298005.445                    24298015.887
 112294090.799 7  87501844.55945  21368839.836                    21368849.035
 124722752.290 7  97186634.36043  23733955.461                    23733966.902
 110182194.076 8  85856283.95246  20966976.031                    20966983.125
 108970530.575 8  84912120.29346  20736403.586                    20736410.340
 128251754.573 6  99936552.13943  24405515.922                    24405526.637
 114913072.555 7  89542691.712 7  21867230.516                    21867239.199
 105345374.630 8  82087326.79646  20046558.391                    20046566.059
 121979070.747 7  95048660.77044  23211849.953                    23211860.418
 124894958.949 6  97320777.72443  23766723.500                    23766732.836
 11  8 18 16 32 30.0000000  0 11G10G28G03G08G19G23G11G07G13G06G16
 126241714.143 6  98370233.78943  24023007.617                    24023017.832
 127619138.968 6  99443588.69743  24285131.164                    24285141.293
 112353258.794 7  87547949.44945  21380098.773                    21380108.438
 124654186.602 7  97133206.59544  23720908.406                    23720919.367
 110167833.399 8  85845093.81946  20964243.219                    20964250.137
 109037230.260 8  84964094.05146  20749095.805                    20749102.840
 128175244.948 6  99876934.29443  24390956.133                    24390967.273
 114858783.460 7  89500388.543 7  21856899.477                    21856908.738
 105356895.173 8  82096303.84246  20048750.695                    20048758.777
 122056256.246 7  95108805.25044  23226537.625                    23226548.008
 124984894.077 6  97390856.96943  23783837.125                    23783846.926
 11  8 18 16 33  0.0000000  0 11G10G28G03G08G19G23G11G07G13G06G16
 126269656.826 6  98392007.30443  24028324.758                    24028335.859
 127551705.282 7  99391043.02943  24272298.969                    24272308.707
 112412956.436 7  87594467.05545  21391458.742                    21391468.621
 124585558.701 7  97079730.34644  23707849.500                    23707859.855
 110154081.061 8  85834377.71746  20961626.477                    20961633.176
 109104421.159 8  85016450.57946  20761881.781                    20761888.605
 128098641.234 6  99817243.15443  24376378.992                    24376390.387
 114804549.442 7  89458128.295 7  21846578.961                    21846588.215
 105369009.564 8  82105743.61946  20051055.977                    20051063.938
 122133811.491 7  95169237.84344  23241295.852                    23241306.949
 125074798.195 7  97460912.04343  23800945.406                    23800955.477
 11  8 18 16 33 30.0000000  0 11G10G28G03G08G19G23G11G07G13G06G16
 126297991.073 6  98414085.90943  24033717.023                    24033727.844
 127484495.083 6  99338671.46643  24259508.633                    24259519.094
 112473181.269 7  87641395.45945  21402919.203                    21402929.039
 124516869.237 7  97026206.12044  23694778.461                    23694788.434
 110140937.909 8  85824136.30646  20959125.258                    20959131.984
 109172101.559 8  85069188.52946  20774761.289                    20774767.965
 128021945.917 6  99757480.63943  24361784.555                    24361795.887
 114750371.791 7  89415911.966 7  21836269.164                    21836278.113
 105381718.360 8  82115646.57446  20053474.117                    20053482.148
 122211733.996 7  95229956.59744  23256123.938                    23256134.547
 125164670.106 6  97530942.04043  23818047.250                    23818057.133
 11  8 18 16 34  0.0000000  0 11G10G28G03G08G19G23G11G07G13G06G16
 126326714.454 6  98436467.77543  24039183.000                    24039193.207
 127417508.618 6  99286474.26443  24246761.594                    24246771.836
 112533931.444 7  87688733.23145  21414480.172                    21414489.570
 124448118.627 7  96972634.27944  23681694.906                    23681706.422
 110128404.782 8  85814370.24746  20956739.867                    20956747.508
 109240269.703 8  85122306.53646  20787732.820                    20787740.117
 127945161.556 6  99697648.68943  24347173.477                    24347184.219
 114696251.397 7  89373740.269 7  21825970.773                    21825979.820
 105395021.735 8  82126012.83146  20056005.695                    20056014.039
 122290021.390 7  95290959.69444  23271021.367                    23271032.035
 125254508.254 6  97600945.69643  23835143.516                    23835153.328
 11  8 18 16 34 30.0000000  0 11G10G28G03G08G19G23G11G07G13G06G16
 126355824.534 6  98459150.93543  24044721.836                    24044733.504
 127350745.878 6  99234451.41043  24234057.211                    24234067.348
 112595204.703 7  87736478.59945  21426139.273                    21426149.234
 124379306.555 7  96919014.48044  23668601.367                    23668610.996
 110116481.917 8  85805079.71546  20954471.555                    20954478.457
 109308923.283 8  85175802.80446  20800797.602                    20800804.395
 127868290.560 6  99637749.22243  24332544.711                    24332556.031
 114642188.667 7  89331613.480 7  21815682.695                    21815691.828
 105408919.659 8  82136842.38346  20058650.539                    20058658.453
 122368671.380 7  95352245.31044  23285988.820                    23285998.895
 125344310.965 6  97670921.76543  23852232.211                    23852242.141
 11  8 18 16 35  0.0000000  0 11G10G28G03G08G19G23G11G07G13G06G16
 126385319.964 6  98482134.36143  24050334.867                    24050346.383
 127284207.007 6  99182602.99643  24221395.516                    24221405.762
 112656998.777 7  87784629.79545  21437898.469                    21437908.094
 124310433.659 7  96865347.31644  23655494.750                    23655504.668
 110105171.044 8  85796266.05446  20952319.031                    20952325.992
 109378060.740 8  85229676.12046  20813954.055                    20813960.875
 127791335.684 6  99577784.44343  24317900.758                    24317911.566
 114588185.553 7  89289533.157 7  21805406.305                    21805414.895
 105423412.475 8  82148135.46946  20061408.656                    20061416.859
 122447681.627 7  95413811.67044  23301023.953                    23301034.523
 125434077.434 6  97740869.57343  23869314.758                    23869324.301
 11  8 18 16 35 30.0000000  0 11G10G28G03G08G19G23G11G07G13G06G16
 126415198.109 6  98505416.04243  24056020.828                    24056031.484
 127217892.445 6  99130929.36943  24208776.227                    24208786.008
 112719311.107 7  87833184.83545  21449756.547                    21449766.094
 124241499.987 7  96811632.81544  23642376.375                    23642387.359
 110094472.193 8  85787929.29346  20950283.195                    20950290.047
 109447679.893 8  85283924.79046  20827202.242                    20827208.957
 127714299.257 6  99517756.12943  24303240.891                    24303252.398
 114534242.445 7  89247499.598 7  21795141.297                    21795149.883
 105438500.131 8  82159892.08046  20064279.781                    20064287.465
 122527049.494 7  95475656.68244  23316127.000                    23316137.207
 125523805.627 6  97810787.55043  23886388.859                    23886398.922
 11  8 18 16 36  0.0000000  0 11G10G28G03G08G19G23G11G07G13G06G16
 126445456.865 6  98528994.25143  24061779.023                    24061789.129
 127151802.059 6  99079430.40243  24196199.680                    24196209.836
 112782139.503 7  87882141.99745  21461712.320                    21461721.914
 124172506.207 7  96757871.42544  23629247.961                    23629258.191
 110084386.159 8  85780070.05746  20948363.641                    20948371.066
 109517779.063 8  85338547.49046  20840541.492                    20840548.344
 127637183.849 6  99457666.21943  24288566.586                    24288577.723
 114480360.176 7  89205513.432 7  21784887.688                    21784896.422
 105454182.774 8  82172112.30646  20067263.859                    20067272.078
 122606772.727 7  95537778.63444  23331298.078                    23331307.957
 125613494.540 6  97880674.92743  23903456.211                    23903466.512
 11  8 18 16 36 30.0000000  0 11G10G28G03G08G19G23G11G07G13G06G16
 126476094.476 6  98552867.68943  24067609.203                    24067619.492
 127085936.239 6  99028106.42843  24183665.219                    24183676.074
 112845481.964 7  87931499.72445  21473766.133                    21473775.758
 124103452.410 7  96704063.33344  23616107.234                    23616117.871
 110074913.777 8  85772688.98146  20946561.453                    20946568.418
 109588356.596 8  85393542.94446  20853972.031                    20853979.246
 127559991.991 6  99397516.78343  24273876.656                    24273888.242
 114426540.206 7  89163575.818 7  21774646.289                    21774655.109
 105470460.519 8  82184796.25246  20070361.625                    20070369.711
 122686849.148 7  95600175.78544  23346534.938                    23346546.367
 125703142.977 6  97950530.75244  23920516.180                    23920525.750
 11  8 18 16 37  0.0000000  0 11G10G28G03G08G19G23G11G07G13G06G16
 126507108.301 6  98577034.30543  24073510.453                    24073520.844
 127020294.843 6  98976957.36543  24171173.977                    24171184.453
 112909336.001 7  87981256.09245  21485916.859                    21485926.746
 124034338.733 6  96650208.54744  23602954.992                    23602965.707
 110066055.351 8  85765786.31946  20944875.805                    20944882.207
 109659410.176 8  85448909.34646  20867493.203                    20867500.008
 127482726.342 6  99337309.84643  24259174.141                    24259185.160
 114372783.423 7  89121687.436 7  21764416.594                    21764425.309
 105487333.353 8  82197943.90546  20073572.227                    20073580.320
 122767276.097 7  95662846.06444  23361840.531                    23361851.113
 125792749.202 6  98020353.66243  23937567.352                    23937577.262
 11  8 18 16 37 30.0000000  0 11G10G28G03G08G19G23G11G07G13G06G16
 126538496.045 6  98601492.26243  24079483.531                    24079494.242
 126954878.433 6  98925983.62743  24158726.320                    24158736.117
 112973699.500 7  88031409.44145  21498165.219                    21498174.824
 123965165.926 6  96596307.69744  23589791.883                    23589802.359
 110057811.729 8  85759362.72046  20943306.633                    20943314.145
 109730937.809 8  85504645.13746  20881104.313                    20881111.105
 127405389.295 6  99277047.29443  24244457.383                    24244468.324
 114319090.662 8  89079848.932 7  21754199.336                    21754208.145
 105504801.078 8  82211555.11046  20076896.484                    20076904.500
 122848051.208 7  95725787.64544  23377211.461                    23377222.023
 125882312.085 6  98090142.87043  23954610.852                    23954620.309
 11  8 18 16 38  0.0000000  0 11G10G28G03G08G19G23G11G07G13G06G16
 126570256.106 6  98626240.35443  24085526.727                    24085537.820
 126889686.910 6  98875185.13243  24146320.734                    24146330.465
 113038569.932 7  88081957.78845  21510509.688                    21510519.387
 123895934.019 6  96542360.79043  23576617.813                    23576627.859
 110050183.672 8  85753418.78346  20941855.344                    20941862.707
 109802937.873 8  85560749.06246  20894805.359                    20894812.363
 127327983.664 6  99216731.30243  24229727.086                    24229738.402
 114265463.472 8  89038061.528 7  21743994.016                    21744003.082
 105522863.978 8  82225630.08946  20080333.820                    20080341.668
 122929171.980 6  95788998.59544  23392648.078                    23392658.750
 125971830.132 7  98159897.09443  23971646.172                    23971656.051
 11  8 18 16 38 30.0000000  0 11G10G28G03G08G19G23G11G07G13G06G16
 126602386.141 6  98651276.71143  24091641.805                    24091652.484
 126824720.167 6  98824561.77843  24133957.477                    24133967.816
 113103945.227 7  88132899.54445  21522950.414                    21522959.777
 123826643.475 6  96488368.16843  23563431.320                    23563442.574
 110043171.251 8  85747954.55346  20940520.750                    20940527.809
 109875408.018 8  85617219.28146  20908596.078                    20908603.262
 127250511.854 6  99156363.75943  24214984.070                    24214996.320
 114211902.416 8  88996325.655 7  21733801.781                    21733811.164
 105541521.983 8  82240168.78746  20083883.938                    20083892.203
 123010636.123 7  95852477.09644  23408150.711                    23408161.043
 126061302.143 7  98229615.48744  23988671.875                    23988681.875
 11  8 18 16 39  0.0000000  0 11G10G28G03G08G19G23G11G07G13G06G16
 126634883.737 6  98676599.51043  24097825.484                    24097836.742
 126759978.440 6  98774113.75643  24121637.563                    24121647.473
 113169822.817 7  88184232.69045  21535486.500                    21535495.906
 123757294.756 6  96434330.26243  23550235.094                    23550245.316
 110036774.971 8  85742970.44246  20939303.922                    20939310.941
 109948346.492 8  85674054.43346  20922475.906                    20922482.805
 127172976.280 6  99095946.50843  24200229.305                    24200241.641
 114158408.667 8  88954642.226 7  21723622.180                    21723631.141
 105560774.865 8  82255171.02846  20087547.930                    20087556.137
 123092441.081 6  95916221.19944  23423717.258                    23423727.633
 126150726.930 6  98299297.03544  24005688.516                    24005699.074
 11  8 18 16 39 30.0000000  0 11G10G28G03G08G19G23G11G07G13G06G16
 126667746.824 6  98702207.09943  24104079.180                    24104090.207
 126695461.946 6  98723841.23243  24109360.320                    24109370.531
 113236200.401 7  88235955.44345  21548117.258                    21548127.402
 123687888.172 7  96380247.21044  23537027.422                    23537037.473
 110030995.682 8  85738467.10346  20938203.813                    20938210.758
 110021751.185 8  85731252.86746  20936444.195                    20936451.348
 127095379.718 6  99035481.77843  24185463.188                    24185475.160
 114104983.628 8  88913012.340 7  21713455.883                    21713464.656
 105580622.815 8  82270636.95346  20091324.773                    20091332.918
 123174584.596 6  95980229.05944  23439349.398                    23439360.211
 126240103.147 6  98368940.77443  24022696.508                    24022706.879
 11  8 18 16 40  0.0000000  0 11G10G28G03G08G19G23G11G07G13G06G16
 126700972.970 6  98728097.58143  24110401.797                    24110412.551
 126631170.662 6  98673744.18143  24097125.875                    24097136.660
 113303075.924 7  88288066.19345  21560843.469                    21560853.617
 123618424.344 7  96326119.58544  23523809.500                    23523819.117
 110025833.812 8  85734444.86746  20937221.563                    20937228.844
 110095619.971 8  85788812.93446  20950501.266                    20950508.055
 127017724.975 6  98974971.68943  24170686.781                    24170697.773
 114051628.199 8  88871436.699 7  21703302.586                    21703311.785
 105601065.641 8  82286566.42246  20095214.898                    20095222.969
 123257064.148 6  96044498.76744  23455044.445                    23455055.402
 126329429.645 6  98438545.74143  24039694.656                    24039705.008
 11  8 18 16 40 30.0000000  0 11G10G28G03G08G19G23G11G07G13G06G16
 126734560.034 6  98754269.31443  24116792.898                    24116803.980
 126567104.626 6  98623822.61843  24084935.313                    24084944.703
 113370446.701 7  88340562.85745  21573663.742                    21573673.582
 123548903.255 7  96271947.34544  23510579.789                    23510590.762
 110021289.720 8  85730904.02346  20936356.906                    20936363.758
 110169950.668 8  85846732.94046  20964645.961                    20964652.773
 126940014.525 6  98914418.19943  24155898.742                    24155909.652
 113998343.256 8  88829915.986 7  21693162.797                    21693171.629
 105622103.093 8  82302959.23646  20099218.398                    20099226.504
 123339877.185 6  96109028.36844  23470803.383                    23470814.270
 126418705.092 6  98508110.92743  24056683.914                    24056693.707
 11  8 18 16 41  0.0000000  0 11G10G28G03G08G19G23G11G07G13G06G16
 126768505.955 6  98780720.67443  24123253.336                    24123263.680
 126503263.752 6  98574076.53043  24072785.922                    24072796.609
 113438310.175 7  88393443.44845  21586577.727                    21586587.660
 123479325.411 7  96217730.85244  23497339.508                    23497349.566
 110017363.793 8  85727844.87246  20935609.695                    20935616.906
 110244741.564 8  85905011.54046  20978878.070                    20978884.648
 126862251.008 6  98853823.37443  24141100.406                    24141111.625
 113945130.390 8  88788451.433 7  21683036.695                    21683045.391
 105643734.960 8  82319815.23046  20103334.445                    20103342.477
 123423021.228 6  96173815.87744  23486624.852                    23486635.617
 126507928.322 6  98577635.48843  24073662.195                    24073671.633
 11  8 18 16 41 30.0000000  0 11G10G28G03G08G19G23G11G07G13G06G16
 126802808.504 6  98807449.93143  24129779.773                    24129791.004
 126439648.423 6  98524506.19843  24060681.219                    24060690.449
 113506663.807 7  88446705.97645  21599584.828                    21599594.508
 123409691.065 7  96163470.35644  23484088.625                    23484099.090
 110014056.622 8  85725267.87846  20934980.359                    20934987.676
 110319990.176 8  85963646.79946  20993197.469                    20993204.500
 126784436.920 6  98793189.12543  24126292.594                    24126303.863
 113891990.344 8  88747043.630 7  21672924.781                    21672933.387
 105665961.279 8  82337134.43346  20107564.523                    20107572.426
 123506493.966 6  96238859.49744  23502508.898                    23502520.133
 126597097.977 6  98647118.28043  24090630.219                    24090640.203
 11  8 18 16 42  0.0000000  0 11G10G28G03G08G19G23G11G07G13G06G16
 126837465.076 6  98834455.03943  24136375.031                    24136385.906
 126376258.438 6  98475111.44843  24048617.875                    24048627.305
 113575505.264 7  88500348.62945  21612684.953                    21612694.773
 123340000.765 7  96109166.24244  23470826.641                    23470836.484
 110011368.040 8  85723172.90146  20934468.922                    20934475.738
 110395694.612 8  86022637.24446  21007603.625                    21007610.273
 126706575.057 6  98732517.60443  24111476.180                    24111487.621
 113838924.199 7  88705693.418 7  21662826.234                    21662834.988
 105688781.434 8  82354916.35646  20111906.836                    20111914.797
 123590292.679 6  96304157.14044  23518456.172                    23518466.285
 126686212.608 6  98716558.16443  24107588.469                    24107598.633
 11  8 18 16 42 30.0000000  0 11G10G28G03G08G19G23G11G07G13G06G16
 126872473.606 6  98861734.41943  24143037.789                    24143048.535
 126313093.905 6  98425892.38143  24036598.203                    24036608.316
 113644832.466 7  88554369.78345  21625877.906                    21625887.566
 123270255.418 7  96054819.24044  23457553.969                    23457565.012
 110009298.669 8  85721560.42346  20934075.070                    20934081.992
 110471852.610 8  86081981.12046  21022095.969                    21022102.535
 126628667.863 7  98671810.77343  24096651.750                    24096661.988
 113785933.499 8  88664401.988 7  21652742.695                    21652751.484
 105712195.380 8  82373160.98246  20116362.125                    20116370.363
 123674415.251 6  96369707.11844  23534463.656                    23534474.602
 126775271.249 6  98785954.42443  24124535.352                    24124545.320
 11  8 18 16 43  0.0000000  0 11G10G28G03G08G19G23G11G07G13G06G16
 126907831.481 6  98889285.99543  24149766.281                    24149776.996
 126250154.665 6  98376848.86043  24024621.039                    24024631.086
 113714642.538 7  88608767.21045  21639162.164                    21639171.629
 123200455.042 7  96000429.39044  23444272.445                    23444282.648
 110007848.669 8  85720430.57446  20933799.016                    20933805.852
 110548461.922 8  86141676.66746  21036673.930                    21036681.438
 126550717.999 7  98611070.70643  24081818.055                    24081828.820
 113733018.865 8  88623169.830 7  21642673.133                    21642682.047
 105736202.588 8  82391867.87346  20120930.492                    20120938.840
 123758858.807 7  96435507.23344  23550533.008                    23550544.086
 126864272.448 6  98855305.93143  24141471.984                    24141481.922
 11  8 18 16 43 30.0000000  0 11G10G28G03G08G19G23G11G07G13G06G16
 126943536.574 6  98917108.12343  24156560.469                    24156571.484
 126187440.872 6  98327980.99943  24012687.086                    24012696.449
 113784933.324 7  88663539.22445  21652537.859                    21652548.246
 123130600.054 6  95945996.94644  23430979.016                    23430989.434
 110007018.259 8  85719783.50846  20933640.703                    20933648.355
 110625520.423 8  86201722.22046  21051338.031                    21051344.672
 126472728.209 7  98550299.51043  24066976.945                    24066987.730
 113680181.645 8  88581997.994 7  21632618.500                    21632627.328
 105760802.752 8  82411036.82146  20125611.961                    20125620.172
 123843621.105 6  96501555.70144  23566662.844                    23566674.164
 126953215.172 6  98924611.83943  24158397.695                    24158407.836
 11  8 18 16 44  0.0000000  0 11G10G28G03G08G19G23G11G07G13G06G16
 126979586.504 6  98945198.95743  24163421.148                    24163431.660
 126124952.275 6  98279288.64143  24000795.766                    24000805.895
 113855702.325 7  88718683.86245  21666005.094                    21666014.707
 123060690.668 7  95891522.15344  23417675.422                    23417685.711
 110006807.689 8  85719619.44246  20933600.938                    20933608.254
 110703026.191 8  86262116.30946  21066086.805                    21066093.590
 126394701.202 7  98489499.29243  24052128.805                    24052139.395
 113627423.045 8  88540887.429 7  21622579.031                    21622587.906
 105785995.835 8  82430667.77846  20130406.039                    20130414.090
 123928699.531 6  96567850.52443  23582852.516                    23582863.613
 127042098.558 6  98993871.56143  24175312.289                    24175321.289
 11  8 18 16 44 30.0000000  0 11G10G28G03G08G19G23G11G07G13G06G16
 127015978.971 6  98973556.73343  24170345.289                    24170356.359
 126062689.223 6  98230772.02143  23988948.016                    23988957.293
 113926946.778 7  88774198.96145  21679562.602                    21679571.668
 122990727.698 7  95837005.57544  23404362.148                    23404372.609
 110007217.238 8  85719938.57346  20933678.680                    20933685.809
 110780976.850 8  86322857.05146  21080920.867                    21080927.203
 126316639.627 7  98428672.14943  24037274.156                    24037284.977
 113574744.173 8  88499838.979 7  21612554.383                    21612563.254
 105811781.665 8  82450760.61946  20135312.680                    20135321.242
 124014091.788 6  96634389.87544  23599101.867                    23599112.902
 127130920.960 6  99063083.74043  24192214.453                    24192224.199
 11  8 18 16 45  0.0000000  0 11G10G28G03G08G19G23G11G07G13G06G16
 127052711.319 6  99002179.33443  24177335.641                    24177346.598
 126000651.429 6  98182430.91943  23977142.117                    23977152.199
 113998664.119 7  88830082.56245  21693209.977                    21693219.609
 122920711.810 7  95782447.78644  23391038.875                    23391049.473
 110008246.914 7  85720740.92146  20933874.875                    20933881.508
 110859370.130 8  86383942.68146  21095837.992                    21095844.770
 126238546.113 7  98367820.10443  24022413.641                    24022424.004
 113522146.293 8  88458853.648 7  21602545.594                    21602554.355
 105838159.338 8  82471314.63546  20140332.391                    20140340.863
 124099795.217 7  96701171.69044  23615411.867                    23615422.039
 127219681.325 5  99132247.58343  24209103.813                    24209114.242
 11  8 18 16 45 30.0000000  0 11G10G28G03G08G19G23G11G07G13G06G16
 127089781.950 6  99031065.52243  24184390.141                    24184401.332
 125938838.932 6  98134265.39943  23965379.391                    23965389.785
 114070852.001 7  88886332.82345  21706947.039                    21706956.527
 122850643.030 7  95727848.76244  23377705.211                    23377715.148
 110009897.080 7  85722026.76746  20934188.953                    20934196.059
 110938203.791 8  86445371.47746  21110839.922                    21110846.719
 126160423.251 7  98306945.17443  24007546.695                    24007558.012
 113469630.775 8  88417932.486 7  21592552.594                    21592561.039
 105865128.749 8  82492329.75346  20145464.484                    20145472.531
 124185807.236 6  96768194.01144  23631779.008                    23631789.660
 127308378.626 6  99201362.26343  24225983.633                    24225993.172
 11  8 18 16 46  0.0000000  0 11G10G28G03G08G19G23G11G07G13G06G16
 127127187.770 6  99060212.91243  24191508.227                    24191519.512
 125877251.612 6  98086275.35043  23953659.852                    23953669.617
 114143507.702 7  88942947.61645  21720772.672                    21720782.602
 122780521.927 7  95673208.96344  23364361.359                    23364370.914
 110012167.767 7  85723796.14346  20934620.594                    20934627.652
 111017475.665 8  86507141.73446  21125924.578                    21125931.883
 126082274.184 6  98246049.84743  23992675.422                    23992686.410
 113417198.450 8  88377076.152 7  21582574.289                    21582583.035
 105892689.192 8  82513805.41546  20150708.969                    20150717.332
 124272125.354 6  96835454.82444  23648204.648                    23648215.723
 127397011.546 6  99270426.78543  24242849.531                    24242859.754
 11  8 18 16 46 30.0000000  0 11G10G28G03G08G19G23G11G07G13G06G16
 127164926.493 6  99089619.69343  24198689.344                    24198700.555
 125815889.449 6  98038460.71243  23941983.055                    23941992.617
 114216628.708 7  88999924.97845  21734687.477                    21734697.410
 122710349.321 7  95618529.04444  23351007.977                    23351017.965
 110015058.831 8  85726048.92646  20935171.289                    20935177.945
 111097183.442 8  86569251.65446  21141092.961                    21141099.883
 126004101.298 7  98185135.92143  23977800.625                    23977810.672
 113364850.939 8  88336285.915 7  21572613.055                    21572621.859
 105920840.424 8  82535741.42746  20156066.109                    20156074.246
 124358747.261 6  96902952.34343  23664688.883                    23664699.012
 127485579.194 6  99339440.44743  24259703.789                    24259713.918
 11  8 18 16 47  0.0000000  0 11G10G28G03G08G19G23G11G07G13G06G16
 127202995.899 6  99119284.17543  24205933.406                    24205944.281
 125754752.364 6  97990821.46843  23930348.875                    23930358.520
 114290212.613 7  89057263.04145  21748690.156                    21748699.484
 122640125.701 7  95563809.37644  23337644.914                    23337653.922
 110018570.532 8  85728785.32446  20935839.375                    20935846.648
 111177324.799 8  86631699.42646  21156342.891                    21156350.113
 125925906.907 6  98124205.26543  23962920.234                    23962930.168
 113312589.108 8  88295562.423 7  21562667.961                    21562676.852
 105949581.678 8  82558137.20146  20161535.602                    20161543.480
 124445670.303 6  96970684.54344  23681229.695                    23681239.871
 127574080.211 6  99408402.20943  24276544.914                    24276555.055
 11  8 18 16 47 30.0000000  0 11G10G28G03G08G19G23G11G07G13G06G16
 127241393.471 6  99149204.36643  24213240.031                    24213251.094
 125693840.367 6  97943357.60043  23918757.406                    23918767.609
 114364256.580 7  89114959.58845  21762779.719                    21762789.734
 122569851.712 7  95509050.43844  23324271.914                    23324282.031
 110022702.851 8  85732005.32346  20936625.695                    20936632.660
 111257897.481 8  86694483.30046  21171675.531                    21171682.516
 125847694.364 6  98063260.45043  23948036.898                    23948047.035
 113260414.469 8  88254906.872 7  21552739.688                    21552747.875
 105978912.631 8  82580992.49046  20167116.945                    20167125.285
 124532892.008 6  97038649.45344  23697827.445                    23697837.750
 127662513.631 6  99477311.27743  24293373.250                    24293382.938
 11  8 18 16 48  0.0000000  0 11G10G28G03G08G19G23G11G07G13G06G16
 127280116.851 6  99179378.38243  24220609.430                    24220620.379
 125633153.383 6  97896069.09243  23907208.508                    23907218.875
 114438758.357 7  89173012.87145  21776957.258                    21776966.941
 122499527.537 7  95454252.42044  23310889.680                    23310900.027
 110027455.946 8  85735709.03946  20937530.031                    20937537.094
 111338899.370 8  86757601.61546  21187090.141                    21187096.684
 125769466.291 6  98002303.56343  23933149.875                    23933161.078
 113208327.950 8  88214319.981 7  21542827.602                    21542836.445
 106008832.865 8  82604306.94546  20172810.234                    20172818.801
 124620409.734 6  97106845.04143  23714481.797                    23714491.930
 127750878.246 6  99546166.75643  24310188.539                    24310198.566
 11  8 18 16 48 30.0000000  0 11G10G28G03G08G19G23G11G07G13G06G16
 127319163.555 6  99209804.36743  24228039.852                    24228051.129
 125572691.028 6  97848955.64743  23895702.914                    23895713.336
 114513715.394 7  89231420.89644  21791220.508                    21791230.844
 122429153.961 7  95399415.90044  23297498.242                    23297507.984
 110032829.430 8  85739896.16846  20938553.000                    20938559.648
 111420328.082 8  86821052.52446  21202585.281                    21202591.984
 125691225.356 6  97941336.66743  23918261.344                    23918272.379
 113156331.124 8  88173802.984 7  21532932.930                    21532942.133
 106039341.750 8  82628080.09346  20178616.039                    20178624.340
 124708221.229 6  97175269.53943  23731191.141                    23731201.828
 127839173.163 6  99614967.89843  24326990.203                    24327000.680
 11  8 18 16 49  0.0000000  0 11G10G28G03G08G19G23G11G07G13G06G16
 127358530.990 6  99240480.26743  24235531.523                    24235541.711
 125512453.592 6  97802017.43143  23884240.234                    23884250.203
 114589124.753 7  89290181.38045  21805570.672                    21805580.703
 122358731.288 7  95344541.13944  23284097.547                    23284107.789
 110038823.384 8  85744566.76546  20939693.414                    20939700.273
 111502181.134 8  86884834.08946  21218161.648                    21218168.297
 125612974.322 6  97880361.91343  23903370.805                    23903381.895
 113104424.800 8  88133356.511 7  21523055.570                    21523064.734
 106070438.573 8  82652311.37546  20184533.734                    20184542.086
 124796323.713 6  97243920.73144  23747956.484                    23747967.293
 127927397.115 6  99683713.77743  24343778.867                    24343789.512
 11  8 18 16 49 30.0000000  0 11G10G28G03G08G19G23G11G07G13G06G16
 127398217.063 6  99271404.45443  24243083.383                    24243093.777
 125452440.832 6  97755254.27643  23872820.680                    23872830.461
 114664983.974 7  89349292.43045  21820006.664                    21820016.555
 122288260.263 7  95289628.69844  23270686.977                    23270696.969
 110045437.720 8  85749720.79146  20940952.086                    20940958.609
 111584456.449 8  86948944.68445  21233817.883                    21233824.707
 125534715.803 6  97819381.31843  23888478.547                    23888489.492
 113052610.909 8  88092982.070 7  21513196.023                    21513204.438
 106102122.757 8  82677000.33746  20190563.383                    20190570.988
 124884714.788 6  97312796.83243  23764776.023                    23764787.535
 128015549.203 6  99752403.62443  24360554.039                    24360564.500
 11  8 18 16 50  0.0000000  0 11G10G28G03G08G19G23G11G07G13G06G16
 127438219.002 6  99302574.81743  24250695.094                    24250706.016
 125392652.540 6  97708666.02043  23861443.250                    23861453.410
 114741290.032 7  89408751.64045  21834526.789                    21834537.152
 122217741.437 7  95234679.01544  23257267.781                    23257277.563
 110052672.069 8  85755357.94346  20942328.594                    20942335.668
 111667151.318 8  87013382.20845  21249553.891                    21249561.375
 125456452.594 6  97758397.04543  23873585.234                    23873596.348
 113000890.090 8  88052680.145 7  21503353.477                    21503362.219
 106134393.233 8  82702146.15446  20196703.805                    20196711.969
 124973391.687 6  97381895.68243  23781651.945                    23781662.410
 128103628.161 6  99821036.49444  24377314.898                    24377324.703
 11  8 18 16 50 30.0000000  0 11G10G28G03G08G19G23G11G07G13G06G16
 127478534.539 6  99333989.49743  24258366.906                    24258378.102
 125333088.271 6  97662252.37243  23850108.258                    23850118.242
 114818040.812 7  89468557.38845  21849132.703                    21849142.277
 122147175.467 7  95179692.58844  23243838.844                    23243849.563
 110060526.636 8  85761478.38146  20943823.367                    20943830.266
 111750263.534 8  87078144.92845  21265369.883                    21265376.852
 125378187.691 6  97697411.47943  23858691.211                    23858703.410
 112949263.881 8  88012451.950 7  21493529.602                    21493538.160
 106167249.786 8  82727748.64446  20202956.422                    20202964.367
 125062352.109 6  97451215.41043  23798580.141                    23798591.191
 128191633.119 6  99889611.71843  24394061.531                    24394072.012
 11  8 18 16 51  0.0000000  0 11G10G28G03G08G19G23G11G07G13G06G16
 127519161.251 6  99365646.64943  24266098.414                    24266109.102
 125273748.281 6  97616013.43743  23838816.547                    23838825.754
 114895233.750 7  89528707.68845  21863821.961                    21863831.953
 122076563.207 7  95124670.10944  23230402.195                    23230412.793
 110069001.218 8  85768081.95946  20945435.938                    20945442.727
 111833790.777 8  87143231.06045  21281264.625                    21281271.371
 125299923.635 6  97636426.58343  23843798.570                    23843809.672
 112897733.934 8  87972298.758 7  21483723.680                    21483732.141
 106200691.816 8  82753807.36246  20209319.953                    20209328.500
 125151593.706 6  97520754.26243  23815562.344                    23815573.109
 128279563.039 6  99958128.46043  24410794.219                    24410804.617
 11  8 18 16 51 30.0000000  0 11G10G28G03G08G19G23G11G07G13G06G16
 127560096.340 6  99397544.08843  24273888.219                    24273899.094
 125214632.574 6  97569949.32144  23827566.961                    23827576.582
 114972865.604 7  89589199.98145  21878594.844                    21878604.395
 122005905.107 7  95069611.89744  23216956.602                    23216966.875
 110078095.392 8  85775168.32446  20947166.508                    20947173.465
 111917730.634 8  87208638.69646  21297238.047                    21297245.031
 125221663.267 6  97575444.54143  23828906.367                    23828917.355
 112846301.144 8  87932221.277 7  21473936.516                    21473945.008
 106234718.440 8  82780321.59646  20215795.188                    20215803.098
 125241113.646 6  97590509.98843  23832598.234                    23832608.184
 128367416.971 6 100026585.95843  24427512.023                    24427522.938
 11  8 18 16 52  0.0000000  0 11G10G28G03G08G19G23G11G07G13G06G16
 127601337.385 6  99429679.96643  24281735.789                    24281746.551
 125155740.751 6  97524059.66343  23816360.336                    23816370.125
 115050934.210 7  89650032.62245  21893450.727                    21893460.691
 121935201.640 7  95014518.33944  23203502.227                    23203512.125
 110087808.989 8  85782737.36646  20949014.742                    20949021.551
 112002080.679 8  87274365.97545  21313289.203                    21313295.930
 125143409.509 6  97514467.68943  23814015.328                    23814025.602
 112794966.900 7  87892220.588 7  21464167.953                    21464176.293
 106269329.017 8  82807290.86846  20222381.219                    20222389.551
 125330909.512 6  97660480.72843  23849684.742                    23849696.215
 128455193.921 6 100094983.53342  24444214.359                    24444226.070
 11  8 18 16 52 30.0000000  0 11G10G28G03G08G19G23G11G07G13G06G16
 127642882.038 6  99462052.35843  24289641.914                    24289652.777
 125097072.425 6  97478344.10343  23805195.680                    23805205.020
 115129436.725 7  89711203.35345  21908389.156                    21908398.961
 121864453.731 7  94959390.15044  23190038.570                    23190048.699
 110098141.840 8  85790788.93546  20950981.266                    20950988.469
 112086838.434 8  87340410.94445  21329418.484                    21329425.188
 125065165.094 6  97453498.11143  23799125.453                    23799136.094
 112743732.425 7  87852297.649 7  21454418.070                    21454426.449
 106304522.843 8  82834714.62046  20229078.617                    20229086.703
 125420978.767 6  97730664.47843  23866824.633                    23866835.906
 128542892.829 6 100163320.24042  24460905.195                    24460914.086
 11  8 18 16 53  0.0000000  0 11G10G28G03G08G19G23G11G07G13G06G16
 127684727.695 6  99494659.36743  24297605.109                    24297615.344
 125038627.634 6  97432802.76544  23794074.844                    23794084.305
 115208370.297 7  89772709.97545  21923409.727                    21923419.621
 121793661.471 7  94904227.38844  23176567.625                    23176577.809
 110109093.509 8  85799322.70746  20953065.063                    20953072.191
 112172001.277 8  87406771.56745  21345623.930                    21345630.781
 124986932.866 6  97392538.05243  23784238.070                    23784249.059
 112692599.342 7  87812453.719 7  21444687.898                    21444696.379
 106340298.518 8  82862591.75646  20235886.273                    20235894.277
 125511318.644 6  97801059.13444  23884015.508                    23884026.777
 128630512.578 6 100231595.31042  24477578.117                    24477587.965
 11  8 18 16 53 30.0000000  0 11G10G28G03G08G19G23G11G07G13G06G16
 127726871.545 6  99527498.71443  24305624.680                    24305635.633
 124980406.075 7  97387435.36944  23782995.492                    23783004.336
 115287732.217 7  89834550.38444  21938512.266                    21938522.094
 121722825.896 7  94849030.89044  23163087.852                    23163098.336
 110120663.649 8  85808338.39346  20955266.891                    20955273.836
 112257567.428 8  87473446.45645  21361906.813                    21361914.012
 124908715.428 7  97331589.50643  23769354.008                    23769364.789
 112641568.509 7  87772689.448 7  21434976.641                    21434985.664
 106376655.435 8  82890921.80946  20242804.789                    20242812.734
 125601926.665 6  97871662.71044  23901258.180                    23901269.418
 128718052.136 6 100299807.95242  24494235.719                    24494246.859
 11  8 18 16 54  0.0000000  0 11G10G28G03G08G19G23G11G07G13G06G16
 127769311.341 6  99560568.63544  24313700.328                    24313710.957
 124922407.441 7  97342241.67543  23771957.977                    23771968.191
 115367519.725 7  89896722.42544  21953695.266                    21953705.137
 121651947.907 7  94793801.29544  23149600.539                    23149610.648
 110132851.898 8  85817835.73046  20957586.719                    20957593.703
 112343533.481 8  87540432.94645  21378265.766                    21378272.617
 124830515.692 7  97270654.76043  23754474.023                    23754483.969
 112590641.643 8  87733006.217 7  21425285.727                    21425294.523
 106413592.847 8  82919704.19546  20249833.836                    20249842.121
 125692800.416 6  97942473.33244  23918551.172                    23918562.137
 128805510.812 5 100367957.47842  24510879.109                    24510889.914
 11  8 18 16 54 30.0000000  0 11G10G28G03G08G19G23G11G07G13G06G16
 127812044.439 6  99593867.12843  24321831.883                    24321843.238
 124864631.699 6  97297221.68444  23760964.102                    23760973.496
 115447730.472 7  89959224.25644  21968958.977                    21968968.934
 121581028.087 7  94738539.16344  23136104.930                    23136115.000
 110145657.975 8  85827814.48846  20960023.172                    20960030.281
 112429897.480 8  87607729.52945  21394700.602                    21394707.500
 124752336.470 6  97209736.00243  23739596.219                    23739606.582
 112539820.132 7  87693405.063 7  21415614.938                    21415623.363
 106451109.494 8  82948937.93846  20256973.000                    20256981.430
 125783937.294 6  98013489.01844  23935893.906                    23935904.762
 128892887.423 5 100436043.07642  24527505.383                    24527516.980
 11  8 18 16 55  0.0000000  0 11G10G28G03G08G19G23G11G07G13G06G16
 127855068.758 6  99627392.55043  24330019.383                    24330030.609
 124807078.665 6  97252375.19743  23750011.633                    23750021.625
 115528361.497 7  90022053.58944  21984302.484                    21984312.551
 121510066.893 7  94683244.75344  23122600.609                    23122611.469
 110159081.446 8  85838274.34646  20962577.570                    20962584.797
 112516656.952 8  87675334.28345  21411210.266                    21411216.875
 124674180.733 6  97148835.50843  23724723.258                    23724733.430
 112489105.532 8  87653887.215 7  21405964.273                    21405972.738
 106489205.247 8  82978622.92646  20264222.336                    20264230.582
 125875334.994 6  98084707.93744  23953286.453                    23953297.375
 128980181.478 6 100504064.30242  24544117.789                    24544129.043
 11  8 18 16 55 30.0000000  0 11G10G28G03G08G19G23G11G07G13G06G16
 127898380.905 6  99661142.26643  24338260.977                    24338272.035
 124749747.860 6  97207701.91243  23739102.398                    23739111.934
 115609409.890 7  90085208.12544  21999725.148                    21999735.324
 121439065.116 7  94627918.72444  23109089.891                    23109100.520
 110173121.505 8  85849214.65946  20965249.086                    20965256.266
 112603809.045 8  87743244.96445  21427794.398                    21427801.902
 124596050.921 6  97087955.24943  23709855.500                    23709866.566
 112438498.509 8  87614453.197 7  21396333.867                    21396342.480
 106527878.464 8  83008757.88946  20271581.891                    20271589.789
 125966990.329 6  98156127.61144  23970727.742                    23970739.098
 129067391.38116 100572019.97552  24560713.805                    24560724.473
 11  8 18 16 56  0.0000000  0 11G10G28G03G08G19G23G11G07G13G06G16
 127941978.897 6  99695114.69543  24346557.555                    24346568.582
 124692639.428 6  97163201.89543  23728235.055                    23728244.176
 115690872.987 7  90148685.80844  22015227.477                    22015237.660
 121368023.548 7  94572561.69544  23095571.188                    23095581.211
 110187778.113 8  85860635.39446  20968038.516                    20968045.344
 112691351.756 7  87811460.01645  21444453.234                    21444460.637
 124517950.508 6  97027097.87543  23694993.352                    23695003.754
 112388001.182 8  87575104.641 7  21386724.344                    21386733.223
 106567128.548 8  83039342.36146  20279050.602                    20279058.875
 126058901.268 6  98227746.46443  23988217.750                    23988229.391
 129154516.569 6 100639909.71443  24577293.430                    24577303.238
 11  8 18 16 56 30.0000000  0 11G10G28G03G08G19G23G11G07G13G06G16
 127985859.919 6  99729307.66243  24354907.328                    24354918.848
 124635753.033 7  97118874.88644  23717409.648                    23717418.984
 115772748.326 7  90212484.73244  22030807.500                    22030817.961
 121296942.895 7  94517174.19744  23082045.203                    23082054.938
 110203051.262 8  85872536.55946  20970944.656                    20970951.805
 112779282.528 8  87879977.45945  21461185.805                    21461192.938
 124439881.915 6  96966265.32843  23680137.672                    23680147.914
 112337614.652 8  87535842.424 7  21377136.500                    21377144.922
 106606954.588 8  83070375.62746  20286629.148                    20286637.625
 126151065.288 6  98299562.49943  24005756.242                    24005767.484
 129241556.359 6 100707732.92343  24593856.344                    24593865.977
 11  8 18 16 57  0.0000000  0 11G10G28G03G08G19G23G11G07G13G06G16
 128030021.305 6  99763719.11643  24363311.141                    24363322.906
 124579088.325 6  97074720.63943  23706626.742                    23706636.387
 115855032.812 7  90276602.46845  22046465.867                    22046475.816
 121225823.593 7  94461756.58844  23068511.484                    23068521.949
 110218939.237 8  85884916.79946  20973968.320                    20973975.012
 112867598.423 8  87948794.99845  21477992.156                    21477998.887
 124361847.932 6  96905459.72143  23665287.859                    23665298.398
 112287340.158 8  87496667.514 7  21367569.227                    21367577.766
 106647355.190 8  83101856.60046  20294317.563                    20294325.566
 126243479.533 6  98371573.52543  24023341.922                    24023353.363
 129328509.389 7 100775488.47843  24610402.867                    24610412.629
 11  8 18 16 57 30.0000000  0 11G10G28G03G08G19G23G11G07G13G06G16
 128074460.724 6  99798347.23043  24371767.195                    24371779.375
 124522644.687 7  97030738.63743  23695885.852                    23695894.695
 115937723.745 7  90341036.91044  22062201.414                    22062211.340
 121154666.554 7  94406309.57344  23054970.492                    23054980.184
 110235442.098 8  85897776.17546  20977108.766                    20977115.340
 112956297.009 8  88017910.73645  21494871.008                    21494878.328
 124283851.600 6  96844683.44943  23650446.406                    23650455.910
 112237179.112 8  87457580.996 7  21358024.039                    21358032.602
 106688329.122 8  83133784.32346  20302114.453                    20302122.555
 126336141.524 6  98443777.63143  24040975.008                    24040986.113
 129415374.836 6 100843175.79643  24626933.266                    24626942.859
 11  8 18 16 58  0.0000000  0 11G10G28G03G08G19G23G11G07G13G06G16
 128119175.521 6  99833189.89143  24380277.336                    24380288.840
 124466422.100 7  96986928.86543  23685186.883                    23685196.418
 116020818.570 7  90405786.06645  22078014.313                    22078024.266
 121083472.732 7  94350833.90744  23041423.242                    23041433.672
 110252559.062 8  85911114.06346  20980365.367                    20980372.844
 113045375.831 8  88087322.75345  21511821.531                    21511828.855
 124205895.863 6  96783938.80343  23635611.055                    23635621.262
 112187133.422 8  87418584.368 7  21348500.445                    21348508.984
 106729875.923 8  83166158.45246  20310020.266                    20310028.848
 126429048.849 6  98516172.85243  24058654.758                    24058665.648
 129502152.101 6 100910794.43043  24643445.734                    24643455.949
 11  8 18 16 58 30.0000000  0 11G10G28G03G08G19G23G11G07G13G06G16
 128164162.716 6  99868244.77443  24388837.539                    24388849.141
 124410420.247 6  96943291.10243  23674530.055                    23674539.852
 116104314.554 7  90470847.81244  22093902.695                    22093912.902
 121012242.927 7  94295330.18544  23027868.625                    23027878.191
 110270289.780 8  85924930.19446  20983739.711                    20983746.813
 113134832.231 8  88157028.99945  21528845.102                    21528852.254
 124127983.722 7  96723228.13743  23620785.188                    23620794.754
 112137204.182 8  87379678.484 7  21338999.148                    21339008.070
 106771994.241 8  83198977.90746  20318035.461                    20318043.918
 126522198.871 6  98588757.25043  24076380.453                    24076391.723
 129588840.246 6 100978343.56543  24659941.828                    24659953.227
 11  8 18 16 59  0.0000000  0 11G10G28G03G08G19G23G11G07G13G06G16
 128209420.081 6  99903510.26643  24397450.172                    24397460.707
 124354639.008 6  96899825.25843  23663915.070                    23663924.367
 116188208.779 7  90536219.89045  22109867.852                    22109877.465
 120940977.812 7  94239798.97344  23014307.664                    23014317.148
 110288633.512 8  85939224.00746  20987230.539                    20987237.281
 113224663.934 8  88227027.68345  21545939.992                    21545946.262
 124050117.843 6  96662553.52243  23605967.313                    23605977.406
 112087393.029 8  87340864.622 7  21329520.461                    21329529.078
 106814683.244 8  83232242.04646  20326158.992                    20326167.129
 126615589.194 6  98661528.86943  24094151.617                    24094163.313
 129675438.484 6 101045822.62243  24676420.969                    24676431.492
 11  8 18 16 59 30.0000000  0 11G10G28G03G08G19G23G11G07G13G06G16
 128254944.947 6  99938984.14843  24406113.305                    24406124.191
 124299078.108 6  96856531.08944  23653342.219                    23653351.734
 116272498.374 7  90601900.03844  22125907.023                    22125917.609
 120869678.419 7  94184241.03744  23000739.438                    23000748.563
 110307589.770 8  85953995.10646  20990838.125                    20990844.492
 113314868.350 8  88297316.79045  21563104.758                    21563112.277
 123972300.908 6  96601917.05843  23591158.633                    23591169.160
 112037701.240 8  87302143.764 7  21320064.828                    21320073.199
 106857941.643 8  83265949.87646  20334390.844                    20334398.941
 126709217.156 6  98734485.66343  24111968.492                    24111980.695
 129761946.106 6 101113231.05643  24692883.266                    24692894.027
 11  8 18 17  0  0.0000000  0 11G10G28G03G08G19G23G11G07G13G06G16
 128300734.337 6  99974664.15343  24414826.859                    24414837.445
 124243736.909 7  96813408.11343  23642811.023                    23642820.758
 116357180.324 7  90667885.92544  22142021.914                    22142032.188
 120798345.301 7  94128656.82744  22987165.305                    22987174.809
 110327157.398 8  85969242.60546  20994561.523                    20994568.570
 113405442.380 8  88367893.91045  21580340.508                    21580347.660
 123894536.101 6  96541321.19943  23576360.930                    23576371.363
 111988130.142 8  87263516.952 7  21310631.656                    21310640.313
 106901767.930 8  83300100.21346  20342730.758                    20342739.156
 126803080.005 6  98807625.45143  24129829.922                    24129842.051
 129848361.893 6 101180567.96744  24709328.477                    24709338.656
 11  8 18 17  0 30.0000000  0 11G10G28G03G08G19G23G11G07G13G06G16
 128346785.823 6 100010548.45143  24423590.242                    24423600.793
 124188615.220 7  96770456.19944  23632321.602                    23632331.930
 116442252.096 7  90734175.57144  22158210.672                    22158220.496
 120726979.577 7  94073047.21944  22973584.844                    22973594.652
 110347335.761 8  85984965.99646  20998401.352                    20998408.156
 113496383.720 8  88438757.24645  21597646.273                    21597653.406
 123816826.147 6  96480768.08543  23561573.203                    23561583.668
 111938681.417 8  87224985.501 7  21301221.773                    21301230.445
 106946161.067 8  83334692.25046  20351178.477                    20351186.809
 126897175.422 6  98880946.47143  24147736.195                    24147747.789
 129934685.083 6 101247832.73143  24725754.453                    24725765.297
 11  8 18 17  1  0.0000000  0 11G10G28G03G08G19G23G11G07G13G06G16
 128393097.171 6 100046635.15743  24432403.750                    24432413.793
 124133713.118 7  96727675.37243  23621874.563                    23621883.277
 116527710.779 7  90800766.70144  22174472.773                    22174482.875
 120655581.926 7  94017412.70944  22959998.055                    22960007.832
 110368124.357 8  86001164.89946  21002357.320                    21002364.441
 113587689.811 8  88509904.80745  21615021.133                    21615028.066
 123739174.105 6  96420260.11743  23546796.539                    23546806.945
 111889356.884 8  87186550.828 7  21291835.719                    21291844.281
 106991120.082 8  83369725.22946  20359734.008                    20359741.980
 126991500.757 6  98954446.67743  24165686.055                    24165697.453
 130020914.830 6 101315024.68343  24742164.000                    24742173.801
 11  8 18 17  1 30.0000000  0 11G10G28G03G08G19G23G11G07G13G06G16
 128439665.572 6 100082922.21943  24441263.820                    24441275.609
 124079029.784 7  96685064.99544  23611468.508                    23611477.871
 116613553.537 7  90867657.11544  22190808.047                    22190818.266
 120584152.905 7  93961753.77344  22946405.328                    22946415.012
 110389522.852 8  86017839.04546  21006429.063                    21006436.039
 113679357.852 8  88581334.40245  21632464.867                    21632472.277
 123661582.898 6  96359799.52643  23532031.188                    23532041.777
 111840157.272 8  87148213.496 7  21282473.203                    21282481.820
 107036643.840 8  83405198.26146  20368396.734                    20368404.926
 127086053.674 6  99028124.24843  24183678.422                    24183690.059
 130107050.66516 101382143.46653  24758554.063                    24758565.219
 11  8 18 17  2  0.0000000  0 11G10G28G03G08G19G23G11G07G13G06G16
 128486488.058 6 100119407.22743  24450174.523                    24450185.922
 124024564.696 7  96642624.72744  23601103.539                    23601113.566
 116699777.422 7  90934844.48944  22207216.461                    22207226.125
 120512693.528 7  93906071.16544  22932807.000                    22932817.039
 110411529.560 8  86034987.12546  21010616.977                    21010624.059
 113771385.272 8  88653044.03045  21649977.430                    21649984.086
 123584055.129 6  96299388.38843  23517278.234                    23517288.398
 111791084.194 8  87109974.753 7  21273134.461                    21273143.301
 107082730.384 8  83441109.83646  20377166.773                    20377174.789
 127180831.358 6  99101976.88143  24201714.883                    24201725.621
 130193091.356 6 101449188.14843  24774926.977                    24774938.094
 11  8 18 17  2 30.0000000  0 11G10G28G03G08G19G23G11G07G13G06G16
 128533562.101 6 100156088.30943  24459131.906                    24459143.070
 123970317.677 7  96600354.34144  23590781.070                    23590790.707
 116786379.943 7  91002326.93544  22223695.820                    22223706.172
 120441204.758 7  93850365.67544  22919203.414                    22919212.777
 110434143.981 8  86052608.74346  21014920.422                    21014927.469
 113863769.454 8  88725031.64845  21667557.430                    21667564.898
 123506593.984 6  96239029.14543  23502537.234                    23502548.273
 111742139.508 8  87071836.058 7  21263820.797                    21263829.430
 107129379.003 8  83477459.40246  20386043.406                    20386051.875
 127275831.550 6  99176002.95343  24219792.406                    24219804.141
 130279036.571 5 101516158.38242  24791281.969                    24791293.723
 11  8 18 17  3  0.0000000  0 11G10G28G03G08G19G23G11G07G13G06G16
 128580885.042 6 100192963.30743  24468137.328                    24468148.828
 123916288.568 7  96558253.79644  23580499.742                    23580509.336
 116873358.415 7  91070102.31344  22240247.281                    22240257.590
 120369687.703 7  93794638.12844  22905594.086                    22905603.676
 110457365.594 8  86070703.51046  21019339.375                    21019346.391
 113956507.876 7  88797295.29745  21685205.164                    21685212.402
 123429202.405 7  96178724.11443  23487810.422                    23487820.801
 111693324.636 8  87033798.513 7  21254531.570                    21254540.625
 107176588.408 8  83514245.92346  20395027.219                    20395035.676
 127371051.427 6  99250200.17643  24237911.859                    24237923.859
 130364885.623 5 101583053.67042  24807618.117                    24807629.934
 11  8 18 17  3 30.0000000  0 11G10G28G03G08G19G23G11G07G13G06G16
 128628454.237 6 100230030.18843  24477189.906                    24477200.844
 123862476.877 7  96516322.62443  23570259.242                    23570268.563
 116960709.586 7  91138168.10344  22256870.172                    22256879.961
 120298142.749 7  93738888.85544  22891979.500                    22891989.410
 110481192.793 8  86089270.16046  21023873.313                    21023880.539
 114049597.780 7  88869832.82045  21702919.305                    21702926.535
 123351883.168 7  96118475.46544  23473097.258                    23473107.703
 111644640.905 8  86995863.154 7  21245267.664                    21245275.824
 107224356.890 8  83551468.10246  20404117.523                    20404125.340
 127466488.384 6  99324566.55943  24256073.914                    24256085.102
 130450637.216 5 101649872.93042  24823937.008                    24823947.691
 11  8 18 17  4  0.0000000  0 11G10G28G03G08G19G23G11G07G13G06G16
 128676266.655 6 100267286.61042  24486288.375                    24486299.418
 123808881.812 7  96474560.28643  23560060.820                    23560070.566
 117048430.740 7  91206522.18044  22273561.953                    22273572.867
 120226570.632 7  93683118.40444  22878359.578                    22878369.695
 110505624.918 8  86108308.18446  21028522.148                    21028530.012
 114143036.286 8  88942641.99845  21720699.922                    21720707.199
 123274639.040 7  96058285.30744  23458398.297                    23458408.828
 111596089.674 8  86958031.043 7  21236028.422                    21236037.254
 107272683.069 8  83589124.84146  20413313.125                    20413321.453
 127562139.788 6  99399100.07144  24274275.391                    24274287.008
 130536290.948 5 101716616.05042  24840235.156                    24840247.230
 11  8 18 17  4 30.0000000  0 11G10G28G03G08G19G23G11G07G13G06G16
 128724320.076 5 100304730.81443  24495432.766                    24495443.578
 123755503.622 7  96432966.91243  23549903.609                    23549912.426
 117136519.049 7  91275162.36944  22290325.703                    22290335.297
 120154973.092 7  93627328.14144  22864734.984                    22864745.074
 110530661.609 8  86127817.29646  21033286.797                    21033293.969
 114236821.147 8  89015721.03845  21738547.172                    21738554.059
 123197473.436 7  95998156.33544  23443714.438                    23443724.129
 111547673.332 8  86920304.040 7  21226815.375                    21226823.609
 107321566.145 8  83627215.53346  20422615.641                    20422624.309
 127658003.560 6  99473799.04443  24292517.820                    24292529.949
 130621846.074 6 101783282.29442  24856517.203                    24856527.754
 11  8 18 17  5  0.0000000  0 11G10G28G03G08G19G23G11G07G13G06G16
 128772611.413 6 100342360.40443  24504622.406                    24504633.875
 123702341.672 7  96391542.06243  23539786.664                    23539796.141
 117224971.421 7  91344086.24544  22307157.281                    22307167.730
 120083350.834 7  93571518.64844  22851105.602                    22851115.660
 110556301.387 8  86147796.35246  21038166.156                    21038173.449
 114330949.142 8  89089067.47945  21756458.766                    21756466.590
 123120389.102 7  95938090.69744  23429045.375                    23429055.445
 111499392.926 8  86882682.962 7  21217627.688                    21217636.172
 107371004.414 8  83665738.84346  20432023.570                    20432031.883
 127754076.860 6  99548661.28343  24310800.297                    24310811.512
 130707301.780 6 101849871.12643  24872778.891                    24872789.406
 11  8 18 17  5 30.0000000  0 10G10G28G03G08G19G23G11G07G13G06
 128821138.354 6 100380173.54143  24513857.070                    24513867.922
 123649395.469 7  96350285.31344  23529711.313                    23529720.770
 117313785.597 7  91413292.06544  22324057.945                    22324068.250
 120011704.539 7  93515690.40144  22837472.023                    22837481.797
 110582543.298 8  86168244.59546  21043159.500                    21043166.656
 114425417.829 8  89162679.39045  21774435.758                    21774443.477
 123043389.015 7  95878090.69044  23414392.969                    23414403.246
 111451249.841 8  86845168.896 7  21208466.188                    21208475.160
 107420996.269 8  83704693.51146  20441536.547                    20441545.031
 127850357.198 6  99623684.85644  24329122.141                    24329133.234
 11  8 18 17  6  0.0000000  0 10G10G28G03G08G19G23G11G07G13G06
 128869898.030 6 100418168.07743  24523135.344                    24523146.688
 123596664.683 7  96309196.42143  23519676.617                    23519686.633
 117402958.137 7  91482777.10544  22341026.828                    22341037.398
 119940034.837 7  93459843.91444  22823833.508                    22823843.074
 110609386.194 8  86189161.14846  21048267.867                    21048274.789
 114520224.436 8  89236554.61845  21792476.625                    21792483.738
 122966476.044 7  95818158.58344  23399756.555                    23399766.410
 111403245.583 8  86807762.997 7  21199331.266                    21199339.895
 107471540.233 8  83744078.39646  20451154.906                    20451163.211
 127946841.952 6  99698867.72243  24347481.813                    24347493.441
 11  8 18 17  6 30.0000000  0 10G10G28G03G08G19G23G11G07G13G06
 128918887.577 6 100456341.69843  24532458.211                    24532468.492
 123544148.919 7  96268275.07144  23509684.008                    23509692.797
 117492486.362 7  91552539.33044  22358063.805                    22358073.625
 119868342.833 7  93403980.05844  22810190.758                    22810201.086
 110636828.907 8  86210545.07346  21053489.844                    21053496.609
 114615366.135 7  89310690.95145  21810581.977                    21810589.109
 122889653.186 7  95758296.67744  23385137.508                    23385147.926
 111355381.903 8  86770466.647 7  21190222.945                    21190231.445
 107522635.003 8  83783892.47646  20460877.672                    20460886.082
 128043528.593 6  99774207.90143  24365881.180                    24365892.406
 11  8 18 17  7  0.0000000  0 10G10G28G03G08G19G23G11G07G13G06
 128968104.215 6 100494692.38043  24541822.125                    24541834.078
 123491847.624 7  96227520.84843  23499730.641                    23499740.402
 117582367.267 7  91622576.33644  22375167.227                    22375177.742
 119796629.830 7  93348099.84144  22796544.234                    22796553.746
 110664870.857 7  86232395.93646  21058825.891                    21058833.129
 114710840.388 8  89385086.42145  21828750.234                    21828757.426
 122812923.510 7  95698507.37744  23370536.375                    23370546.074
 111307660.263 8  86733280.980 7  21181142.117                    21181150.676
 107574278.861 8  83824134.41646  20470705.352                    20470713.680
 128140414.514 6  99849703.38043  24384317.500                    24384329.297
 11  8 18 17  7 30.0000000  0 10G10G28G03G08G19G23G11G07G13G06
 129017545.778 6 100533218.21443  24551231.641                    24551242.691
 123439759.937 7  96186933.08144  23489818.750                    23489828.574
 117672598.193 7  91692886.11444  22392337.969                    22392347.965
 119724896.616 7  93292203.86944  22782893.984                    22782903.672
 110693510.626 8  86254712.63846  21064276.320                    21064282.789
 114806644.305 8  89459738.76545  21846981.008                    21846988.207
 122736289.437 7  95638792.57344  23355953.281                    23355962.918
 111260082.278 8  86696207.249 7  21172088.211                    21172096.730
 107626470.403 8  83864803.12946  20480637.227                    20480645.422
 128237497.280 6  99925352.18543  24402791.609                    24402803.520
 11  8 18 17  8  0.0000000  0 10G10G28G03G08G19G23G11G07G13G06
 129067209.005 6 100571916.80943  24560682.242                    24560693.934
 123387885.818 6  96146511.72644  23479947.320                    23479957.508
 117763176.154 7  91763466.27944  22409574.453                    22409584.934
 119653144.424 7  93236293.12045  22769239.508                    22769250.051
 110722746.792 8  86277494.05446  21069839.547                    21069846.598
 114902775.136 8  89534645.85345  21865274.219                    21865280.945
 122659754.479 7  95579155.00243  23341388.766                    23341398.875
 111212649.528 8  86659246.684 7  21163062.078                    21163070.504
 107679208.026 8  83905897.35146  20490672.688                    20490681.059
 128334774.217 6 100001152.34743  24421302.664                    24421314.816
 11  8 18 17  8 30.0000000  0 10G10G28G03G08G19G23G11G07G13G06
 129117091.371 6 100610786.19643  24570174.445                    24570185.941
 123336225.096 6  96106256.67044  23470116.969                    23470126.219
 117854098.120 7  91834314.52444  22426876.414                    22426886.363
 119581374.181 7  93180368.29744  22755582.289                    22755592.449
 110752578.645 8  86300739.64746  21075516.195                    21075523.422
 114999230.125 8  89609805.52045  21883628.742                    21883636.344
 122583321.534 7  95519596.94443  23326844.461                    23326854.004
 111165363.545 8  86622400.484 7  21154064.063                    21154072.523
 107732490.338 8  83947416.00946  20500812.320                    20500820.691
 128432242.923 6 100077101.87843  24439850.398                    24439862.449
 11  8 18 17  9  0.0000000  0 10G10G28G03G08G19G23G11G07G13G06
 129167189.757 6 100649823.85843  24579707.898                    24579719.035
 123284776.656 7  96066167.01744  23460326.797                    23460336.250
 117945361.271 7  91905428.61344  22444243.352                    22444253.352
 119509586.702 7  93124430.04645  22741921.984                    22741931.672
 110783004.882 8  86324448.38646  21081306.516                    21081313.559
 115096006.508 8  89685215.63245  21902045.445                    21902052.250
 122506993.807 7  95460120.82344  23312319.719                    23312329.324
 111118225.850 8  86585669.824 7  21145093.789                    21145102.504
 107786315.295 8  83989357.51346  20511054.555                    20511062.984
 128529900.708 6 100153198.75042  24458434.539                    24458446.711
 11  8 18 17  9 30.0000000  0 10G10G28G03G08G19G23G11G07G13G06
 129217501.949 6 100689028.12943  24589282.602                    24589292.801
 123233540.515 7  96026242.79644  23450576.648                    23450585.254
 118036962.897 7  91976806.45244  22461674.148                    22461684.926
 119437783.173 7  93068479.29445  22728258.219                    22728268.043
 110814024.659 8  86348619.63046  21087209.461                    21087216.328
 115193101.945 8  89760874.35445  21920521.555                    21920528.887
 122430773.768 7  95400728.64043  23297815.258                    23297824.832
 111071238.536 8  86549056.343 7  21136152.461                    21136160.949
 107840681.840 8  84031721.02046  20521399.664                    20521408.508
 128627745.440 6 100229441.35242  24477053.242                    24477065.375
 11  8 18 17 10  0.0000000  0 10G10G28G03G08G19G23G11G07G13G06
 129268025.371 6 100728396.99743  24598896.586                    24598907.543
 123182516.067 7  95986483.51844  23440866.875                    23440876.078
 118128900.027 7  92048445.73944  22479169.516                    22479180.063
 119365964.491 7  93012516.72544  22714591.563                    22714601.242
 110845636.541 8  86373252.25646  21093225.094                    21093231.859
 115290513.303 8  89836779.24845  21939058.586                    21939065.734
 122354664.470 7  95341422.76243  23283331.695                    23283341.457
 111024402.953 8  86512561.093 7  21127239.578                    21127248.234
 107895588.209 8  84074505.18546  20531848.422                    20531856.805
 128725774.413 6 100305827.50842  24495708.523                    24495720.359
 11  8 18 17 10 30.0000000  0 10G10G28G03G08G19G23G11G07G13G06
 129318756.967 6 100767928.10143  24608551.055                    24608561.590
 123131702.859 7  95946888.83344  23431197.445                    23431207.152
 118221169.850 7  92120344.25144  22496728.438                    22496737.938
 119294131.538 7  92956543.03444  22700921.922                    22700931.676
 110877839.116 7  86398345.15946  21099352.586                    21099359.621
 115388237.918 8  89912928.24045  21957655.125                    21957661.957
 122278669.226 7  95282205.71243  23268870.375                    23268880.191
 110977720.589 8  86476185.241 7  21118356.516                    21118365.242
 107951033.109 8  84117708.97546  20542399.273                    20542407.828
 128823984.992 6 100382355.19442  24514397.109                    24514408.180
 11  8 18 17 11  0.0000000  0 10G10G28G03G08G19G23G11G07G13G06
 129369693.737 6 100807619.06743  24618243.898                    24618255.113
 123081100.156 7  95907458.18044  23421568.055                    23421577.645
 118313769.147 7  92192499.50744  22514349.250                    22514359.254
 119222285.514 7  92900559.16444  22687250.258                    22687259.816
 110910630.894 8  86423897.18446  21105592.563                    21105599.824
 115486272.904 8  89989319.07245  21976310.078                    21976317.414
 122202790.796 7  95223079.71143  23254431.734                    23254440.922
 110931193.134 8  86439930.092 7  21109502.750                    21109511.316
 108007013.717 8  84161330.20246  20553052.344                    20553060.508
 128922374.539 6 100459022.30542  24533119.984                    24533132.074
 11  8 18 17 11 30.0000000  0 10G10G28G03G08G19G23G11G07G13G06
 129420833.160 6 100847467.93343  24627975.961                    24627985.934
 123030707.563 7  95868191.25844  23411978.813                    23411988.199
 118406695.269 7  92264909.42644  22532032.484                    22532042.668
 119150427.342 7  92844565.82745  22673576.188                    22673585.117
 110944010.987 8  86449907.63946  21111945.031                    21111952.086
 115584615.571 8  90065949.65945  21995024.664                    21995032.125
 122127032.054 7  95164046.97043  23240015.500                    23240024.438
 110884821.994 8  86403796.748 7  21100678.594                    21100686.906
 108063528.897 8  84205367.97046  20563806.461                    20563815.227
 129020940.705 6 100535826.99942  24551876.414                    24551888.195
 11  8 18 17 12  0.0000000  0 10G10G28G03G08G19G23G11G07G13G06
 129472172.452 6 100887472.58443  24637744.672                    24637755.902
 122980524.659 7  95829087.70844  23402429.320                    23402438.449
 118499945.467 7  92337571.85844  22549776.984                    22549787.516
 119078558.549 7  92788564.19944  22659899.313                    22659909.172
 110977977.878 8  86476375.33046  21118408.445                    21118415.766
 115683262.808 8  90142817.57245  22013796.523                    22013803.762
 122051396.487 7  95105110.22243  23225621.563                    23225631.871
 110838609.333 8  86367786.883 7  21091884.547                    21091893.125
 108120577.283 8  84249821.22746  20574662.617                    20574671.180
 129119680.939 6 100612767.37643  24570666.375                    24570678.316
 11  8 18 17 12 30.0000000  0 10G10G28G03G08G19G23G11G07G13G06
 129523708.749 6 100927630.69343  24647551.820                    24647562.984
 122930550.909 7  95790147.16344  23392920.023                    23392929.160
 118593516.835 6  92410484.56344  22567583.195                    22567593.332
 119006680.043 7  92732555.01744  22646221.094                    22646231.105
 111012530.164 8  86503299.17146  21124983.641                    21124990.594
 115782211.997 7  90219920.77045  22032626.070                    22032633.773
 121975886.792 7  95046271.54344  23211253.031                    23211262.695
 110792556.782 8  86331901.783 7  21083121.023                    21083129.367
 108178156.884 8  84294688.42146  20585619.820                    20585628.305
 129218592.854 6 100689841.54743  24589489.336                    24589500.566
 11  8 18 17 13  0.0000000  0 10G10G28G03G08G19G23G11G07G13G06
 129575439.664 6 100967940.47743  24657396.117                    24657407.293
 122880785.707 7  95751369.11244  23383449.000                    23383458.695
 118687406.583 7  92483645.33244  22585449.586                    22585460.152
 118934793.019 7  92676539.17545  22632541.781                    22632551.281
 111047666.860 8  86530678.39646  21131669.883                    21131676.934
 115881460.340 8  90297257.06345  22051512.492                    22051519.801
 121900506.107 7  94987533.39143  23196908.617                    23196918.195
 110746665.599 8  86296142.431 7  21074388.547                    21074396.898
 108236266.802 8  84339968.85046  20596677.625                    20596686.281
 129317674.051 7 100767047.62843  24608344.070                    24608354.645
 11  8 18 17 13 30.0000000  0 10G10G28G03G08G19G23G11G07G13G06
 129627361.946 6 101008399.40043  24667276.492                    24667287.406
 122831228.371 7  95712753.03144  23374018.891                    23374028.891
 118781611.217 7  92557051.48644  22603376.945                    22603386.625
 118862898.580 7  92620517.57744  22618860.977                    22618870.277
 111083386.040 8  86558511.51046  21138466.953                    21138474.031
 115981005.033 7  90374824.28845  22070455.227                    22070462.320
 121825256.941 7  94928897.72444  23182589.109                    23182598.871
 110700937.147 8  86260509.881 7  21065686.719                    21065694.438
 108294903.505 8  84385659.76246  20607835.695                    20607844.223
 129416921.444 6 100844383.26943  24627229.672                    24627241.020
 11  8 18 17 14  0.0000000  0 10G10G28G03G08G19G23G11G07G13G06
 129679472.946 6 101049005.31843  24677192.203                    24677203.734
 122781878.474 7  95674298.59944  23364627.664                    23364637.352
 118876128.207 7  92630701.04144  22621362.484                    22621372.922
 118790997.667 7  92564490.90944  22605178.680                    22605187.957
 111119686.421 7  86586797.50446  21145375.086                    21145381.770
 116080843.105 7  90452620.11845  22089453.539                    22089461.043
 121750142.628 7  94870367.11444  23168295.367                    23168304.523
 110655373.686 8  86225005.886 7  21057016.000                    21057024.012
 108354065.789 8  84431760.21246  20619094.055                    20619102.352
 129516332.808 6 100921846.62843  24646147.023                    24646158.598
 11  8 18 17 14 30.0000000  0 10G10G28G03G08G19G23G11G07G13G06
 129731769.979 6 101089756.22143  24687144.906                    24687156.219
 122732735.650 6  95636005.52844  23355276.938                    23355285.836
 118970954.819 7  92704591.84644  22639407.914                    22639417.762
 118719091.517 7  92508460.19145  22591494.695                    22591504.813
 111156566.743 8  86615535.40546  21152392.898                    21152400.254
 116180972.338 7  90530642.82345  22108507.672                    22108515.121
 121675166.377 7  94811944.10444  23154027.344                    23154037.313
 110609977.145 8  86189631.974 7  21048377.531                    21048385.695
 108413752.143 8  84478269.03046  20630451.984                    20630460.449
 129615905.858 6 100999435.96943  24665095.242                    24665107.043
 11  8 18 17 15  0.0000000  0 10G10G28G03G08G19G23G11G07G13G06
 129784250.207 6 101130649.82843  24697131.227                    24697142.551
 122683799.009 6  95597873.10344  23345964.422                    23345973.016
 119066088.023 7  92778721.55744  22657510.586                    22657521.242
 118647181.145 7  92452426.17144  22577810.727                    22577821.148
 111194025.176 8  86644723.78546  21159521.164                    21159528.020
 116281389.455 7  90608889.85945  22127616.477                    22127623.883
 121600331.006 7  94753630.84644  23139786.852                    23139796.609
 110564748.633 8  86154388.982 7  21039770.453                    21039779.000
 108473960.698 8  84525184.75946  20641909.773                    20641917.984
 129715637.814 6 101077149.09243  24684073.258                    24684085.543
 11  8 18 17 15 30.0000000  0 10G10G28G03G08G19G23G11G07G13G06
 129836910.826 6 101171684.08443  24707152.266                    24707163.039
 122635068.468 7  95559901.26744  23336690.891                    23336699.824
 119161524.978 7  92853087.97344  22675671.719                    22675682.520
 118575268.237 7  92396390.17445  22564126.602                    22564136.336
 111232060.787 7  86674361.91146  21166759.164                    21166765.711
 116382091.447 7  90687358.86945  22146779.375                    22146786.539
 121525639.662 7  94695429.82044  23125573.719                    23125583.652
 110519690.141 8  86119278.477 7  21031196.328                    21031204.516
 108534689.797 8  84572506.10646  20653465.969                    20653474.063
 129815526.707 6 101154984.50043  24703081.320                    24703093.605
 11  8 18 17 16  0.0000000  0 10G10G28G03G08G19G23G11G07G13G06
 129889749.214 6 101212856.82743  24717207.219                    24717218.211
 122586542.894 7  95522089.15844  23327456.539                    23327466.379
 119257262.964 7  92927688.95344  22693890.617                    22693900.445
 118503353.694 7  92340352.89245  22550441.742                    22550451.344
 111270671.795 8  86704448.40846  21174106.406                    21174113.504
 116483075.533 7  90766047.68645  22165996.055                    22166003.848
 121451094.906 7  94637343.00944  23111388.555                    23111398.309
 110474803.189 8  86084301.641 7  21022654.469                    21022662.969
 108595937.163 8  84620231.29446  20665121.133                    20665129.504
 129915569.525 6 101232939.86543  24722119.352                    24722131.328
 11  8 18 17 16 30.0000000  0 10G10G28G03G08G19G23G11G07G13G06
 129942762.530 6 101254165.85443  24727295.766                    24727306.348
 122538221.791 7  95484436.36944  23318261.609                    23318270.402
 119353298.649 7  93002521.88444  22712165.367                    22712175.527
 118431438.665 7  92284315.23744  22536756.945                    22536765.809
 111309856.511 8  86734981.94346  21181563.078                    21181569.809
 116584338.916 7  90844954.14745  22185265.883                    22185273.160
 121376700.569 7  94579373.43244  23097231.594                    23097241.043
 110430090.019 8  86049460.227 7  21014145.938                    21014154.512
 108657700.956 8  84668358.89446  20676874.141                    20676882.695
 130015763.912 6 101311013.36343  24741185.109                    24741197.871
 11  8 18 17 17  0.0000000  0 10G10G28G03G08G19G23G11G07G13G06
 129995948.070 6 101295609.12543  24737416.539                    24737427.305
 122490104.893 7  95446942.66344  23309105.469                    23309114.672
 119449629.247 7  93077584.62844  22730496.188                    22730506.824
 118359524.158 7  92228277.99145  22523071.883                    22523081.113
 111349613.400 8  86765961.32746  21189128.172                    21189135.180
 116685878.670 7  90924075.96345  22204588.250                    22204595.754
 121302459.347 7  94521523.16844  23083103.836                    23083113.922
 110385551.537 8  86014754.937 7  21005670.570                    21005678.820
 108719979.435 8  84716887.55446  20688725.320                    20688733.945
 130116107.414 6 101389202.99643  24760280.906                    24760292.570
 11  8 18 17 17 30.0000000  0 10G10G28G03G08G19G23G11G07G13G06
 130049302.775 6 101337184.14343  24747569.578                    24747580.387
 122442191.070 7  95409607.24944  23299987.813                    23299997.023
 119546251.712 6  93152874.81644  22748883.063                    22748893.605
 118287611.360 7  92172242.05245  22509387.422                    22509396.676
 111389940.626 8  86797385.13046  21196802.797                    21196809.395
 116787691.977 7  91003410.93445  22223962.602                    22223970.383
 121228373.717 7  94463794.15544  23069005.836                    23069015.367
 110341189.075 8  85980186.804 7  20997228.594                    20997236.691
 108782770.150 8  84765815.35446  20700674.031                    20700682.527
 130216597.313 5 101467506.75043  24779402.578                    24779414.605
 11  8 18 17 18  0.0000000  0 10G10G28G03G08G19G23G11G07G13G06
 130102824.303 6 101378889.24243  24757753.492                    24757764.848
 122394480.437 7  95372430.13344  23290908.609                    23290917.730
 119643163.498 6  93228390.41444  22767324.781                    22767335.426
 118215702.283 7  92116209.03545  22495703.500                    22495713.035
 111430837.544 8  86829252.84446  21204584.992                    21204592.047
 116889776.454 7  91082957.21845  22243388.516                    22243395.941
 121154447.511 7  94406189.38044  23054938.477                    23054947.609
 110297005.926 8  85945758.396 7  20988820.727                    20988829.266
 108846071.704 8  84815141.21446  20712719.953                    20712728.195
 130317231.79515 101545923.14252  24798553.453                    24798564.664
 11  8 18 17 18 30.0000000  0 10G10G28G03G08G19G23G11G07G13G06
 130156509.617 6 101420721.86343  24767970.219                    24767981.484
 122346972.239 7  95335410.77044  23281868.445                    23281877.055
 119740361.657 7  93304129.16644  22785821.008                    22785831.723
 118143797.767 7  92060179.55845  22482020.117                    22482029.699
 111472301.940 8  86861562.74746  21212475.523                    21212482.531
 116992128.883 7  91162712.27145  22262866.078                    22262874.043
 121080683.745 7  94348711.17444  23040901.008                    23040911.094
 110253003.535 8  85911470.847 7  20980447.266                    20980455.637
 108909882.056 8  84864863.53746  20724862.945                    20724871.004
 130418008.175 5 101624450.08742  24817730.766                    24817742.508
 11  8 18 17 19  0.0000000  0 10G10G28G03G08G19G23G11G07G13G06
 130210355.380 6 101462679.54243  24778216.844                    24778227.750
 122299665.229 7  95298548.16944  23272865.641                    23272874.785
 119837843.057 6  93380088.62744  22804370.906                    22804381.988
 118071898.569 7  92004154.24245  22468338.570                    22468347.867
 111514331.602 8  86894313.11346  21220473.094                    21220480.527
 117094745.908 7  91242673.51645  22282393.406                    22282400.797
 121007084.620 7  94291361.26844  23026896.055                    23026905.531
 110209182.406 8  85877324.524 7  20972108.641                    20972116.895
 108974198.657 8  84914980.34046  20737101.594                    20737110.012
 130518923.38515 101703085.15952  24836934.797                    24836945.871
 11  8 18 17 19 30.0000000  0 10G10G28G03G08G19G23G11G07G13G06
 130264359.210 6 101504760.38442  24788492.469                    24788504.465
 122252559.072 7  95261842.08444  23263901.938                    23263910.398
 119935604.698 6  93456266.47744  22822974.305                    22822984.980
 118000005.443 7  91948133.65445  22454657.500                    22454667.305
 111556925.298 8  86927502.99746  21228578.766                    21228585.871
 117197624.948 7  91322838.92445  22301971.039                    22301978.582
 120933653.706 6  94234142.42544  23012922.398                    23012931.539
 110165544.677 7  85843321.121 7  20963804.258                    20963812.723
 109039019.651 8  84965490.17746  20749436.563                    20749445.031
 130619975.299 6 101781826.88743  24856163.344                    24856175.238
 11  8 18 17 20  0.0000000  0 10G10G28G03G08G19G23G11G07G13G06
 130318519.112 6 101546962.87342  24798800.172                    24798810.980
 122205653.887 7  95225292.61044  23254975.883                    23254985.199
 120033644.331 6  93532660.92544  22841631.453                    22841641.684
 117928121.415 7  91892120.15445  22440978.734                    22440988.020
 111600082.228 8  86961131.75546  21236791.180                    21236798.316
 117300763.889 7  91403206.85644  22321597.492                    22321605.188
 120860394.766 7  94177057.60044  22998981.430                    22998991.520
 110122093.422 8  85809463.015 7  20955536.047                    20955544.387
 109104343.737 8  85016392.02946  20761867.305                    20761876.109
 130721162.024 6 101860673.67342  24875419.469                    24875430.910
 11  8 18 17 20 30.0000000  0  9G10G28G03G08G19G23G11G07G13
 130372832.12316 101589284.61152  24809134.008                    24809146.684
 122158949.180 7  95188899.34744  23246088.352                    23246097.922
 120131959.146 6  93609269.79044  22860339.398                    22860350.492
 117856247.519 7  91836114.55745  22427301.211                    22427311.086
 111643800.400 8  86995197.84246  21245110.586                    21245117.715
 117404159.761 7  91483774.99945  22341272.766                    22341280.828
 120787310.469 7  94120108.84144  22985074.008                    22985083.691
 110078829.746 8  85775751.061 7  20947303.273                    20947311.313
 109170168.854 8  85067684.30146  20774393.789                    20774402.156
 11  8 18 17 21  0.0000000  0  9G10G28G03G08G19G23G11G07G13
 130427294.915 6 101631723.12042  24819499.328                    24819510.332
 122112443.093 7  95152660.85544  23237238.203                    23237247.984
 120230545.542 6  93686090.28344  22879100.602                    22879111.152
 117784384.101 7  91780117.11945  22413626.414                    22413635.254
 111688077.047 7  87029699.10646  21253536.344                    21253543.402
 117507808.924 7  91564540.49645  22360997.047                    22361004.645
 120714403.174 7  94063298.02544  22971200.125                    22971209.473
 110035754.872 8  85742186.226 7  20939106.344                    20939114.688
 109236492.063 8  85119364.68646  20787014.398                    20787023.262
 11  8 18 17 21 30.0000000  0  9G10G28G03G08G19G23G11G07G13
 130481904.471 6 101674275.99442  24829889.813                    24829902.203
 122066135.138 7  95116576.75844  23228426.578                    23228435.746
 120329400.648 6  93763120.14744  22897912.094                    22897923.000
 117712532.602 7  91724128.96745  22399953.102                    22399962.445
 111732910.741 7  87064634.43846  21262067.523                    21262074.848
 117611708.643 7  91645501.23445  22380768.781                    22380776.543
 120641675.880 7  94006627.45444  22957360.477                    22957370.094
 109992870.663 8  85708769.974 7  20930945.625                    20930954.023
 109303311.347 8  85171431.63346  20799730.023                    20799738.676
 11  8 18 17 22  0.0000000  0  9G10G28G03G08G19G23G11G07G13
 130536657.933 6 101716940.98742  24840310.289                    24840321.559
 122020024.799 7  95080646.65844  23219651.953                    23219661.352
 120428521.598 7  93840357.17744  22916774.797                    22916784.754
 117640693.981 7  91668150.84445  22386282.641                    22386291.992
 111778299.375 7  87100002.18246  21270705.266                    21270712.285
 117715855.768 7  91726654.75445  22400587.016                    22400594.785
 120569131.521 7  93950099.44344  22943556.242                    22943565.621
 109950178.275 8  85675503.176 7  20922821.414                    20922829.680
 109370624.531 8  85223883.42746  20812539.203                    20812547.559
 11  8 18 17 22 30.0000000  0  9G10G28G03G08G19G23G11G07G13
 130591552.827 6 101759716.17842  24850756.055                    24850767.813
 121974110.859 7  95044869.58844  23210914.344                    23210924.016
 120527905.479 7  93917799.11744  22935686.148                    22935696.684
 117568870.153 7  91612184.26345  22372615.141                    22372624.750
 111824241.719 7  87135801.40246  21279447.586                    21279454.984
 117820247.367 7  91807998.77745  22420452.148                    22420460.047
 120496773.911 7  93893716.95344  22929786.250                    22929795.977
 109907680.272 8  85642387.862 7  20914734.570                    20914742.695
 109438429.755 8  85276718.63346  20825441.852                    20825450.469
 11  8 18 17 23  0.0000000  0  9G10G28G03G08G19G23G11G07G13
 130646586.161 6 101802599.26642  24861228.625                    24861240.590
 121928393.586 7  95009245.78344  23202214.641                    23202223.957
 120627549.344 7  93995443.59044  22954648.125                    22954658.523
 117497062.338 7  91556230.15045  22358950.688                    22358960.086
 111870735.849 7  87172030.57246  21288295.039                    21288301.996
 117924880.730 7  91889531.17545  22440363.016                    22440370.605
 120424605.660 7  93837482.00744  22916053.453                    22916063.125
 109865378.408 8  85609425.374 7  20906685.180                    20906692.980
 109506724.648 8  85329935.40446  20838438.336                    20838446.816
 11  8 18 17 23 30.0000000  0 10G10G28G03G08G19G23G11G24G07G13
 130701754.998 6 101845587.83642  24871726.781                    24871738.449
 121882871.803 7  94973774.30644  23193552.664                    23193561.758
 120727450.699 7  94073288.74644  22973658.719                    22973668.703
 117425271.839 7  91500289.52745  22345289.086                    22345298.340
 111917779.531 7  87208687.97246  21297247.148                    21297254.320
 118029752.768 7  91971249.55744  22460320.047                    22460327.563
 120352629.460 7  93781396.72844  22902356.734                    22902365.883
 128174704.52916                  24390837.117
 109823274.089 8  85576616.811 7  20898672.836                    20898680.695
 109575506.846 8  85383531.89846  20851527.258                    20851535.680
 11  8 18 17 24  0.0000000  0 10G10G28G03G08G19G23G11G24G07G13
 130757056.115 6 101888679.63642  24882250.430                    24882262.500
 121837544.555 6  94938454.39144  23184926.156                    23184935.668
 120827606.127 7  94151331.87744  22992717.719                    22992728.367
 117353499.786 7  91444363.28445  22331631.703                    22331641.148
 111965370.845 7  87245772.09346  21306303.336                    21306310.457
 118134860.494 7  92053151.60145  22480320.914                    22480328.938
 120280848.437 7  93725463.53244  22888697.023                    22888706.289
 128102689.005 6  99820335.84052  24377133.586                    24377146.898
 109781369.036 8  85543963.520 7  20890698.305                    20890706.695
 109644773.681 8  85437506.02646  20864708.117                    20864716.965
 11  8 18 17 24 30.0000000  0 10G10G28G03G08G19G23G11G24G07G13
 130812487.374 6 101931872.81942  24892798.211                    24892810.230
 121792411.759 7  94903286.02344  23176338.133                    23176347.605
 120928012.594 7  94229570.63843  23011824.758                    23011835.020
 117281747.578 7  91388452.50145  22317977.203                    22317986.668
 112013508.417 8  87283281.87346  21315463.930                    21315470.773
 118240201.397 7  92135235.33744  22500367.164                    22500374.863
 120209266.021 7  93669685.09044  22875075.547                    22875084.492
 128030599.611 6  99764162.48542  24363415.445                    24363428.910
 109739665.700 8  85511467.421 7  20882762.359                    20882770.434
 109714524.125 8  85491856.99546  20877981.125                    20877990.215
 11  8 18 17 25  0.0000000  0 10G10G28G03G08G19G23G11G24G07G13
 130868046.110 6 101975165.30442  24903371.023                    24903382.805
 121747472.633 7  94868268.55444  23167786.320                    23167796.066
 121028667.997 6  94308003.31243  23030977.898                    23030989.285
 117210016.884 7  91332558.49045  22304327.531                    22304336.957
 112062190.263 8  87321215.76246  21324727.977                    21324734.766
 118345772.489 7  92217498.43945  22520456.852                    22520464.875
 120137885.170 7  93614063.69844  22861492.109                    22861501.418
 127958438.565 6  99707933.21742  24349683.422                    24349697.637
 109698165.466 8  85479129.581 7  20874865.320                    20874873.594
 109784755.613 8  85546582.80346  20891345.672                    20891354.672
 11  8 18 17 25 30.0000000  0 10G10G28G03G08G19G23G11G24G07G13
 130923729.186 6 102018554.67742  24913967.523                    24913978.813
 121702726.066 7  94833401.14144  23159271.828                    23159281.027
 121129569.177 7  94386627.55043  23050179.258                    23050189.387
 117138309.026 7  91276682.26445  22290681.758                    22290691.266
 112111414.227 7  87359572.07746  21334094.617                    21334101.938
 118451570.821 7  92299938.60045  22540589.539                    22540597.461
 120066708.606 7  93558601.50044  22847947.414                    22847957.176
 127886208.434 5  99651650.11242  24335937.438                    24335952.531
 109656869.950 8  85446951.253 7  20867006.813                    20867015.059
 109855465.546 8  85601681.41846  20904801.563                    20904810.348
 11  8 18 17 26  0.0000000  0 10G10G28G03G08G19G23G11G24G07G13
 130979534.515 6 102062039.31042  24924586.266                    24924598.160
 121658172.244 6  94798683.90944  23150792.969                    23150802.137
 121230713.595 7  94465441.31343  23069426.594                    23069437.406
 117066626.296 7  91220825.62545  22277040.813                    22277050.402
 112161179.120 7  87398349.89746  21343564.461                    21343571.719
 118557594.085 7  92382554.04244  22560764.828                    22560773.211
 119995740.366 7  93503301.62444  22834442.586                    22834452.465
 127813912.475 5  99595315.77842  24322180.148                    24322194.813
 109615781.763 8  85414934.484 7  20859187.914                    20859196.348
 109926652.436 8  85657151.69846  20918348.156                    20918357.121
 11  8 18 17 26 30.0000000  0 10G28G03G08G19G23G11G01G24G07G13
 121613810.697 7  94764116.50244  23142351.633                    23142360.984
 121332098.925 7  94544442.79144  23088719.484                    23088730.043
 116994970.136 7  91164989.67945  22263405.508                    22263414.641
 112211483.239 7  87437547.89146  21353137.148                    21353144.461
 118663839.651 7  92465342.70044  22580982.992                    22580990.824
 119924983.650 7  93448166.58044  22820978.516                    22820987.340
 128584778.63016 100195944.01316  24468869.523                    24468884.590
 127741553.555 5  99538932.28342  24308410.625                    24308426.086
 109574903.623 8  85383081.397 7  20851409.031                    20851417.320
 109998314.382 8  85712992.14446  20931984.773                    20931993.832
 11  8 18 17 27  0.0000000  0 10G28G03G08G19G23G11G01G24G07G13
 121569639.755 7  94729697.60544  23133946.164                    23133955.344
 121433721.143 6  94623628.86543  23108058.070                    23108068.191
 116923341.089 7  91109174.87245  22249774.555                    22249784.164
 112262323.573 7  87477163.72146  21362811.672                    21362819.207
 118770303.396 7  92548301.38545  22601242.000                    22601250.613
 119854440.429 7  93393197.88344  22807553.891                    22807563.570
 128508526.760 6 100136527.115 6  24454358.953                    24454374.063
 127669133.784 5  99482501.56542  24294629.180                    24294644.570
 109534235.349 8  85351391.831 7  20843670.555                    20843678.582
 110070447.997 8  85769200.13046  20945711.258                    20945720.129
 11  8 18 17 27 30.0000000  0 10G28G03G08G19G23G11G01G24G07G13
 121525658.985 7  94695426.90144  23125577.023                    23125585.898
 121535577.800 6  94702997.58743  23127440.391                    23127451.387
 116851740.521 7  91053382.25345  22236149.656                    22236159.180
 112313698.495 7  87517196.10346  21372588.195                    21372595.355
 118876982.998 7  92631428.25244  22621543.305                    22621550.559
 119784114.047 7  93338398.13844  22794171.438                    22794180.852
 128432203.702 6 100077054.752 6  24439834.383                    24439850.352
 127596656.061 5  99426025.58542  24280837.344                    24280852.305
 109493779.700 8  85319867.968 7  20835971.836                    20835979.629
 110143051.337 8  85825774.12846  20959527.281                    20959536.020
 11  8 18 17 28  0.0000000  0 10G28G03G08G19G23G11G01G24G07G13
 121481867.012 7  94661303.30844  23117243.805                    23117252.938
 121637665.361 6  94782546.27143  23146866.680                    23146877.949
 116780169.414 7  90997612.58345  22222530.289                    22222539.426
 112365605.186 7  87557642.85446  21382465.969                    21382472.910
 118983874.710 7  92714720.41344  22641883.781                    22641891.609
 119714006.963 7  93283769.29644  22780830.484                    22780840.012
 128355811.235 6 100017528.291 6  24425297.563                    24425313.137
 127524122.277 5  99369505.93842  24267034.492                    24267048.914
 109453537.525 8  85288510.424 7  20828313.867                    20828322.211
 110216120.812 8  85882711.34746  20973432.023                    20973440.648
 11  8 18 17 28 30.0000000  0 10G28G03G08G19G23G11G01G24G07G13
 121438263.507 7  94627326.57744  23108946.063                    23108954.930
 121739981.406 6  94862272.93644  23166337.578                    23166348.277
 116708629.936 7  90941867.56945  22208916.469                    22208926.059
 112418042.213 7  87598502.85746  21392444.164                    21392451.270
 119090976.122 7  92798175.96744  22662264.477                    22662272.922
 119644122.571 7  93229313.93744  22767531.977                    22767541.363
 128279352.850 6  99957950.416 6  24410748.297                    24410763.594
 127451535.747 6  99312945.12243  24253222.109                    24253236.113
 109413511.397 8  85257321.247 7  20820697.391                    20820705.129
 110289655.079 8  85940010.75246  20987425.281                    20987433.816
 11  8 18 17 29  0.0000000  0 10G28G03G08G19G23G11G01G24G07G13
 121394847.458 7  94593495.89944  23100684.250                    23100693.207
 121842523.089 7  94942175.47543  23185850.008                    23185861.215
 116637123.641 7  90886148.38945  22195309.352                    22195318.754
 112471007.620 7  87639774.58446  21402522.961                    21402530.246
 119198284.250 7  92881792.59944  22682684.836                    22682692.734
 119574463.826 7  93175034.45544  22754276.695                    22754285.309
 128202831.534 6  99898323.548 6  24396186.383                    24396201.641
 127378899.273 6  99256345.48643  24239399.109                    24239413.980
 109373702.969 8  85226301.702 7  20813122.227                    20813130.141
 110363651.908 8  85997670.59046  21001506.563                    21001515.484
 11  8 18 17 29 30.0000000  0 10G28G03G08G19G23G11G01G24G07G13
 121351618.534 7  94559811.05444  23092457.969                    23092466.793
 121945287.533 6  95022251.57644  23205405.539                    23205417.012
 116565651.548 7  90830455.88845  22181708.141                    22181718.047
 112524498.847 8  87681456.04546  21412702.094                    21412709.480
 119305796.081 7  92965567.95744  22703143.492                    22703151.922
 119505033.932 7  93120933.27244  22741064.156                    22741073.426
 128126249.498 6  99838649.350 6  24381611.914                    24381628.535
 127306215.349 6  99199708.82243  24225567.383                    24225581.723
 109334113.763 8  85195452.974 7  20805588.516                    20805596.605
 110438108.596 8  86055688.76246  21015674.922                    21015683.590
 11  8 18 17 30  0.0000000  0 10G28G03G08G19G23G11G01G24G07G13
 121308575.690 7  94526271.20244  23084267.164                    23084276.461
 122048272.048 6  95102499.17543  23225003.023                    23225013.543
 116494215.277 7  90774791.28145  22168114.578                    22168124.402
 112578514.151 8  87723545.87446  21422981.063                    21422988.367
 119413508.712 7  93049499.77244  22723640.945                    22723649.445
 119435835.967 7  93067012.83544  22727896.242                    22727905.137
 128049609.680 6  99778930.118 6  24367028.273                    24367044.883
 127233487.041 6  99143037.54743  24211728.063                    24211742.371
 109294746.133 8  85164776.901 7  20798096.992                    20798105.023
 110513022.799 8  86114063.43746  21029930.570                    21029939.457
 11  8 18 17 30 30.0000000  0 10G28G03G08G19G23G11G01G24G07G13
 121265718.531 7  94492876.04744  23076111.328                    23076120.895
 122151473.854 7  95182916.09044  23244641.867                    23244653.109
 116422816.865 7  90719156.17345  22154528.359                    22154537.094
 112633051.802 7  87766042.72546  21433359.047                    21433366.066
 119521419.498 7  93133586.00344  22744175.422                    22744183.793
 119366873.072 7  93013275.54244  22714773.320                    22714782.516
 127972915.169 5  99719168.278 6  24352434.500                    24352450.391
 127160717.353 6  99086334.02143  24197880.422                    24197894.910
 109255602.216 8  85134275.153 7  20790648.313                    20790656.191
 110588392.456 8  86172793.01146  21044272.930                    21044281.641
 11  8 18 17 31  0.0000000  0 10G28G03G08G19G23G11G01G24G07G13
 121223045.795 7  94459624.60144  23067991.031                    23068000.633
 122254889.650 7  95263499.74044  23264321.070                    23264332.629
 116351457.287 7  90663551.31945  22140948.359                    22140957.711
 112688108.941 7  87808944.36246  21443836.063                    21443843.055
 119629525.002 7  93217823.94144  22764747.375                    22764755.680
 119298147.838 7  92959723.45544  22701695.250                    22701704.184
 127896168.043 6  99659365.413 6  24337829.813                    24337845.363
 127087908.696 6  99029600.16443  24184025.109                    24184038.918
 109216682.992 8  85103948.482 7  20783242.211                    20783250.375
 110664214.510 8  86231875.10346  21058701.352                    21058710.008
 11  8 18 17 31 30.0000000  0 10G28G03G08G19G23G11G01G24G07G13
 121180557.090 7  94426516.55444  23059906.281                    23059915.012
 122358516.795 7  95344248.08543  23284040.953                    23284051.805
 116280138.518 7  90607978.27245  22127377.008                    22127386.855
 112743683.780 7  87852249.41546  21454411.742                    21454418.883
 119737822.255 7  93302211.31144  22785355.844                    22785363.730
 119229663.371 7  92906358.98944  22688662.453                    22688671.820
 127819371.390 6  99599523.993 6  24323216.422                    24323230.871
 127015063.904 6  98972838.12043  24170162.898                    24170177.473
 109177990.613 8  85073798.583 7  20775879.164                    20775887.543
 110740486.694 8  86291307.93546  21073215.719                    21073224.273
 11  8 18 17 32  0.0000000  0 10G28G03G08G19G23G11G01G24G07G13
 121138251.569 7  94393551.26144  23051855.336                    23051864.336
 122462352.642 7  95425159.05244  23303800.953                    23303811.641
 116208861.676 7  90552437.89545  22113813.547                    22113822.918
 112799773.904 7  87895955.98746  21465085.422                    21465092.535
 119846308.837 7  93386746.21244  22806000.117                    22806008.199
 119161422.798 7  92853184.57044  22675677.086                    22675686.398
 127742527.825 6  99539645.974 6  24308593.281                    24308608.305
 126942185.736 6  98916050.07544  24156295.133                    24156308.922
 109139527.178 8  85043827.073 7  20768559.664                    20768568.207
 110817206.839 8  86351089.83646  21087814.992                    21087823.824
 11  8 18 17 32 30.0000000  0 10G28G03G08G19G23G11G01G24G07G13
 121096128.466 7  94360728.10944  23043839.461                    23043848.469
 122566394.445 6  95506230.49543  23323598.477                    23323610.445
 116137628.765 7  90496931.75545  22100258.391                    22100267.879
 112856377.624 7  87940062.76546  21475856.633                    21475863.969
 119954981.974 7  93471426.47044  22826680.477                    22826687.973
 119093429.511 7  92800202.82744  22662738.164                    22662747.648
 127665640.458 6  99479733.859 6  24293961.680                    24293977.574
 126869277.311 6  98859238.45043  24142421.023                    24142435.156
 109101294.798 8  85014035.616 7  20761284.594                    20761292.543
 110894372.548 8  86411218.93046  21102499.523                    21102508.258
 11  8 18 17 33  0.0000000  0 10G28G03G08G19G23G11G01G24G07G13
 121054186.892 7  94328046.39544  23035858.313                    23035867.672
 122670639.017 6  95587459.94943  23343435.969                    23343447.098
 116066441.219 7  90441460.95845  22086711.836                    22086721.508
 112913492.559 8  87984567.89246  21486725.391                    21486732.578
 120063838.046 7  93556249.27944  22847395.094                    22847403.176
 119025685.983 7  92747415.72644  22649846.695                    22649856.652
 127588711.775 6  99419789.513 6  24279322.563                    24279338.289
 126796341.305 6  98802405.31644  24128541.305                    24128555.824
 109063294.610 8  84984425.083 7  20754053.016                    20754061.066
 110971980.948 8  86471692.97545  21117267.477                    21117276.641
 11  8 18 17 33 30.0000000  0 10G28G03G08G19G23G11G01G24G07G13
 121012426.232 7  94295505.64244  23027911.328                    23027920.469
 122775083.699 6  95668845.36343  23363311.469                    23363322.492
 115995300.477 8  90386026.64345  22073174.063                    22073183.621
 112971116.326 7  88029469.49846  21497690.688                    21497697.707
 120172874.481 7  93641212.63444  22868143.922                    22868152.563
 118958195.373 7  92694825.69644  22637003.508                    22637013.156
 127511744.499 6  99359815.097 6  24264675.867                    24264691.707
 126723380.624 6  98745552.93643  24114657.430                    24114670.992
 109025528.947 8  84954997.300 7  20746866.508                    20746874.984
 111050029.859 8  86532510.27146  21132120.063                    21132128.949
 11  8 18 17 34  0.0000000  0 10G28G03G08G19G23G11G01G24G07G13
 120970845.463 7  94263105.09144  23019998.633                    23020007.898
 122879725.795 6  95750384.57443  23383223.867                    23383235.523
 115924208.095 7  90330630.00345  22059646.133                    22059655.105
 113029246.649 7  88074765.82146  21508752.617                    21508759.719
 120282088.167 7  93726314.10044  22888926.641                    22888934.703
 118890960.542 7  92642434.95844  22624209.531                    22624218.711
 127434741.782 6  99299813.078 6  24250023.359                    24250038.270
 126650397.875 6  98688683.38743  24100769.195                    24100783.242
 108987999.468 8  84925753.556 7  20739725.094                    20739733.371
 111128516.410 8  86593668.59146  21147055.578                    21147064.348
 11  8 18 17 34 30.0000000  0 10G28G03G08G19G23G11G01G24G07G13
 120929444.016 7  94230844.25644  23012120.508                    23012129.816
 122984562.515 6  95832075.44043  23403174.195                    23403184.926
 115853166.150 7  90275272.66645  22046127.469                    22046136.680
 113087881.748 7  88120455.46746  21519910.602                    21519917.680
 120391476.693 7  93811551.81544  22909743.102                    22909750.918
 118823985.165 7  92590246.41344  22611464.945                    22611473.535
 127357706.277 7  99239785.514 6  24235363.797                    24235379.590
 126577396.329 6  98631799.18143  24086877.734                    24086891.152
 108950708.628 8  84896695.769 7  20732629.023                    20732637.250
 111207438.674 8  86655166.43046  21162073.953                    21162082.816
 11  8 18 17 35  0.0000000  0 10G28G03G08G19G23G11G01G24G07G13
 120888220.961 7  94198722.45444  23004276.141                    23004285.074
 123089590.825 6  95913915.59143  23423159.602                    23423171.371
 115782175.767 7  90219955.50945  22032618.344                    22032627.137
 113147018.869 7  88166536.30346  21531164.227                    21531171.422
 120501036.532 7  93896922.99144  22930591.250                    22930599.742
 118757271.613 7  92538261.87044  22598769.148                    22598778.816
 127280640.726 7  99179734.545 6  24220698.367                    24220713.742
 126504378.467 6  98574902.26343  24072982.461                    24072996.082
 108913657.547 8  84867824.806 7  20725578.203                    20725586.648
 111286793.674 8  86717001.46746  21177174.789                    21177183.434
 11  8 18 17 35 30.0000000  0 10G28G03G08G19G23G11G01G24G07G13
 120847175.716 7  94166739.18444  22996465.188                    22996474.813
 123194808.404 6  95995903.20843  23443182.922                    23443193.809
 115711238.849 7  90164680.01145  22019119.172                    22019128.605
 113206656.168 7  88213006.89646  21542512.477                    21542519.688
 120610764.956 7  93982425.55944  22951471.844                    22951480.238
 118690823.233 7  92486483.97244  22586124.922                    22586133.656
 127203547.999 7  99119662.393 7  24206028.211                    24206043.754
 126431347.370 6  98517995.02843  24059085.406                    24059098.480
 108876848.642 8  84839142.550 7  20718573.453                    20718581.930
 111366578.924 8  86779171.75746  21192357.336                    21192366.258
 11  8 18 17 36  0.0000000  0 10G28G03G08G19G23G11G01G24G07G13
 120806307.339 7  94134893.72244  22988688.891                    22988697.074
 123300212.095 6  96078035.90443  23463239.617                    23463251.047
 115640356.928 7  90109447.37045  22005630.695                    22005639.930
 113266791.094 8  88259865.25346  21553955.961                    21553963.105
 120720659.022 7  94068057.19444  22972384.164                    22972392.184
 118624642.851 7  92434914.89044  22573530.719                    22573540.023
 127126431.111 7  99059571.439 7  24191353.008                    24191368.609
 126358305.882 6  98461079.69143  24045185.945                    24045199.344
 108840283.847 8  84810650.503 7  20711615.875                    20711624.082
 111446791.754 8  86841675.22546  21207621.414                    21207629.965
 11  8 18 17 36 30.0000000  0 10G28G03G08G19G23G11G01G24G07G13
 120765614.980 7  94103185.41044  22980944.828                    22980953.582
 123405798.823 6  96160311.17343  23483333.227                    23483344.094
 115569531.993 7  90054259.13345  21992153.227                    21992162.500
 113327421.252 8  88307109.50546  21565493.305                    21565500.840
 120830715.924 7  94153815.71344  22993327.328                    22993335.203
 118558733.671 7  92383557.12844  22560988.445                    22560998.352
 127049292.734 7  98999463.729 7  24176674.383                    24176689.633
 126285256.658 6  98404158.35042  24031284.430                    24031298.578
 108803964.851 8  84782349.992 7  20704704.242                    20704713.020
 111527429.679 8  86904509.93946  21222966.125                    21222975.125
 11  8 18 17 37  0.0000000  0 10G28G03G08G19G23G11G01G24G07G13
 120725097.555 7  94071613.43744  22973234.695                    22973243.352
 123511566.266 6  96242727.29443  23503459.430                    23503471.363
 115498765.380 7  89999116.35745  21978686.133                    21978695.555
 113388544.443 8  88354737.93046  21577125.070                    21577132.129
 120940932.317 7  94239698.50344  23014300.641                    23014309.164
 118493098.341 7  92332412.76344  22548498.398                    22548507.723
 126972135.615 6  98939341.400 7  24161991.656                    24162007.359
 126212202.610 6  98347233.19843  24017382.492                    24017396.273
 108767893.250 8  84754242.259 7  20697840.242                    20697848.449
 111608489.956 7  86967673.76245  21238391.688                    21238400.387
 11  8 18 17 37 30.0000000  0 10G28G03G08G19G23G11G01G24G07G13
 120684754.430 7  94040177.26144  22965557.852                    22965566.336
 123617511.768 6  96325282.15143  23523620.695                    23523631.742
 115428058.663 7  89944020.23045  21965231.383                    21965241.176
 113450158.188 8  88402748.60746  21588849.531                    21588856.582
 121051305.620 7  94325703.55544  23035304.320                    23035312.656
 118427740.069 7  92281484.26644  22536061.398                    22536070.840
 126894962.710 6  98879206.774 7  24147305.859                    24147321.023
 126139146.766 6  98290306.68842  24003480.664                    24003494.055
 108732071.313 8  84726329.060 7  20691023.422                    20691031.773
 111689970.043 7  87031164.70645  21253896.547                    21253905.621
 11  8 18 17 38  0.0000000  0 10G28G03G08G19G23G11G01G24G07G13
 120644584.973 7  94008876.40944  22957913.711                    22957922.426
 123723632.273 7  96407973.34244  23543815.023                    23543826.039
 115357413.647 7  89888972.19745  21951788.391                    21951797.531
 113512260.484 8  88451139.97346  21600667.766                    21600674.688
 121161832.926 7  94411828.59944  23056337.313                    23056345.488
 118362661.799 7  92230773.96044  22523677.227                    22523686.594
 126817776.640 6  98819061.891 7  24132618.328                    24132633.332
 126066092.243 6  98233381.22442  23989578.055                    23989592.801
 108696501.059 8  84698611.986 7  20684254.617                    20684262.953
 111771867.609 7  87094980.95445  21269481.234                    21269489.980
 11  8 18 17 38 30.0000000  0 10G28G03G08G19G23G11G01G24G07G13
 120604588.198 7  93977710.12544  22950302.844                    22950311.027
 123829924.979 6  96490798.77343  23564041.758                    23564052.949
 115286831.911 7  89833973.47345  21938356.727                    21938365.953
 113574848.942 8  88499910.17846  21612577.641                    21612584.813
 121272511.054 7  94498071.18344  23077399.086                    23077407.492
 118297866.633 7  92180284.24944  22511347.031                    22511356.871
 126740580.590 6  98758909.231 7  24117927.563                    24117943.117
 125993041.629 6  98176458.72342  23975676.938                    23975691.719
 108661183.936 8  84671092.156 7  20677534.156                    20677542.129
 111854179.739 7  87159120.23645  21285144.555                    21285153.258
 11  8 18 17 39  0.0000000  0 10G28G03G08G19G23G11G01G24G07G13
 120564763.355 7  93946677.82144  22942724.055                    22942732.590
 123936386.902 7  96573756.04043  23584300.820                    23584312.188
 115216315.262 7  89779025.46345  21924938.000                    21924947.438
 113637920.564 7  88549056.87146  21624579.641                    21624587.082
 121383336.908 7  94584428.86844  23098488.445                    23098497.039
 118233357.076 7  92130017.08444  22499071.914                    22499080.543
 126663376.922 6  98698750.641 6  24103236.094                    24103251.730
 125919997.499 6  98119541.30542  23961777.570                    23961791.000
 108626121.716 8  84643770.951 7  20670862.109                    20670870.094
 111936903.454 8  87223580.22745  21300886.430                    21300895.371
 11  8 18 17 39 30.0000000  0 10G28G03G08G19G23G11G01G24G07G13
 120525109.302 7  93915778.57444  22935177.703                    22935187.047
 124043015.931 6  96656843.52143  23604591.773                    23604602.969
 115145865.670 7  89724129.70345  21911531.984                    21911540.984
 113701474.031 8  88598579.03046  21636673.742                    21636681.020
 121494308.224 7  94670899.88644  23119605.508                    23119614.609
 118169136.640 7  92079975.22344  22486850.992                    22486860.051
 126586169.202 6  98638588.889 6  24088543.836                    24088559.770
 125846963.614 6  98062631.85143  23947879.656                    23947892.336
 108591317.183 8  84616650.538 7  20664239.031                    20664247.004
 112020036.760 7  87288359.39345  21316706.164                    21316714.895
 11  8 18 17 40  0.0000000  0 10G28G03G08G19G23G11G01G24G07G13
 120485625.111 7  93885011.71044  22927664.281                    22927673.188
 124149808.883 6  96740058.71943  23624912.969                    23624924.883
 115075484.492 7  89669287.24545  21898138.547                    21898148.047
 113765505.594 7  88648473.73446  21648858.039                    21648865.633
 121605421.215 7  94757481.33844  23140749.148                    23140758.348
 118105207.656 7  92030160.46944  22474685.070                    22474694.426
 126508959.738 6  98578425.773 6  24073851.328                    24073866.781
 125773942.117 6  98005732.07843  23933984.273                    23933997.207
 108556771.092 8  84589731.515 7  20657664.641                    20657673.090
 112103576.358 7  87353455.14845  21332603.453                    21332611.949
 11  8 18 17 40 30.0000000  0 10G28G03G08G19G23G11G01G24G07G13
 120446310.296 7  93854376.82744  22920182.695                    22920191.945
 124256763.165 6  96823399.63943  23645266.469                    23645277.648
 115005173.720 7  89614499.65145  21884759.117                    21884768.445
 113830013.782 8  88698739.83146  21661133.977                    21661140.758
 121716673.440 7  94844171.23544  23161920.117                    23161929.051
 118041573.519 7  91980575.46844  22462575.844                    22462585.473
 126431751.585 6  98518263.668 6  24059159.133                    24059173.949
 125700936.166 6  97948844.40443  23920091.359                    23920104.191
 108522485.889 8  84563015.772 7  20651140.313                    20651148.969
 112187519.846 7  87418865.62745  21348577.383                    21348586.207
 11  8 18 17 41  0.0000000  0 10G28G03G08G19G23G11G01G24G07G13
 120407164.061 7  93823873.29744  22912733.609                    22912742.406
 124363875.822 6  96906863.96244  23665649.938                    23665660.777
 114934935.230 8  89559768.37845  21871393.164                    21871401.996
 113894996.058 8  88749375.35946  21673499.531                    21673506.809
 121828062.166 7  94930967.50444  23183117.211                    23183125.172
 117978237.359 7  91931222.65644  22450523.875                    22450532.953
 126354547.637 6  98458104.841 6  24044467.242                    24044482.809
 125627948.807 6  97891971.20543  23906202.688                    23906215.805
 108488463.723 7  84536505.004 7  20644666.469                    20644674.457
 112271864.672 7  87484588.83345  21364627.688                    21364636.629
 11  8 18 17 41 30.0000000  0 10G28G03G08G19G23G11G01G24G07G13
 120368185.535 7  93793500.44945  22905316.430                    22905325.176
 124471144.402 6  96990449.76543  23686061.773                    23686073.500
 114864770.633 8  89505094.69145  21858041.414                    21858050.492
 113960449.785 8  88800378.24746  21685954.883                    21685962.090
 121939584.178 7  95017867.66944  23204338.688                    23204347.816
 117915202.149 7  91882104.35644  22438528.641                    22438537.449
 126277350.987 6  98397951.702 6  24029777.320                    24029792.375
 125554982.909 7  97835114.73243  23892318.438                    23892331.047
 108454706.551 8  84510200.720 7  20638242.406                    20638251.051
 112356608.063 7  87550622.59945  21380753.906                    21380763.000
 11  8 18 17 42  0.0000000  0 10G28G03G08G19G23G11G01G24G07G13
 120329373.386 7  93763257.24744  22897930.734                    22897939.875
 124578565.785 6  97074154.64043  23706503.367                    23706515.012
 114794681.216 8  89450479.57545  21844703.742                    21844712.738
 114026372.126 8  88851746.29645  21698499.266                    21698506.898
 122051236.228 7  95104869.12644  23225585.641                    23225594.820
 117852470.153 7  91833222.32544  22426590.477                    22426599.684
 126200163.955 6  98337806.023 6  24015089.414                    24015104.359
 125482041.230 7  97778277.16343  23878437.344                    23878450.801
 108421215.633 8  84484103.901 7  20631869.680                    20631877.609
 112441746.893 8  87616964.51045  21396955.297                    21396963.949
 11  8 18 17 42 30.0000000  0 10G28G03G08G19G23G11G01G24G07G13
 120290726.865 7  93733143.11444  22890576.719                    22890585.402
 124686137.339 6  97157976.50143  23726974.109                    23726985.391
 114724669.043 7  89395924.64945  21831380.898                    21831389.949
 114092760.799 8  88903477.71545  21711132.992                    21711140.141
 122163015.474 7  95191969.72243  23246856.281                    23246865.555
 117790044.252 7  91784578.80944  22414711.539                    22414720.473
 126122989.740 6  98277670.342 6  24000404.055                    24000418.359
 125409126.823 7  97721460.79143  23864562.195                    23864575.125
 108387992.775 8  84458215.966 7  20625547.563                    20625555.641
 112527278.439 8  87683612.42845  21413231.570                    21413240.223
 11  8 18 17 43  0.0000000  0 10G28G03G08G19G23G11G01G24G07G13
 120252245.504 7  93703157.65445  22883253.883                    22883262.691
 124793856.455 5  97241913.39542  23747471.758                    23747483.980
 114654736.014 8  89341431.40045  21818072.867                    21818082.398
 114159613.651 8  88955570.82745  21723854.359                    21723861.598
 122274919.348 6  95279167.40843  23268150.992                    23268159.703
 117727927.656 7  91736176.30244  22402891.242                    22402900.313
 126045831.253 6  98217546.888 6  23985721.109                    23985736.082
 125336242.893 7  97664668.18844  23850692.969                    23850705.883
 108355040.356 8  84432538.762 7  20619276.766                    20619285.215
 112613200.173 8  87750564.38845  21429581.859                    21429590.746
 11  8 18 17 43 30.0000000  0 10G28G03G08G19G23G11G01G24G07G13
 120213928.091 7  93673299.95345  22875961.844                    22875971.164
 124901720.954 6  97325963.59642  23767998.539                    23768009.320
 114584883.952 8  89287001.22845  21804780.820                    21804789.758
 114226928.093 7  89008023.61045  21736664.156                    21736671.176
 122386945.023 7  95366460.00443  23289468.906                    23289477.273
 117666123.676 7  91688017.40944  22391130.172                    22391139.082
 125968691.501 7  98157438.036 6  23971041.445                    23971056.363
 125263392.319 6  97607901.59944  23836829.773                    23836842.910
 108322360.422 8  84407073.877 7  20613058.102                    20613066.184
 112699509.389 7  87817818.27745  21446005.797                    21446014.789
 11  8 18 17 44  0.0000000  0 10G28G03G08G19G23G11G01G24G07G13
 120175773.949 7  93643569.48745  22868701.570                    22868711.027
 125009727.607 6  97410124.57142  23788550.914                    23788561.957
 114515114.882 8  89232635.73345  21791503.844                    21791512.934
 114294701.660 8  89060834.16045  21749561.023                    21749568.348
 122499089.414 7  95453845.10443  23310809.633                    23310817.859
 117604635.271 7  91640104.40344  22379429.070                    22379438.148
 125891573.638 7  98097346.264 6  23956366.172                    23956381.031
 125190578.010 7  97551163.28144  23822973.289                    23822986.949
 108289954.848 8  84381822.786 7  20606891.555                    20606899.785
 112786203.466 8  87885372.05645  21462503.367                    21462512.348
 11  8 18 17 44 30.0000000  0 10G28G03G08G19G23G11G01G24G07G13
 120137782.453 7  93613965.75245  22861472.133                    22861480.957
 125117874.160 6  97494394.53042  23809130.328                    23809142.676
 114445430.940 8  89178336.57745  21778243.477                    21778252.855
 114362932.137 8  89114000.73145  21762545.188                    21762552.059
 122611349.639 7  95541320.46543  23332172.289                    23332180.895
 117543465.453 7  91592439.64645  22367788.609                    22367798.074
 125814480.751 7  98037273.935 6  23941696.125                    23941710.859
 125117803.243 7  97494455.73644  23809124.797                    23809138.270
 108257825.910 8  84356787.255 7  20600777.602                    20600785.754
 112873279.846 8  87953223.73845  21479073.234                    21479082.355
 11  8 18 17 45  0.0000000  0 10G28G03G08G19G23G11G01G24G07G13
 120099952.430 7  93584487.82245  22854273.422                    22854282.430
 125226157.504 6  97578771.08342  23829736.539                    23829747.832
 114375833.197 8  89124104.58345  21764999.258                    21765008.406
 114431616.386 8  89167520.89945  21775615.469                    21775622.039
 122723722.400 7  95628883.51744  23353556.445                    23353565.109
 117482616.488 7  91545024.90944  22356209.891                    22356219.109
 125737415.339 7  97977223.014 6  23927031.117                    23927045.336
 125045070.518 7  97437780.98343  23795284.227                    23795297.129
 108225974.673 8  84331968.107 7  20594716.211                    20594724.488
 112960735.410 7  88021370.88645  21495715.703                    21495724.648
 11  8 18 17 45 30.0000000  0 10G28G03G08G19G23G11G01G24G07G13
 120062283.016 7  93555135.06444  22847104.969                    22847113.945
 125334575.173 6  97663252.29643  23850367.102                    23850379.656
 114306323.997 7  89069941.58845  21751772.227                    21751781.539
 114500752.172 7  89221392.91945  21788771.273                    21788778.195
 122836205.023 7  95716532.16144  23374961.320                    23374970.109
 117422091.667 7  91497862.75544  22344691.820                    22344701.766
 125660380.644 6  97917196.048 6  23912372.320                    23912386.945
 124972383.079 6  97381141.50743  23781452.078                    23781465.902
 108194403.572 8  84307367.250 8  20588708.633                    20588716.469
 113048567.304 7  88089811.27045  21512429.195                    21512438.633
 11  8 18 17 46  0.0000000  0 10G28G03G08G19G23G11G01G24G07G13
 120024773.454 7  93525906.86944  22839967.273                    22839975.836
 125443124.559 6  97747836.11243  23871024.766                    23871036.223
 114236905.159 7  89015848.99745  21738562.102                    21738571.477
 114570337.295 8  89275615.06845  21802012.750                    21802019.836
 122948795.208 7  95804264.61844  23396386.531                    23396395.551
 117361894.204 7  91450955.68344  22333236.750                    22333246.434
 125583379.571 6  97857195.268 7  23897719.313                    23897734.000
 124899743.980 6  97324539.70043  23767629.391                    23767642.855
 108163114.669 8  84282986.282 7  20582754.586                    20582762.508
 113136773.208 8  88158543.09345  21529214.703                    21529223.633
 11  8 18 17 46 30.0000000  0 10G28G03G08G19G23G11G01G24G07G13
 119987422.553 7  93496802.30145  22832858.898                    22832868.375
 125551802.858 7  97832520.48843  23891705.258                    23891716.105
 114167578.450 8  88961828.21045  21725369.602                    21725379.359
 114640368.398 8  89330184.73045  21815339.039                    21815346.355
 123061489.410 7  95892078.13144  23417831.492                    23417840.543
 117302026.380 7  91404305.46944  22321844.141                    22321854.141
 125506414.820 6  97797222.812 6  23883073.414                    23883088.324
 124827155.946 6  97267977.70643  23753816.398                    23753829.441
 108132109.516 8  84258826.439 7  20576854.695                    20576862.734
 113225349.833 7  88227563.80145  21546070.266                    21546079.637
 11  8 18 17 47  0.0000000  0 10G28G03G08G19G23G11G01G24G07G13
 119950229.630 7  93467820.83644  22825781.313                    22825790.656
 125660607.040 7  97917302.93643  23912409.734                    23912421.332
 114098345.563 7  88907880.52545  21712195.242                    21712204.465
 114710843.214 8  89385100.14745  21828750.523                    21828757.578
 123174284.843 7  95979970.53644  23439295.344                    23439304.855
 117242490.971 7  91357914.28244  22310515.078                    22310524.309
 125429489.105 6  97737280.791 6  23868434.266                    23868449.465
 124754621.885 6  97211457.75443  23740013.820                    23740025.969
 108101389.779 8  84234888.980 7  20571008.742                    20571016.969
 113314294.155 7  88296871.00945  21562995.539                    21563004.469
 11  8 18 17 47 30.0000000  0 10G28G03G08G19G23G11G01G24G07G13
 119913193.944 7  93438961.89244  22818733.750                    22818742.730
 125769535.144 7  98002181.88943  23933138.086                    23933150.051
 114029208.455 8  88854007.47345  21699038.781                    21699048.117
 114781759.553 8  89440359.59145  21842245.227                    21842252.445
 123287178.703 7  96067939.60344  23460779.039                    23460787.855
 117183290.992 7  91311784.47145  22299249.844                    22299259.195
 125352605.711 6  97677371.738 7  23853804.039                    23853818.840
 124682145.073 6  97154982.41943  23726221.203                    23726234.512
 108070957.971 8  84211175.888 7  20565217.922                    20565225.852
 113403603.253 7  88366462.46445  21579990.781                    21579999.988
 11  8 18 17 48  0.0000000  0 10G28G03G08G19G23G11G01G24G07G13
 119876314.460 7  93410224.67144  22811716.156                    22811725.109
 125878584.610 6  98087155.39443  23953889.102                    23953901.309
 113960169.335 8  88800210.78145  21685901.023                    21685910.242
 114853114.682 7  89495960.96445  21855823.516                    21855830.727
 123400167.894 7  96155982.97544  23482280.445                    23482289.402
 117124429.712 7  91265918.58945  22288048.945                    22288057.980
 125275767.864 6  97617498.191 7  23839181.570                    23839197.148
 124609728.620 6  97098554.09943  23712440.805                    23712454.184
 108040815.960 8  84187688.609 7  20559481.891                    20559489.645
 113493275.274 8  88436336.71445  21597055.242                    21597063.723
 11  8 18 17 48 30.0000000  0 10G28G03G08G19G23G11G01G24G07G13
 119839590.129 7  93381608.35844  22804727.789                    22804736.527
 125987752.502 6  98172221.22843  23974663.977                    23974675.531
 113891230.210 7  88746492.00345  21672782.266                    21672791.379
 114924905.743 8  89551902.02246  21869485.055                    21869492.574
 123513249.584 7  96244098.41244  23503798.781                    23503808.453
 117065909.608 7  91220318.54244  22276913.164                    22276922.051
 125198978.406 6  97557662.344 7  23824569.594                    23824584.238
 124537375.403 6  97042175.10543  23698671.883                    23698685.414
 108010965.262 8  84164428.330 7  20553801.477                    20553809.457
 113583306.512 7  88506490.87045  21614187.367                    21614196.047
 11  8 18 17 49  0.0000000  0 10G28G03G08G19G23G11G01G24G07G13
 119803020.192 7  93353112.34244  22797768.500                    22797777.480
 126097036.088 6  98257377.15643  23995459.703                    23995471.910
 113822392.836 8  88692852.50745  21659683.242                    21659692.309
 114997130.055 8  89608180.68145  21883229.250                    21883236.648
 123626420.726 6  96332283.53843  23525334.781                    23525344.344
 117007733.495 7  91174986.54044  22265842.125                    22265851.379
 125122239.981 6  97497866.275 7  23809966.219                    23809981.492
 124465088.181 6  96985847.50543  23684916.211                    23684929.496
 107981407.689 8  84141396.449 7  20548176.641                    20548185.047
 113673694.514 8  88576923.03545  21631387.492                    21631396.609
 11  8 18 17 49 30.0000000  0 10G28G03G08G19G23G11G01G24G07G13
 119766604.066 7  93324736.16645  22790839.133                    22790847.488
 126206433.98216  98342622.40953  24016277.000                    24016289.215
 113753659.075 8  88639293.75945  21646603.430                    21646612.844
 115069785.514 8  89664795.29445  21897054.930                    21897062.461
 123739678.829 6  96420536.42543  23546887.469                    23546896.684
 116949904.339 7  91129924.90444  22254837.438                    22254847.008
 125045555.863 6  97438112.520 7  23795373.094                    23795388.656
 124392870.245 6  96929573.85243  23671173.461                    23671187.117
 107952145.848 8  84118595.019 7  20542608.242                    20542616.566
 113764436.269 7  88647630.84245  21648655.430                    21648664.484
 11  8 18 17 50  0.0000000  0 10G28G03G08G19G23G11G01G24G07G13
 119730340.044 7  93296478.50744  22783938.344                    22783946.723
 126315941.358 6  98427952.72453  24037116.781                    24037127.555
 113685030.866 8  88585817.25245  21633544.023                    21633553.445
 115142869.055 8  89721743.47345  21910962.289                    21910969.848
 123853020.652 6  96508854.55643  23568456.078                    23568465.145
 116892425.097 7  91085135.93344  22243899.906                    22243909.293
 124968928.949 6  97378403.346 7  23780792.328                    23780807.223
 124320724.426 6  96873356.45243  23657444.977                    23657457.863
 107923180.815 8  84096024.855 7  20537096.430                    20537104.469
 113855528.879 7  88718612.04045  21665990.063                    21665998.695
 11  8 18 17 50 30.0000000  0 10G28G03G08G19G23G11G01G24G07G13
 119694227.776 7  93268339.10944  22777065.438                    22777074.641
 126425556.533 6  98513367.13043  24057974.906                    24057987.121
 113616509.962 8  88532424.36745  21620505.008                    21620514.035
 115216377.875 8  89779023.02945  21924950.594                    21924957.902
 123966443.402 7  96597235.76943  23590039.727                    23590048.492
 116835298.387 7  91040621.65545  22233028.703                    22233037.777
 124892362.218 6  97318741.052 7  23766221.773                    23766236.723
 124248654.071 6  96817197.80743  23643730.148                    23643743.484
 107894514.839 8  84073687.733 7  20531641.602                    20531649.813
 113946969.336 8  88789864.29745  21683390.281                    21683399.438
 11  8 18 17 51  0.0000000  0 10G28G03G08G19G23G11G01G24G07G13
 119658265.942 7  93240316.92845  22770222.844                    22770231.563
 126535277.066 5  98598863.57842  24078854.430                    24078866.730
 113548098.507 8  88479116.76745  21607486.375                    21607495.770
 115290309.197 8  89836631.81045  21939019.063                    21939026.633
 124079943.967 7  96685677.59843  23611638.344                    23611647.004
 116778526.679 7  90996384.00345  22222225.617                    22222234.770
 124815858.526 6  97259127.890 7  23751664.430                    23751678.641
 124176661.628 7  96761099.90843  23630030.531                    23630043.684
 107866149.300 8  84051584.718 7  20526243.992                    20526251.988
 114038754.488 7  88861385.13645  21700856.469                    21700865.574
 11  8 18 17 51 30.0000000  0 10G28G03G08G19G23G11G01G24G07G13
 119622454.320 7  93212411.78645  22763407.719                    22763416.484
 126645100.846 4  98684440.46442  24099751.656                    24099765.934
 113479798.841 7  88425896.26945  21594489.109                    21594498.453
 115364661.268 8  89894568.45145  21953168.180                    21953175.578
 124193519.932 7  96774178.20243  23633251.188                    23633260.238
 116722113.598 7  90952425.80545  22211490.359                    22211500.082
 124739421.348 6  97199566.562 6  23737118.070                    23737132.863
 124104750.900 7  96705065.65943  23616346.602                    23616358.703
 107838087.571 8  84029718.435 7  20520904.039                    20520911.977
 114130882.148 8  88933172.87445  21718387.781                    21718396.797
 11  8 18 17 52  0.0000000  0 10G28G03G08G19G23G11G01G24G07G13
 119586791.421 7  93184622.54245  22756621.492                    22756630.559
 126755025.062 5  98770095.55042  24120670.203                    24120683.176
 113411612.398 7  88372764.00445  21581514.336                    21581523.789
 115439430.738 7  89952830.34045  21967396.313                    21967403.570
 124307168.120 7  96862735.07344  23654878.445                    23654886.629
 116666061.503 7  90908748.87845  22200824.172                    22200833.133
 124663053.068 6  97140058.913 6  23722585.414                    23722600.383
 124032924.371 6  96649097.01343  23602678.102                    23602690.246
 107810330.131 8  84008089.262 8  20515621.781                    20515629.793
 114223349.039 7  89005224.94745  21735983.695                    21735992.824
 11  8 18 17 52 30.0000000  0 10G28G03G08G19G23G11G01G24G07G13
 119551276.617 7  93156948.67445  22749862.984                    22749871.840
 126865046.57716  98855826.53752  24141607.586                    24141619.266
 113343541.450 8  88319721.73145  21568560.563                    21568570.031
 115514615.068 7  90011415.49545  21981703.516                    21981710.609
 124420885.637 7  96951345.95943  23676517.828                    23676527.141
 116610373.198 7  90865355.42945  22190227.172                    22190236.238
 124586757.356 6  97080607.790 6  23708067.750                    23708081.273
 123961185.341 7  96593196.55643  23589026.336                    23589038.578
 107782879.383 8  83986699.066 8  20510398.234                    20510406.422
 114316152.251 7  89077539.08445  21753643.453                    21753652.980
 11  8 18 17 53  0.0000000  0 10G28G03G08G19G23G11G01G24G07G13
 119515908.686 7  93129389.27545  22743133.133                    22743141.879
 126975163.003 6  98941631.52643  24162562.656                    24162573.301
 113275587.672 8  88266770.75445  21555629.492                    21555638.668
 115590211.439 7  90070321.73545  21996088.750                    21996096.215
 124534669.398 7  97040008.44844  23698170.422                    23698179.684
 116555050.878 7  90822247.16145  22179699.359                    22179708.480
 124510536.489 7  97021215.019 7  23693562.664                    23693576.984
 123889536.500 7  96537366.38943  23575392.070                    23575404.102
 107755737.014 8  83965549.174 8  20505233.219                    20505241.230
 114409288.452 7  89150112.68845  21771366.969                    21771376.324
 11  8 18 17 53 30.0000000  0  9G28G08G19G23G11G01G24G07G13
 119480686.812 7  93101943.69345  22736430.508                    22736439.258
 113207753.244 8  88213912.78245  21542721.297                    21542729.996
 115666217.170 7  90129546.94445  22010552.500                    22010559.730
 124648516.824 7  97128720.55643  23719834.805                    23719844.020
 116500097.786 7  90779426.60745  22169242.313                    22169251.406
 124434393.702 6  96961883.081 6  23679072.711                    23679087.277
 123817981.096 7  96481608.97543  23561776.375                    23561787.867
 107728904.956 7  83944641.071 7  20500127.133                    20500135.398
 114502755.029 7  89222943.72045  21789152.977                    21789161.922
 11  8 18 17 54  0.0000000  0  9G28G08G19G23G11G01G24G07G13
 119445610.111 7  93074611.22845  22729755.672                    22729764.098
 113140040.340 8  88161149.51045  21529835.719                    21529844.688
 115742629.491 7  90189088.97845  22025093.000                    22025100.289
 124762424.926 6  97217479.90443  23741510.609                    23741520.746
 116445516.944 7  90736896.12845  22158855.727                    22158864.930
 124358332.128 7  96902614.423 6  23664598.969                    23664613.270
 123746522.229 6  96425926.80743  23548176.875                    23548189.539
 107702384.963 8  83923976.144 7  20495080.633                    20495088.754
 114596549.021 7  89296029.88945  21807001.477                    21807010.586
 11  8 18 17 54 30.0000000  0  9G28G08G19G23G11G01G24G07G13
 119410677.971 7  93047391.39945  22723108.547                    22723117.055
 113072451.482 8  88108482.88645  21516973.961                    21516983.160
 115819446.453 7  90248946.32245  22039710.883                    22039718.125
 124876391.583 6  97306284.86143  23763197.414                    23763208.309
 116391311.169 7  90694657.89945  22148540.672                    22148549.742
 124282355.380 7  96843411.861 6  23650141.297                    23650155.672
 123675163.515 7  96370322.69343  23534598.227                    23534610.551
 107676180.071 8  83903556.747 7  20490094.133                    20490101.949
 114690668.214 7  89369369.46045  21824911.367                    21824920.633
 11  8 18 17 55  0.0000000  0  9G28G08G19G23G11G01G24G07G13
 119375889.285 7  93020283.37045  22716487.977                    22716496.996
 113004988.262 8  88055914.17045  21504136.000                    21504145.250
 115896664.769 7  90309116.40845  22054405.117                    22054412.438
 124990413.271 6  97395132.70043  23784895.383                    23784905.355
 116337482.838 7  90652713.76445  22138297.336                    22138306.879
 124206465.916 7  96784277.312 6  23635699.250                    23635713.273
 123603907.470 7  96314798.58743  23521038.648                    23521051.086
 107650291.275 8  83883383.651 8  20485167.477                    20485175.363
 114785109.075 7  89442959.68445  21842883.609                    21842892.457
 11  8 18 17 55 30.0000000  0  9G28G08G19G23G11G01G24G07G13
 119341243.049 7  92993286.31845  22709895.211                    22709904.035
 112937652.639 8  88003444.86245  21491322.508                    21491331.598
 115974281.659 7  90369597.06545  22069174.984                    22069182.547
 125104487.131 6  97484021.23043  23806603.438                    23806613.293
 116284034.540 7  90611065.77345  22128126.742                    22128135.840
 124130666.843 7  96725213.194 6  23621275.789                    23621289.887
 123532757.050 6  96259356.77743  23507498.766                    23507511.824
 107624720.350 8  83863458.262 8  20480301.539                    20480309.855
 114879868.404 7  89516798.05345  21860915.383                    21860924.719
 11  8 18 17 56  0.0000000  0  9G28G08G19G23G11G01G24G07G13
 119306738.075 7  92966399.35545  22703328.461                    22703337.691
 112870446.306 8  87951076.31146  21478533.758                    21478542.664
 116052294.068 7  90430385.93145  22084020.703                    22084028.359
 125218610.086 6  97572947.96543  23828319.961                    23828330.316
 116230968.805 7  90569715.87745  22118028.844                    22118037.535
 124054960.667 7  96666221.479 6  23606868.305                    23606883.133
 123461715.044 7  96203999.46643  23493980.258                    23493992.855
 107599468.712 8  83843781.664 8  20475496.336                    20475504.742
 114974942.965 7  89590882.07645  21879007.977                    21879017.250
 11  8 18 17 56 30.0000000  0  9G28G08G19G23G11G01G24G07G13
 119272373.583 7  92939621.86145  22696789.266                    22696798.500
 112803371.495 8  87898810.25145  21465769.492                    21465778.605
 116130699.796 7  90491481.27245  22098940.961                    22098948.324
 125332779.598 6  97661911.00143  23850046.273                    23850056.336
 116178288.618 7  90528666.41345  22108003.531                    22108012.984
 123979350.664 7  96607304.691 6  23592480.766                    23592494.852
 123390784.997 7  96148729.40343  23480482.797                    23480495.000
 107574538.834 8  83824355.794 8  20470752.320                    20470760.383
 115070330.150 7  89665209.68945  21897159.727                    21897168.457
 11  8 18 17 57  0.0000000  0  9G28G08G19G23G11G01G24G07G13
 119238148.944 7  92912953.34745  22690276.977                    22690285.609
 112736430.769 8  87846648.67445  21453030.914                    21453040.383
 116209495.980 7  90552880.85445  22113934.945                    22113942.426
 125446992.721 7  97750908.01043  23871780.750                    23871790.898
 116125997.131 7  90487919.82145  22098053.352                    22098062.250
 123903840.347 6  96548465.576 6  23578111.320                    23578125.684
 123319969.910 7  96093548.90344  23467006.875                    23467019.516
 107549932.664 8  83805182.160 8  20466069.797                    20466078.070
 115166027.163 7  89739778.72645  21915369.805                    21915378.965
 11  8 18 17 57 30.0000000  0  9G28G08G19G23G11G01G24G07G13
 119204063.290 7  92886393.11445  22683790.570                    22683798.594
 112669626.405 8  87794593.34845  21440318.914                    21440327.723
 116288680.224 7  90614582.84145  22129003.523                    22129010.957
 125561247.292 6  97839937.31543  23893522.977                    23893532.664
 116074097.206 7  90447478.35245  22088176.570                    22088185.777
 123828432.770 6  96489706.534 6  23563762.086                    23563776.227
 123249273.355 6  96038460.80743  23453554.039                    23453566.125
 107525652.673 8  83786262.685 8  20461449.680                    20461457.926
 115262031.433 7  89814587.18645  21933638.305                    21933647.953
 11  8 18 17 58  0.0000000  0  9G28G08G19G23G11G01G24G07G13
 119170115.370 7  92859940.21645  22677330.523                    22677339.086
 112602960.213 8  87742645.68846  21427632.328                    21427641.480
 116368249.537 7  90676584.86745  22144144.992                    22144152.340
 125675540.073 7  97928996.44143  23915272.703                    23915282.109
 116022590.390 7  90407343.19845  22078375.195                    22078384.566
 123753130.932 6  96431029.873 6  23549432.133                    23549446.777
 123178697.679 6  95983466.88343  23440122.883                    23440136.125
 107501700.064 8  83767598.318 8  20456891.492                    20456899.660
 115358339.686 7  89889632.49845  21951966.039                    21951975.180
 11  8 18 17 58 30.0000000  0 10G17G28G08G19G23G11G01G24G07G13
 129440148.56216 100862521.23415  24631653.898                    24631664.473
 119136304.287 7  92833593.94245  22670896.586                    22670905.328
 112536433.925 8  87690807.04245  21414973.078                    21414982.074
 116448201.015 7  90738884.69545  22159359.461                    22159366.621
 125789867.788 7  98018082.74643  23937028.188                    23937037.941
 115971479.933 7  90367516.89545  22068649.477                    22068658.223
 123677937.418 6  96372437.603 6  23535123.211                    23535138.074
 123108245.918 6  95928569.53843  23426716.391                    23426729.465
 107478076.571 8  83749190.401 7  20452395.984                    20452404.336
 115454948.365 7  89964911.93245  21970349.539                    21970358.762
 11  8 18 17 59  0.0000000  0 10G17G28G08G19G23G11G01G24G07G13
 129335536.990 6 100781005.762 5  24611745.797                    24611758.172
 119102630.018 7  92807354.28644  22664488.563                    22664497.773
 112470050.725 8  87639079.89546  21402340.875                    21402349.793
 116528532.454 7  90801480.58545  22174645.563                    22174652.883
 125904228.665 7  98107194.89343  23958790.617                    23958800.348
 115920769.192 7  90328002.07345  22058999.211                    22059008.320
 123602856.216 6  96313932.874 7  23520835.547                    23520850.277
 123037922.473 6  95873772.17743  23413334.406                    23413347.492
 107454784.905 8  83731041.051 8  20447963.992                    20447972.008
 115551855.648 7  90040424.02645  21988790.969                    21988799.656
 11  8 18 17 59 30.0000000  0 10G17G28G08G19G23G11G01G24G07G13
 129231026.441 6 100699569.044 5  24591858.375                    24591870.215
 119069090.808 7  92781219.84944  22658106.102                    22658114.559
 112403812.085 8  87587465.39545  21389735.891                    21389745.250
 116609240.846 7  90864370.20745  22190003.664                    22190011.770
 126018619.221 7  98196330.18543  23980558.281                    23980568.578
 115870460.145 7  90288800.25845  22049425.836                    22049434.754
 123527889.749 6  96255517.545 6  23506569.805                    23506584.570
 122967729.534 6  95819076.48543  23399976.711                    23399989.820
 107431826.273 8  83713151.208 8  20443595.023                    20443603.047
 115649057.854 7  90116165.93045  22007287.875                    22007297.313
 11  8 18 18  0  0.0000000  0 10G17G28G08G19G23G11G01G24G07G13
 129126619.234 6 100618212.817 5  24571990.156                    24572002.371
 119035685.698 7  92755189.90545  22651749.602                    22651757.801
 112337719.939 8  87535965.05746  21377159.016                    21377168.301
 116690323.188 7  90927551.20645  22205433.078                    22205441.375
 126133036.619 6  98285486.36143  24002331.531                    24002341.059
 115820555.268 7  90249913.36645  22039929.336                    22039938.316
 123453041.195 6  96197194.101 7  23492326.500                    23492341.176
 122897669.742 6  95764484.58244  23386644.703                    23386657.879
 107409202.586 8  83695522.363 8  20439289.891                    20439298.168
 115746552.043 7  90192135.35945  22025840.297                    22025849.488
 11  8 18 18  0 30.0000000  0 10G17G28G08G19G23G11G01G24G07G13
 129022317.035 6 100536938.431 6  24552142.352                    24552153.961
 119002413.667 7  92729263.66145  22645417.570                    22645426.492
 112271776.601 8  87484580.65546  21364610.156                    21364619.363
 116771776.371 7  90991021.17545  22220933.859                    22220941.152
 126247477.983 6  98374661.17743  24024109.234                    24024118.922
 115771056.934 7  90211343.26545  22030510.094                    22030519.102
 123378313.357 6  96138964.721 7  23478106.055                    23478120.664
 122827746.467 7  95709999.03044  23373339.055                    23373351.836
 107386915.509 8  83678155.798 8  20435048.664                    20435057.219
 115844334.721 7  90268329.57445  22044447.867                    22044457.531
 11  8 18 18  1  0.0000000  0 10G17G28G08G19G23G11G01G24G07G13
 128918122.108 6 100455747.687 6  24532314.445                    24532326.762
 118969273.978 7  92703440.54445  22639111.570                    22639119.906
 112205984.388 8  87433314.01745  21352090.609                    21352099.203
 116853597.671 7  91054778.00145  22236503.641                    22236511.055
 126361940.423 6  98463852.43143  24045890.680                    24045901.359
 115721968.069 7  90173092.22845  22021168.516                    22021177.832
 123303709.615 7  96080832.046 7  23463909.656                    23463923.863
 122757963.019 7  95655622.42044  23360059.641                    23360072.227
 107364966.901 8  83661052.991 8  20430871.758                    20430880.434
 115942403.296 7  90344746.58345  22063109.914                    22063119.238
 11  8 18 18  1 30.0000000  0 10G17G28G08G19G23G11G01G24G07G13
 128814036.363 6 100374641.995 6  24512507.570                    24512520.004
 118936265.309 7  92677719.51645  22632830.188                    22632838.578
 112140345.124 8  87382166.54846  21339599.430                    21339608.785
 116935784.543 7  91118819.68145  22252143.359                    22252150.691
 126476421.206 6  98553057.92043  24067675.398                    24067686.852
 115673290.988 7  90135162.06545  22011905.734                    22011914.438
 123229232.515 7  96022798.048 7  23449737.289                    23449751.863
 122688322.114 7  95601356.89344  23346807.383                    23346819.941
 107343358.460 8  83644215.242 8  20426759.961                    20426768.598
 116040754.330 7  90421383.67645  22081825.367                    22081834.930
 11  8 18 18  2  0.0000000  0 10G17G28G08G19G23G11G01G24G07G13
 128710061.887 6 100293622.971 6  24492721.188                    24492733.922
 118903386.727 7  92652099.85045  22626573.313                    22626582.078
 112074860.655 7  87331139.70746  21327138.492                    21327147.434
 117018333.849 7  91183143.78445  22267851.992                    22267859.238
 126590917.530 6  98642275.53643  24089465.039                    24089474.848
 115625028.304 7  90097554.78545  22002721.500                    22002730.887
 123154885.285 7  95964865.245 7  23435589.484                    23435603.922
 122618826.774 6  95547204.80543  23333582.430                    23333595.086
 107322091.802 8  83627643.813 8  20422713.063                    20422721.297
 116139384.893 7  90498238.59245  22100594.109                    22100603.512
 11  8 18 18  2 30.0000000  0 10G17G28G08G19G23G11G01G24G07G13
 128606200.708 6 100212692.231 6  24472958.094                    24472970.391
 118870637.255 7  92626580.80145  22620341.367                    22620350.426
 112009533.584 7  87280235.51246  21314707.289                    21314716.508
 117101243.181 7  91247748.42245  22283629.148                    22283636.469
 126705426.259 6  98731502.82843  24111254.875                    24111265.086
 115577182.365 7  90060272.25945  21993616.664                    21993625.766
 123080670.804 7  95907035.889 7  23421466.969                    23421480.598
 122549480.071 7  95493168.48844  23320386.414                    23320399.188
 107301169.110 8  83611340.418 8  20418731.875                    20418740.082
 116238291.849 7  90575308.88045  22119415.586                    22119425.227
 11  8 18 18  3  0.0000000  0 10G17G28G08G19G23G11G01G24G07G13
 128502455.093 6 100131851.556 6  24453215.164                    24453227.578
 118838016.199 7  92601161.80645  22614134.094                    22614141.887
 111944365.674 8  87229455.34046  21302306.078                    21302315.070
 117184509.410 7  91312631.17245  22299473.906                    22299481.660
 126819944.811 6  98820737.76643  24133046.922                    24133057.555
 115529755.687 7  90023316.42545  21984591.617                    21984600.961
 123006591.935 7  95849312.206 7  23407369.703                    23407384.125
 122480285.086 7  95439250.41044  23307219.031                    23307231.070
 107280591.951 8  83595306.259 8  20414815.945                    20414824.211
 116337472.075 7  90652592.10845  22138289.188                    22138298.551
 11  8 18 18  3 30.0000000  0 10G17G28G08G19G23G11G01G24G07G13
 128398827.646 6 100051102.989 6  24433496.250                    24433508.359
 118805522.873 7  92575842.35845  22607950.914                    22607959.434
 111879359.841 8  87178801.46346  21289935.758                    21289944.734
 117268130.109 7  91377790.11345  22315386.820                    22315393.934
 126934470.770 6  98909978.49643  24154840.563                    24154851.277
 115482751.357 7  89986689.69245  21975646.945                    21975656.551
 122932652.636 7  95791697.255 7  23393299.805                    23393313.605
 122411245.284 7  95385453.27144  23294080.742                    23294093.758
 107260362.887 8  83579543.346 8  20410966.445                    20410974.762
 116436923.164 7  90730086.39745  22157214.047                    22157223.313
 11  8 18 18  4  0.0000000  0 10G17G28G08G19G23G11G01G24G07G13
 128295319.918 6  99970447.659 6  24413798.695                    24413810.953
 118773156.222 7  92550621.60445  22601791.375                    22601799.824
 111814518.313 8  87128275.60746  21277596.672                    21277605.680
 117352102.340 7  91443222.97845  22331366.125                    22331373.680
 127049001.533 6  98999222.94343  24176635.742                    24176646.152
 115436171.915 7  89950394.03845  21966783.234                    21966792.105
 122858855.765 7  95734193.291 7  23379256.508                    23379271.039
 122342363.722 7  95331779.42844  23280972.891                    23280985.207
 107240483.535 8  83564052.942 8  20407183.898                    20407192.078
 116536642.019 7  90807789.31145  22176189.578                    22176199.586
 11  8 18 18  4 30.0000000  0 10G17G28G08G19G23G11G01G24G07G13
 128191934.135 6  99889887.391 6  24394125.820                    24394137.781
 118740915.167 7  92525498.72345  22595656.227                    22595664.629
 111749842.899 8  87077879.18746  21265289.477                    21265298.410
 117436423.391 7  91508927.65945  22347411.766                    22347419.531
 127163534.085 6  99088468.81243  24198430.328                    24198440.922
 115390019.596 7  89914431.22045  21958000.758                    21958009.887
 122785204.327 7  95676802.653 7  23365241.047                    23365254.984
 122273643.329 7  95278231.14743  23267895.969                    23267908.066
 107220955.533 8  83548836.315 8  20403467.516                    20403476.277
 116636625.370 7  90885698.34745  22195215.992                    22195225.582
 11  8 18 18  5  0.0000000  0 10G17G28G08G19G23G11G01G24G07G13
 128088672.087 6  99809423.521 6  24374475.234                    24374486.844
 118708798.848 7  92500473.03745  22589544.711                    22589552.719
 111685335.607 8  87027613.78046  21253014.313                    21253023.461
 117521090.171 7  91574901.72545  22363523.328                    22363530.590
 127278065.158 6  99177713.50643  24220225.727                    24220235.816
 115344296.420 7  89878802.78545  21949299.984                    21949308.844
 122711700.945 7  95619527.392 7  23351254.570                    23351268.012
 122205087.037 7  95224810.76543  23254850.336                    23254862.484
 107201780.174 8  83533894.474 8  20399818.859                    20399827.082
 116736869.854 7  90963810.85045  22214292.195                    22214301.465
 11  8 18 18  5 30.0000000  0 10G17G28G08G19G23G11G01G24G07G13
 127985535.796 6  99729057.647 6  24354848.406                    24354860.863
 118676806.238 7  92475543.74445  22583456.398                    22583465.344
 111620998.958 8  86977481.33546  21240771.320                    21240780.316
 117606099.992 7  91641143.09945  22379700.750                    22379707.859
 127392592.471 6  99266955.29843  24242019.203                    24242029.746
 115299005.442 7  89843511.13945  21940681.250                    21940690.336
 122638348.799 7  95562369.962 7  23337294.891                    23337309.172
 122136698.267 7  95171520.88343  23241836.867                    23241848.137
 107182959.690 8  83519229.162 8  20396237.148                    20396245.523
 116837372.783 7  91042124.75244  22233417.477                    22233426.793
 11  8 18 18  6  0.0000000  0 10G17G28G08G19G23G11G01G24G07G13
 127882527.958 6  99648791.854 6  24335246.891                    24335258.641
 118644936.467 7  92450710.19045  22577391.734                    22577400.586
 111556835.815 8  86927484.09646  21228561.609                    21228570.949
 117691450.271 7  91707649.77645  22395941.633                    22395949.879
 127507113.516 6  99356192.14543  24263812.016                    24263823.281
 115254149.225 7  89808558.25645  21932145.328                    21932154.621
 122565151.361 7  95505333.081 7  23323366.141                    23323380.270
 122068480.105 7  95118363.97243  23228854.633                    23228866.320
 107164496.114 8  83504841.957 8  20392723.414                    20392731.824
 116938131.441 7  91120637.92044  22252591.156                    22252600.840
 11  8 18 18  6 30.0000000  0 10G17G28G08G19G23G11G01G24G07G13
 127779650.025 6  99568627.260 6  24315670.094                    24315681.496
 118613188.407 7  92425971.47045  22571350.219                    22571359.430
 111492847.813 8  86877623.32946  21216384.609                    21216394.012
 117777137.856 7  91774419.27745  22412247.930                    22412255.609
 127621625.201 6  99445421.73343  24285603.617                    24285614.758
 115209729.819 7  89773945.75145  21923692.773                    21923701.980
 122492111.523 7  95448418.998 7  23309467.344                    23309481.105
 122000435.354 7  95065342.16743  23215905.828                    23215917.969
 107146390.704 8  83490733.843 8  20389278.117                    20389286.758
 117039142.083 7  91199347.43744  22271812.398                    22271822.297
 11  8 18 18  7  0.0000000  0 10G17G28G08G19G23G11G01G24G07G13
 127676904.147 6  99488565.579 6  24296117.094                    24296129.758
 118581561.406 7  92401327.07245  22565331.719                    22565340.594
 111429036.840 8  86827900.50246  21204242.086                    21204251.598
 117863159.878 7  91841449.38245  22428617.211                    22428625.133
 127736124.693 6  99534641.78843  24307391.625                    24307403.438
 115165749.406 8  89739675.32045  21915323.461                    21915332.602
 122419232.155 6  95391629.982 6  23295598.734                    23295611.934
 121932566.982 7  95012457.81543  23202991.219                    23203002.668
 107128645.360 8  83476906.296 8  20385901.375                    20385910.109
 117140401.624 7  91278250.88744  22291082.250                    22291091.398
 11  8 18 18  7 30.0000000  0 10G17G28G08G19G23G11G01G24G07G13
 127574293.175 6  99408609.058 6  24276591.750                    24276603.648
 118550054.646 7  92376776.36945  22559336.305                    22559344.980
 111365405.746 8  86778317.83846  21192133.367                    21192142.359
 117949513.900 7  91908738.18345  22445050.234                    22445057.563
 127850609.848 6  99623850.69543  24329178.438                    24329189.668
 115122211.034 8  89705749.33045  21907038.555                    21907047.180
 122346516.837 7  95334968.786 7  23281761.117                    23281774.895
 121864878.673 7  94959713.78143  23190110.203                    23190122.148
 107111262.532 8  83463361.226 8  20382593.914                    20382602.164
 117241907.703 7  91357346.44545  22310397.766                    22310407.016
 11  8 18 18  8  0.0000000  0 10G17G28G08G19G23G11G01G24G07G13
 127471818.459 6  99328758.727 6  24257091.500                    24257103.293
 118518666.978 7  92352318.46345  22553363.570                    22553371.910
 111301956.567 8  86728876.93946  21180059.648                    21180068.477
 118036196.830 7  91976283.27545  22461545.352                    22461552.898
 127965077.541 6  99713045.94543  24350960.703                    24350972.559
 115079116.988 8  89672169.57045  21898838.258                    21898846.645
 122273968.230 7  95278437.456 6  23267956.148                    23267969.043
 121797373.117 7  94907112.13043  23177264.727                    23177276.102
 107094243.406 8  83450099.556 8  20379354.828                    20379363.551
 117343656.804 7  91436631.38944  22329760.023                    22329769.602
 11  8 18 18  8 30.0000000  0 10G17G28G08G19G23G11G01G24G07G13
 127369482.085 6  99249016.163 6  24237616.969                    24237628.883
 118487397.293 7  92327952.50745  22547413.398                    22547421.656
 111238691.362 8  86679579.39046  21168020.445                    21168029.594
 118123205.913 7  92044082.52045  22478102.398                    22478110.332
 128079525.173 6  99802225.63943  24372740.266                    24372751.383
 115036469.449 7  89638937.75345  21890722.719                    21890731.313
 122201589.711 6  95222038.711 6  23254182.102                    23254195.770
 121730053.511 7  94854655.40543  23164453.867                    23164465.711
 107077589.726 8  83437122.654 8  20376185.820                    20376194.449
 117445646.028 7  91516103.42044  22349168.180                    22349177.781
 11  8 18 18  9  0.0000000  0 10G17G28G08G19G23G11G01G24G07G13
 127267286.203 6  99169383.067 6  24218170.500                    24218181.938
 118456244.802 7  92303677.85745  22541485.273                    22541493.867
 111175612.803 8  86630427.28246  21156017.242                    21156026.102
 118210538.196 7  92112133.59845  22494721.023                    22494729.113
 128193949.827 6  99891387.42543  24394513.984                    24394526.160
 114994270.844 8  89606055.74345  21882692.086                    21882700.785
 122129384.147 7  95165774.707 6  23240442.016                    23240455.707
 121662922.855 6  94802345.90643  23151679.625                    23151691.605
 107061303.332 8  83424431.943 8  20373086.781                    20373094.910
 117547872.074 7  91595759.99645  22368621.188                    22368630.828
 11  8 18 18  9 30.0000000  0 10G17G28G08G19G23G11G01G24G07G13
 127165232.771 7  99089860.990 6  24198750.375                    24198761.570
 118425208.938 7  92279494.09445  22535579.695                    22535587.824
 111112723.256 8  86581422.44246  21144049.398                    21144058.340
 118298191.040 7  92180434.47245  22511401.273                    22511408.895
 128308349.031 6  99980529.31043  24416283.289                    24416295.875
 114952523.552 8  89573525.40445  21874747.938                    21874756.918
 122057354.524 7  95109647.788 6  23226734.945                    23226748.715
 121595984.380 6  94750186.15043  23138941.570                    23138952.629
 107045386.285 8  83412029.049 8  20370058.125                    20370066.301
 117650332.042 7  91675598.85544  22388118.945                    22388128.703
 11  8 18 18 10  0.0000000  0 10G17G28G08G19G23G11G01G24G07G13
 127063323.554 6  99010451.271 6  24179357.656                    24179368.988
 118394288.536 7  92255400.29145  22529695.180                    22529703.332
 111050024.488 8  86532566.27846  21132118.609                    21132127.367
 118386161.596 7  92248982.92745  22528141.797                    22528149.223
 128422719.853 6 100069649.13343  24438048.047                    24438059.664
 114911229.806 8  89541348.47645  21866890.289                    21866899.188
 121985503.987 7  95053660.451 6  23213062.500                    23213076.297
 121529240.946 6  94698178.38544  23126240.180                    23126252.098
 107029839.896 8  83399914.967 8  20367099.383                    20367107.699
 117753022.620 7  91755617.40944  22407659.922                    22407669.961
 11  8 18 18 10 30.0000000  0 10G17G28G08G19G23G11G01G24G07G13
 126961561.769 7  98931156.436 6  24159993.289                    24160004.156
 118363483.011 7  92231396.01245  22523833.258                    22523841.863
 110987519.733 8  86483861.28346  21120224.070                    21120233.309
 118474447.182 7  92317776.84945  22544941.438                    22544949.297
 128537060.290 6 100158745.21543  24459806.539                    24459818.168
 114870392.350 7  89509527.10145  21859118.836                    21859128.102
 121913836.371 7  94997815.615 7  23199424.258                    23199438.176
 121462696.544 7  94646325.70044  23113577.172                    23113589.219
 107014666.802 8  83388091.775 8  20364212.258                    20364220.871
 117855941.559 7  91835813.89744  22427245.461                    22427255.090
 11  8 18 18 11  0.0000000  0  9G17G28G08G19G11G01G24G07G13
 126859948.654 6  98851977.458 6  24140656.648                    24140667.531
 118332791.118 7  92207480.26645  22517993.094                    22518001.223
 110925211.407 8  86435309.34746  21108367.141                    21108376.172
 118563045.049 7  92386814.11445  22561801.484                    22561809.016
 114830013.344 8  89478062.95545  21851435.195                    21851443.992
 121842354.059 7  94942115.187 7  23185822.008                    23185835.855
 121396353.708 6  94594630.07043  23100952.156                    23100964.633
 106999868.127 8  83376560.344 8  20361396.141                    20361404.547
 117959085.543 7  91916185.74144  22446873.094                    22446882.453
 11  8 18 18 11 30.0000000  0  9G17G28G08G19G11G01G24G07G13
 126758486.034 6  98772915.764 6  24121347.773                    24121360.125
 118302211.729 7  92183652.19145  22512173.711                    22512181.957
 110863101.066 8  86386911.68946  21096547.414                    21096556.863
 118651951.998 7  92456092.22445  22578719.570                    22578727.063
 114790094.642 7  89446957.49745  21843838.445                    21843847.668
 121771060.138 7  94886561.544 7  23172255.047                    23172268.984
 121330215.361 7  94543093.76644  23088366.867                    23088379.117
 106985445.310 8  83365321.785 8  20358651.445                    20358660.160
 118062450.871 7  91996730.07744  22466542.609                    22466552.371
 11  8 18 18 12  0.0000000  0  9G17G28G08G19G11G01G24G07G13
 126657176.150 6  98693973.065 6  24102069.695                    24102081.273
 118271744.100 7  92159911.19645  22506376.008                    22506384.242
 110801190.915 7  86338670.02446  21084767.195                    21084775.656
 118741164.932 7  92525608.76045  22595696.664                    22595704.016
 114750638.601 7  89416212.53345  21836330.820                    21836339.395
 121699957.594 7  94831157.032 7  23158724.086                    23158737.910
 121264284.473 7  94491719.12544  23075820.352                    23075832.125
 106971400.112 8  83354377.468 8  20355978.852                    20355986.984
 118166034.706 7  92077444.66644  22486254.305                    22486263.660
 11  8 18 18 12 30.0000000  0  9G17G28G08G19G11G01G24G07G13
 126556021.065 6  98615150.994 6  24082821.055                    24082832.281
 118241387.125 7  92136256.44245  22500598.875                    22500607.188
 110739483.576 8  86290586.39346  21073024.461                    21073033.188
 118830681.186 7  92595361.64345  22612730.617                    22612738.797
 114711647.525 7  89385829.89545  21828910.828                    21828919.660
 121629049.457 6  94775904.009 7  23145231.141                    23145244.789
 121198564.202 7  94440508.62644  23063314.258                    23063326.398
 106957734.214 8  83343728.711 8  20353378.008                    20353386.816
 118269833.824 7  92158326.98644  22506006.430                    22506015.992
 11  8 18 18 13  0.0000000  0 10G17G28G26G08G19G11G01G24G07G13
 126455022.512 6  98536450.886 6  24063601.195                    24063612.703
 118211139.874 7  92112687.17045  22494843.023                    22494851.402
 127462261.97716  99321324.50653  24255272.656                    24255283.617
 110677981.379 8  86242662.62146  21061320.758                    21061329.910
 118920498.268 7  92665348.93245  22629822.875                    22629830.207
 114673123.817 7  89355811.43445  21821579.531                    21821589.059
 121558338.973 7  94720805.005 7  23131775.336                    23131789.625
 121133057.861 7  94389464.80544  23050849.172                    23050860.941
 106944449.681 8  83333377.129 8  20350850.555                    20350859.043
 118373845.322 7  92239374.81144  22525798.836                    22525809.266
 11  8 18 18 13 30.0000000  0 10G17G28G26G08G19G11G01G24G07G13
 126354182.351 6  98457874.222 6  24044411.711                    24044423.602
 118181001.229 7  92089202.53245  22489108.109                    22489116.379
 127374170.913 6  99252682.19043  24238509.570                    24238520.609
 110616686.369 8  86194900.29546  21049656.492                    21049665.762
 119010612.592 7  92735567.83545  22646970.906                    22646978.668
 114635069.107 7  89326158.42145  21814338.523                    21814347.211
 121487828.555 7  94665861.914 7  23118357.938                    23118371.695
 121067767.827 7  94338589.51744  23038424.133                    23038436.840
 106931547.310 8  83323323.329 8  20348395.039                    20348403.551
 118478065.535 7  92320585.27844  22545631.703                    22545641.801
 11  8 18 18 14  0.0000000  0 10G17G28G26G08G19G11G01G24G07G13
 126253502.910 6  98379422.761 6  24025253.102                    24025264.250
 118150970.590 7  92065802.04745  22483393.602                    22483401.914
 127286458.453 6  99184334.90844  24221818.156                    24221829.617
 110555600.987 7  86147301.30246  21038032.609                    21038041.766
 119101021.884 7  92806016.60145  22664175.305                    22664183.219
 114597485.966 7  89296872.85945  21807186.500                    21807195.379
 121417521.942 6  94611077.611 7  23104978.648                    23104992.547
 121002697.759 7  94287885.65944  23026041.484                    23026053.566
 106919029.692 8  83313569.328 8  20346013.078                    20346021.516
 118582491.642 7  92401956.17444  22565503.133                    22565513.270
 11  8 18 18 14 30.0000000  0 10G17G28G26G08G19G11G01G24G07G13
 126152986.218 6  98301098.135 6  24006125.164                    24006137.047
 118121047.107 7  92042485.08745  22477698.609                    22477707.594
 127199127.340 6  99116284.79044  24205199.141                    24205211.660
 110494727.726 8  86099867.61246  21026448.484                    21026457.770
 119191723.135 7  92876692.84445  22681434.766                    22681442.586
 114560376.603 7  89267956.48745  21800125.000                    21800133.695
 121347422.142 7  94556454.466 7  23091639.078                    23091652.402
 120937850.543 7  94237355.42744  23013701.922                    23013713.563
 106906898.161 8  83304116.181 8  20343704.398                    20343712.586
 118687120.977 7  92483485.43244  22585413.703                    22585423.137
 11  8 18 18 15  0.0000000  0 10G17G28G26G08G19G11G01G24G07G13
 126052634.326 6  98222901.919 6  23987028.922                    23987040.684
 118091229.693 7  92019250.75745  22472024.914                    22472033.434
 127112180.392 6  99048533.98244  24188654.008                    24188665.867
 110434069.165 8  86052601.21746  21014905.813                    21014914.797
 119282713.610 7  92947594.47345  22698750.109                    22698757.801
 114523743.268 8  89239411.03745  21793153.734                    21793162.305
 121277532.417 7  94501995.022 7  23078339.172                    23078353.078
 120873229.433 7  94187001.40044  23001405.047                    23001417.000
 106895154.591 8  83294965.336 8  20341469.383                    20341478.121
 118791950.431 7  92565170.61644  22605362.344                    22605372.238
 11  8 18 18 15 30.0000000  0 10G17G28G26G08G19G11G01G24G07G13
 125952449.016 7  98144835.520 6  23967965.008                    23967975.430
 118061517.725 7  91996098.59345  22466370.484                    22466379.547
 127025620.250 6  98981084.55644  24172182.625                    24172193.676
 110373627.566 8  86005503.88746  21003403.984                    21003412.965
 119373990.622 7  93018719.36345  22716119.430                    22716127.410
 114487587.942 8  89211238.07045  21786273.750                    21786282.363
 121207855.448 7  94447701.351 7  23065079.953                    23065094.262
 120808837.452 7  94136825.88644  22989151.781                    22989163.738
 106883800.562 8  83286118.027 8  20339309.258                    20339317.609
 118896976.849 7  92647009.28844  22625348.406                    22625357.879
 11  8 18 18 16  0.0000000  0 10G17G28G26G08G19G11G01G24G07G13
 125852432.279 7  98066900.421 6  23948931.906                    23948942.973
 118031909.840 7  91973027.52645  22460736.469                    22460745.367
 126939449.429 6  98913938.49143  24155784.531                    24155795.430
 110313404.855 8  85958577.11846  20991944.219                    20991952.910
 119465551.004 7  93090065.05745  22733543.242                    22733551.008
 114451912.825 8  89183439.29745  21779484.750                    21779493.500
 121138394.383 7  94393575.917 7  23051862.133                    23051876.215
 120744677.350 7  94086831.08644  22976942.109                    22976953.945
 106872837.277 8  83277575.196 8  20337223.031                    20337231.508
 119002196.832 7  92728998.77544  22645371.375                    22645381.523
 11  8 18 18 16 30.0000000  0 10G17G28G26G08G19G11G01G24G07G13
 125752586.679 7  97989098.726 6  23929932.133                    23929943.277
 118002405.681 7  91950037.29545  22455122.172                    22455130.355
 126853670.914 6  98847098.14544  24139461.195                    24139472.484
 110253404.103 8  85911823.30046  20980526.570                    20980535.387
 119557392.230 7  93161629.59445  22751019.508                    22751027.559
 114416720.317 7  89156016.57645  21772787.930                    21772796.816
 121069152.764 7  94339621.464 7  23038685.867                    23038699.680
 120680752.654 7  94037019.72344  22964777.461                    22964789.285
 106862267.051 8  83269338.649 8  20335211.406                    20335219.793
 119107607.687 7  92811137.00744  22665429.602                    22665439.719
 11  8 18 18 17  0.0000000  0 10G17G28G26G08G19G11G01G24G07G13
 125652913.647 7  97911431.524 6  23910964.852                    23910976.336
 117973004.298 7  91927127.14845  22449527.727                    22449535.707
 126768287.851 6  98780565.96343  24123212.891                    24123224.465
 110193627.243 8  85865243.94046  20969151.289                    20969160.215
 119649511.096 7  93233410.48145  22768549.281                    22768557.469
 114382012.251 7  89128971.34945  21766183.102                    21766192.039
 121000133.027 7  94285839.909 7  23025551.984                    23025565.371
 120617066.211 7  93987393.99344  22952658.578                    22952670.316
 106852091.315 8  83261409.495 8  20333275.031                    20333283.266
 119213206.258 7  92893421.50444  22685524.844                    22685534.742
 11  8 18 18 17 30.0000000  0 10G17G28G26G08G19G11G01G24G07G13
 125553415.034 7  97833900.231 6  23892029.813                    23892041.711
 117943704.243 7  91904295.95545  22443951.594                    22443960.215
 126683302.572 6  98714343.74643  24107040.961                    24107052.168
 110134076.841 8  85818841.04346  20957819.234                    20957828.398
 119741905.217 7  93305405.85145  22786130.695                    22786139.207
 114347790.575 7  89102305.11345  21759671.523                    21759679.566
 120931338.528 7  94232233.881 7  23012460.117                    23012474.109
 120553621.307 6  93937956.47144  22940585.055                    22940596.672
 106842311.597 8  83253788.926 8  20331414.094                    20331422.691
 119318989.437 7  92975849.84544  22705654.953                    22705664.914
 11  8 18 18 18  0.0000000  0 10G17G28G26G08G19G11G01G24G07G13
 125454093.303 7  97756506.771 6  23873130.023                    23873141.684
 117914504.806 7  91881543.16845  22438394.898                    22438403.316
 126598717.767 5  98648433.58742  24090944.828                    24090956.594
 110074755.248 8  85772616.43046  20946530.414                    20946539.680
 119834571.393 7  93377613.19545  22803765.203                    22803772.883
 114314057.555 8  89076019.66145  21753251.555                    21753260.547
 120862772.111 7  94178805.573 7  22999413.086                    22999426.516
 120490420.886 7  93888709.47444  22928558.992                    22928569.969
 106832929.465 8  83246478.159 8  20329628.859                    20329636.996
 119424953.883 7  93058419.46144  22725819.945                    22725829.246
 11  8 18 18 18 30.0000000  0 10G17G28G26G08G19G11G01G24G07G13
 125354950.372 6  97679252.622 6  23854262.852                    23854275.246
 117885405.555 7  91858868.44445  22432857.453                    22432865.902
 126514536.387 5  98582837.75842  24074924.648                    24074938.047
 110015665.457 8  85726572.44846  20935286.289                    20935294.988
 119927507.161 7  93450030.61945  22821450.656                    22821458.328
 114280815.104 8  89050116.46945  21746925.875                    21746934.633
 120794437.290 7  94125557.708 7  22986408.828                    22986422.754
 120427468.036 7  93839655.39144  22916578.477                    22916589.996
 106823946.931 8  83239478.770 8  20327919.672                    20327927.805
 119531097.312 7  93141128.50744  22746017.320                    22746027.945
 11  8 18 18 19  0.0000000  0 10G17G28G26G08G19G11G01G24G07G13
 125255987.840 6  97602139.065 6  23835431.773                    23835443.660
 117856405.228 7  91836270.81645  22427338.867                    22427347.934
 126430760.922 6  98517558.27842  24058982.555                    24058995.895
 109956809.204 8  85680710.43346  20924086.016                    20924094.699
 120020709.366 7  93522655.66845  22839186.375                    22839194.336
 114248065.306 7  89024597.16745  21740694.063                    21740703.055
 120726336.490 7  94072492.207 7  22973449.891                    22973463.402
 120364765.626 7  93790796.43244  22904646.727                    22904658.617
 106815364.988 8  83232791.540 8  20326286.188                    20326294.469
 119637415.913 7  93223974.04844  22766249.516                    22766259.957
 11  8 18 18 19 30.0000000  0 10G17G28G26G08G19G11G01G24G07G13
 125157207.950 7  97525167.831 6  23816634.398                    23816645.934
 117827503.239 7  91813749.80645  22421839.375                    22421847.363
 126347394.522 6  98452589.37352  24043119.289                    24043128.484
 109898189.277 8  85635032.58346  20912931.305                    20912940.016
 120114175.516 7  93595486.37045  22856971.977                    22856980.164
 114215810.429 7  88999463.50945  21734555.820                    21734564.660
 120658473.170 7  94019611.740 7  22960535.695                    22960549.090
 120302316.825 6  93742135.10844  22892763.555                    22892775.152
 106807185.932 8  83226418.244 8  20324730.031                    20324738.051
 119743907.000 7  93306954.02044  22786514.727                    22786524.582
 11  8 18 18 20  0.0000000  0 10G17G28G26G08G19G11G01G24G07G13
 125058612.275 7  97448340.111 6  23797872.609                    23797883.785
 117798698.367 7  91791304.47045  22416357.844                    22416366.379
 126264439.400 6  98387949.09842  24027333.891                    24027343.023
 109839807.705 8  85589540.45446  20901821.375                    20901830.723
 120207902.333 7  93668520.20445  22874807.867                    22874815.266
 114184051.848 7  88974716.57745  21728512.594                    21728521.492
 120590850.229 7  93966918.587 7  22947668.148                    22947681.375
 120240124.448 7  93693673.57344  22880928.508                    22880939.645
 106799410.596 8  83220359.540 8  20323250.320                    20323258.637
 119850566.861 7  93390065.49844  22806810.820                    22806821.348
 11  8 18 18 20 30.0000000  0 10G17G28G26G08G19G11G01G24G07G13
 124960202.881 6  97371657.566 6  23779145.805                    23779156.914
 117769989.424 7  91768933.88245  22410894.602                    22410902.703
 126181898.261 6  98323631.38543  24011626.391                    24011637.266
 109781666.710 8  85544235.78346  20890757.500                    20890766.750
 120301886.925 7  93741754.89544  22892692.602                    22892700.898
 114152791.704 7  88950358.03945  21722563.961                    21722572.871
 120523470.701 7  93914415.092 7  22934845.563                    22934859.301
 120178191.608 6  93645414.29944  22869142.977                    22869154.258
 106792040.650 8  83214616.721 8  20321847.820                    20321856.195
 119957392.573 7  93473306.19344  22827139.586                    22827149.500
 11  8 18 18 21  0.0000000  0 10G17G28G26G08G19G11G01G24G07G13
 124861982.029 7  97295121.927 6  23760454.820                    23760465.918
 117741376.039 7  91746637.75745  22405449.594                    22405458.277
 126099773.641 7  98259638.25943  23995998.750                    23996010.020
 109723769.349 8  85499120.97046  20879740.500                    20879749.332
 120396126.830 7  93815188.52844  22910625.938                    22910633.844
 114122031.953 7  88926389.42145  21716710.258                    21716718.582
 120456337.831 7  93862103.794 7  22922070.688                    22922084.102
 120116521.571 7  93597359.76244  22857408.008                    22857418.523
 106785077.938 8  83209191.222 8  20320522.641                    20320531.598
 120064381.445 7  93556674.03444  22847499.164                    22847509.164
 11  8 18 18 21 30.0000000  0 10G17G28G26G08G19G11G01G24G07G13
 124763951.469 7  97218734.515 6  23741800.273                    23741811.410
 117712856.999 7  91724415.14545  22400022.664                    22400031.348
 126018068.429 7  98195971.95643  23980450.438                    23980461.984
 109666117.792 7  85454197.67846  20868769.344                    20868778.242
 120490618.835 7  93888818.61444  22928607.219                    22928614.563
 114091774.791 7  88902812.42445  21710952.898                    21710961.348
 120389454.489 7  93809986.945 7  22909343.555                    22909356.359
 120055117.377 6  93549512.38744  22845722.438                    22845734.250
 106778523.811 8  83204084.105 8  20319275.992                    20319284.008
 120171530.212 7  93640166.46244  22867888.617                    22867898.695
 11  8 18 18 22  0.0000000  0 10G17G28G26G08G19G11G01G24G07G13
 124666112.924 7  97142496.779 6  23723181.781                    23723193.219
 117684431.639 7  91702265.52845  22394613.617                    22394622.371
 125936785.088 7  98132634.33143  23964983.125                    23964994.273
 109608714.620 8  85409467.95346  20857845.836                    20857854.363
 120585360.631 7  93962643.33244  22946635.852                    22946643.824
 114062021.919 7  88879628.39345  21705290.547                    21705299.742
 120322823.413 7  93758066.666 7  22896663.883                    22896676.797
 119993981.670 7  93501874.23244  22834088.930                    22834100.039
 106772379.904 8  83199296.636 8  20318106.555                    20318114.566
 120278835.849 7  93723781.13644  22888308.242                    22888318.023
 11  8 18 18 22 30.0000000  0 10G17G28G26G08G19G11G01G24G07G13
 124568468.003 6  97066409.890 6  23704600.484                    23704612.137
 117656098.655 7  91680187.90045  22389221.625                    22389230.027
 125855926.122 7  98069627.41844  23949596.484                    23949607.453
 109551561.854 8  85364933.34946  20846970.273                    20846979.258
 120680349.137 7  94036660.30844  22964711.711                    22964719.816
 114032775.092 7  88856838.67045  21699725.109                    21699734.094
 120256447.730 7  93706345.380 7  22884033.055                    22884046.313
 119933117.430 7  93454447.60244  22822506.383                    22822518.238
 106766647.413 8  83194829.753 8  20317015.867                    20317024.164
 120386295.007 7  93807515.44044  22908757.031                    22908767.570
 11  8 18 18 23  0.0000000  0 10G17G28G26G08G19G11G01G24G07G13
 124471019.273 6  96990475.886 6  23686056.430                    23686068.313
 117627857.583 7  91658181.87945  22383847.750                    22383856.063
 125775494.471 7  98006953.50243  23934290.328                    23934301.668
 109494662.233 8  85320595.99346  20836142.852                    20836151.477
 120775581.613 7  94110867.37844  22982833.695                    22982841.402
 114004036.111 7  88834444.68345  21694256.219                    21694265.285
 120190330.713 7  93654825.677 7  22871451.219                    22871464.328
 119872527.914 6  93407235.04644  22810976.195                    22810988.227
 106761328.273 8  83190684.962 8  20316003.258                    20316011.688
 120493904.919 7  93891367.19744  22929234.391                    22929244.809
 11  8 18 18 23 30.0000000  0 10G17G28G26G08G19G11G01G24G07G13
 124373768.592 6  96914696.226 6  23667550.070                    23667561.086
 117599707.741 7  91636246.94745  22378491.281                    22378499.355
 125695492.820 6  97944614.62443  23919066.586                    23919077.746
 109438018.477 8  85276458.01346  20825363.188                    20825372.516
 120871055.109 7  94185262.26144  23001002.148                    23001010.090
 113975806.955 7  88812447.95445  21688884.844                    21688893.184
 120124475.433 7  93603509.916 7  22858919.016                    22858932.316
 119812216.032 7  93360238.79544  22799499.305                    22799511.063
 106756423.955 8  83186863.411 8  20315070.336                    20315078.617
 120601662.612 7  93975334.12644  22949740.453                    22949750.707
 11  8 18 18 24  0.0000000  0 10G17G28G26G08G19G11G01G24G07G13
 124276717.939 6  96839072.428 6  23649082.102                    23649093.309
 117571647.839 7  91614382.10845  22373151.078                    22373160.168
 125615923.552 6  97882612.66843  23903924.648                    23903935.848
 109381633.015 8  85232521.30546  20814633.664                    20814642.883
 120966766.882 7  94259842.82244  23019215.188                    23019223.504
 113948089.387 7  88790849.87345  21683610.242                    21683618.938
 120058884.948 7  93552400.488 7  22846437.445                    22846451.156
 119752184.935 7  93313461.37644  22788076.156                    22788087.691
 106751935.785 8  83183366.120 8  20314216.031                    20314224.387
 120709564.788 7  94059413.60744  22970273.852                    22970284.051
 11  8 18 18 24 30.0000000  0 10G17G28G26G08G19G11G01G24G07G13
 124179868.546 6  96763605.426 6  23630652.422                    23630663.500
 117543677.116 7  91592586.75645  22367828.906                    22367837.023
 125536789.267 6  97820949.72143  23888865.266                    23888877.051
 109325507.739 8  85188787.33346  20803953.695                    20803962.512
 121062714.148 7  94334606.87244  23037473.539                    23037481.188
 113920884.932 7  88769651.61945  21678433.547                    21678442.172
 119993561.849 7  93501499.426 7  22834007.141                    22834020.457
 119692437.423 7  93266904.90544  22776706.313                    22776718.047
 106747865.202 8  83180194.223 8  20313441.859                    20313450.320
 120817608.362 7  94143603.29344  22990833.938                    22990844.051
 11  8 18 18 25  0.0000000  0 10G17G28G26G08G19G11G01G24G07G13
 124083222.849 6  96688297.163 6  23612260.578                    23612272.430
 117515794.702 7  91570860.22045  22362522.961                    22362531.480
 125458092.513 6  97759627.69342  23873890.102                    23873901.953
 109269645.448 8  85145258.29146  20793323.203                    20793332.148
 121158894.081 7  94409552.21244  23055776.531                    23055783.996
 113894195.814 7  88748854.92745  21673354.750                    21673362.836
 119928509.355 7  93450809.217 7  22821628.094                    22821641.254
 119632976.516 6  93220571.76644  22765391.289                    22765402.969
 106744213.725 8  83177348.909 8  20312746.898                    20312755.512
 120925790.357 7  94227900.84644  23011420.750                    23011430.883
 11  8 18 18 25 30.0000000  0 10G17G28G26G08G19G11G01G24G07G13
 123986782.817 7  96613149.183 6  23593909.180                    23593920.168
 117488000.206 7  91549202.18545  22357233.656                    22357242.266
 125379835.883 6  97698648.58343  23858997.922                    23859009.664
 109214048.839 8  85101936.26246  20782743.656                    20782752.563
 121255303.883 7  94484676.69744  23074122.219                    23074130.508
 113868024.033 7  88728461.35645  21668373.977                    21668382.680
 119863730.770 7  93400332.447 7  22809300.828                    22809314.180
 119573805.294 7  93174464.36344  22754131.109                    22754143.383
 106740983.064 8  83174831.494 8  20312132.102                    20312140.285
 121034107.700 7  94312303.84944  23032032.055                    23032042.715
 11  8 18 18 26  0.0000000  0 10G17G28G26G08G19G11G01G24G07G13
 123890549.762 6  96538162.466 6  23575596.695                    23575607.820
 117460292.199 7  91527611.54345  22351960.688                    22351969.215
 125302022.083 6  97638014.55143  23844190.578                    23844201.965
 109158720.142 8  85058823.00046  20772214.875                    20772223.738
 121351940.649 7  94559978.01745  23092511.766                    23092519.953
 113842370.840 8  88708471.86245  21663492.703                    21663501.520
 119799228.640 7  93350071.102 7  22797026.563                    22797039.691
 119514926.852 7  93128585.08944  22742927.625                    22742939.277
 106738174.274 8  83172642.821 8  20311597.758                    20311605.848
 121142557.358 7  94396809.95944  23052669.695                    23052680.293
 11  8 18 18 26 30.0000000  0 10G17G28G26G08G19G11G01G24G07G13
 123794526.109 7  96463338.928 6  23557323.766                    23557335.172
 117432669.905 7  91506087.70045  22346704.250                    22346712.867
 125224653.403 6  97577727.34943  23829467.875                    23829478.738
 109103661.710 8  85015920.33746  20761737.383                    20761746.070
 121448801.824 7  94635454.19145  23110943.945                    23110951.645
 113817237.694 8  88688887.61345  21658710.117                    21658718.504
 119735005.901 7  93300027.475 7  22784805.320                    22784819.051
 119456344.007 7  93082936.16444  22731779.359                    22731791.215
 106735788.867 8  83170784.054 8  20311143.602                    20311151.758
 121251136.099 7  94481416.64144  23073331.961                    23073342.254
 11  8 18 18 27  0.0000000  0 10G17G28G26G08G19G11G01G24G07G13
 123698713.507 7  96388679.830 6  23539091.344                    23539101.965
 117405132.630 7  91484630.08845  22341464.938                    22341472.934
 125147732.456 6  97517789.00243  23814830.992                    23814841.641
 109048876.160 8  84973230.31146  20751312.180                    20751321.031
 121545884.485 7  94711102.95944  23129418.563                    23129425.945
 113792626.774 8  88669710.28845  21654026.438                    21654035.551
 119671066.100 7  93250204.308 7  22772638.008                    22772651.695
 119398059.593 7  93037519.76844  22720688.133                    22720700.027
 106733828.489 8  83169256.477 8  20310770.555                    20310778.871
 121359841.064 7  94566121.66444  23094017.500                    23094028.668
 11  8 18 18 27 30.0000000  0 10G17G28G26G08G19G11G01G24G07G13
 123603113.776 7  96314186.615 6  23520899.484                    23520910.398
 117377679.374 7  91463237.94945  22336240.570                    22336248.656
 125071261.733 7  97458201.47443  23800278.172                    23800289.484
 108994365.746 8  84930754.66446  20740939.180                    20740948.090
 121643185.722 7  94786922.05744  23147934.563                    23147941.883
 113768539.396 8  88650940.93245  21649442.477                    21649451.746
 119607411.541 7  93200603.420 7  22760525.320                    22760538.254
 119340076.684 7  92992338.29644  22709654.727                    22709665.969
 106732294.159 8  83168060.887 8  20310478.914                    20310486.828
 121468668.966 7  94650922.47344  23114726.469                    23114737.285
 11  8 18 18 28  0.0000000  0 10G17G28G26G08G19G11G01G24G07G13
 123507728.585 7  96239860.578 6  23502748.219                    23502758.996
 117350309.176 7  91441910.54145  22331032.094                    22331040.496
 124995243.462 7  97398966.49443  23785812.789                    23785823.281
 108940133.129 8  84888495.48646  20730619.297                    20730627.957
 121740703.004 7  94862909.49044  23166490.453                    23166498.637
 113744977.427 7  88632580.98645  21644959.078                    21644967.508
 119544045.336 7  93151227.207 7  22748467.102                    22748480.012
 119282398.030 7  92947393.93344  22698678.789                    22698690.363
 106731187.210 8  83167198.316 8  20310267.891                    20310276.359
 121577616.775 7  94735816.74744  23135459.367                    23135469.898
 11  8 18 18 28 30.0000000  0 10G17G28G26G08G19G11G01G24G07G13
 123412560.052 7  96165703.343 6  23484637.797                    23484648.957
 117323021.365 7  91420647.31245  22325839.453                    22325847.535
 124919680.606 7  97340086.38843  23771433.391                    23771443.898
 108886180.785 8  84846454.71446  20720352.359                    20720360.918
 121838433.243 7  94939062.86444  23185088.906                    23185096.523
 113721942.492 7  88614631.70545  21640575.930                    21640584.477
 119480970.600 7  93102078.128 7  22736464.125                    22736477.262
 119225026.955 7  92902689.24244  22687761.133                    22687772.660
 106730509.373 8  83166670.126 8  20310139.258                    20310147.648
 121686681.511 7  94820802.13344  23156213.641                    23156224.066
 11  8 18 18 29  0.0000000  0 10G17G28G26G08G19G11G01G24G07G13
 123317610.048 7  96091716.403 6  23466569.242                    23466580.234
 117295815.342 7  91399447.82545  22320662.102                    22320670.434
 124844575.766 7  97281563.18443  23757141.914                    23757151.793
 108832511.568 8  84804634.55246  20710139.352                    20710147.945
 121936373.745 7  95015380.09044  23203725.992                    23203733.277
 113699435.980 8  88597094.18145  21636293.219                    21636301.785
 119418190.610 7  93053158.718 7  22724516.859                    22724530.453
 119167966.388 7  92858226.51044  22676902.422                    22676914.820
 106730262.320 8  83166477.610 8  20310092.078                    20310100.484
 121795860.563 7  94905876.56944  23176989.992                    23177000.414
 11  8 18 18 29 30.0000000  0 10G17G28G26G08G19G11G01G24G07G13
 123222879.974 7  96017900.860 6  23448542.844                    23448553.715
 117268690.169 7  91378311.32245  22315500.484                    22315509.023
 124769930.905 7  97223398.40843  23742936.250                    23742947.465
 108779127.148 8  84763036.31846  20699980.219                    20699989.582
 122034521.968 6  95091859.17244  23222402.680                    23222410.762
 113677459.665 8  88579969.80945  21632111.039                    21632119.512
 119355707.917 7  93004470.968 7  22712627.094                    22712640.637
 119111219.197 7  92814007.96344  22666104.484                    22666115.645
 106730447.070 8  83166621.569 8  20310127.078                    20310135.750
 121905150.249 7  94991037.23544  23197787.102                    23197797.273
 11  8 18 18 30  0.0000000  0 10G17G28G26G08G19G11G01G24G07G13
 123128371.832 7  95944258.203 6  23430558.891                    23430569.457
 117241644.367 7  91357236.68845  22310353.789                    22310362.262
 124695748.129 6  97165593.69243  23728820.422                    23728830.738
 108726029.802 8  84721661.77246  20689876.547                    20689885.520
 122132874.731 7  95168497.61144  23241118.969                    23241127.145
 113656015.009 8  88563259.71145  21628030.188                    21628038.719
 119293525.020 7  92956016.808 7  22700793.594                    22700807.523
 119054787.639 7  92770035.37544  22655366.180                    22655377.504
 106731064.122 8  83167102.368 8  20310244.852                    20310253.184
 122014547.323 7  95076281.57543  23218604.977                    23218615.207
 11  8 18 18 30 30.0000000  0 10G17G28G26G08G19G11G01G24G07G13
 123034087.544 7  95870790.010 6  23412615.969                    23412627.797
 117214677.722 7  91336223.72345  22305222.070                    22305230.531
 124622030.399 6  97108151.36643  23714791.891                    23714803.008
 108673223.004 8  84680513.63546  20679827.773                    20679836.828
 122231429.785 7  95245293.71344  23259873.078                    23259881.617
 113635103.479 7  88546965.03145  21624050.641                    21624059.117
 119231645.481 7  92907799.041 7  22689018.844                    22689031.887
 118998675.378 7  92726311.59244  22644687.813                    22644699.156
 106732115.822 7  83167921.857 8  20310444.742                    20310453.383
 122124049.328 7  95161607.68543  23239442.516                    23239452.625
 11  8 18 18 31  0.0000000  0 10G17G28G26G08G19G11G01G24G07G13
 122940029.048 7  95797497.763 6  23394717.258                    23394729.020
 117187790.013 7  91315272.27045  22300105.875                    22300114.105
 124548780.142 6  97051073.36343  23700852.852                    23700864.684
 108620709.449 8  84639593.98346  20669834.922                    20669843.590
 122330184.073 7  95322245.04844  23278665.781                    23278673.414
 113614726.628 7  88531086.98145  21620173.031                    21620181.828
 119170072.236 7  92859819.937 7  22677302.023                    22677315.145
 118942884.979 7  92682838.61144  22634071.180                    22634083.176
 106733603.376 8  83169080.983 8  20310728.070                    20310736.176
 122233653.532 7  95247013.41643  23260299.805                    23260310.238
 11  8 18 18 31 30.0000000  0 10G17G28G26G08G19G11G01G24G07G13
 122846198.290 7  95724382.955 6  23376862.891                    23376873.406
 117160979.247 7  91294380.76445  22295003.992                    22295012.117
 124475999.485 6  96994361.23343  23687004.000                    23687014.691
 108568490.649 8  84598904.02446  20659897.664                    20659906.723
 122429134.808 7  95399349.46344  23297494.898                    23297502.973
 113594885.864 7  88515626.66545  21616397.547                    21616406.227
 119108807.858 7  92812081.520 7  22665643.766                    22665656.746
 118887419.297 7  92639618.66544  22623516.273                    22623527.605
 106735527.687 8  83170580.436 8  20311093.875                    20311102.340
 122343356.208 7  95332495.88743  23281174.984                    23281185.785
 11  8 18 18 32  0.0000000  0 10G17G28G26G08G19G11G01G24G07G13
 122752596.757 7  95651446.777 6  23359050.313                    23359061.691
 117134245.593 7  91273549.34545  22289916.438                    22289924.945
 124403691.068 6  96938017.11543  23673242.875                    23673254.789
 108516569.873 8  84558446.28746  20650017.477                    20650026.535
 122528279.605 7  95476605.08244  23316361.781                    23316370.500
 113575583.253 7  88500585.69145  21612723.820                    21612733.023
 119047855.494 7  92764586.209 7  22654044.695                    22654057.828
 118832281.488 6  92596654.21344  22613023.938                    22613035.402
 106737890.634 8  83172421.681 8  20311543.633                    20311552.199
 122453154.646 7  95418052.96143  23302069.297                    23302080.004
 11  8 18 18 32 30.0000000  0 10G17G28G26G08G19G11G01G24G07G13
 122659225.981 7  95578690.419 6  23341283.336                    23341294.121
 117107587.655 7  91252776.94145  22284843.906                    22284852.125
 124331857.306 6  96882042.83643  23659573.484                    23659585.324
 108464949.527 8  84518222.65046  20640194.383                    20640203.402
 122627615.733 7  95554009.81144  23335265.508                    23335273.387
 113556819.896 8  88485964.91845  21609154.070                    21609162.684
 118987218.362 7  92717336.554 7  22642505.938                    22642519.242
 118777474.125 6  92553947.24544  22602594.641                    22602605.719
 106740693.353 8  83174605.617 8  20312077.258                    20312085.898
 122563045.800 7  95503682.28743  23322981.273                    23322991.813
 11  8 18 18 33  0.0000000  0 10G17G28G26G08G19G11G01G24G07G13
 122566088.231 7  95506115.605 6  23323559.484                    23323570.141
 117081004.819 7  91232063.05145  22279785.547                    22279793.320
 124260500.585 6  96826440.27743  23645994.375                    23646006.586
 108413631.959 8  84478234.94346  20630429.016                    20630438.582
 122727140.141 7  95631561.24144  23354203.586                    23354211.512
 113538596.905 8  88471765.20445  21605686.133                    21605694.801
 118926899.029 7  92670334.527 7  22631027.492                    22631040.641
 118723000.439 7  92511500.28644  22592227.938                    22592239.719
 106743937.082 8  83177133.188 8  20312694.367                    20312702.930
 122673026.621 7  95589381.45344  23343909.953                    23343920.625
 11  8 18 18 33 30.0000000  0 10G17G28G26G08G19G11G01G24G07G13
 122473185.146 7  95433723.683 6  23305880.125                    23305891.402
 117054496.297 7  91211407.08045  22274740.656                    22274748.918
 124189623.153 6  96771211.15644  23632507.766                    23632519.336
 108362620.259 8  84438485.57146  20620722.047                    20620730.563
 122826850.278 7  95709257.40544  23373178.250                    23373187.082
 113520916.026 8  88457987.91945  21602321.555                    21602330.145
 118866900.510 7  92623582.480 7  22619610.672                    22619622.949
 118668863.280 7  92469315.55344  22581926.172                    22581937.602
 106747622.939 8  83180005.281 8  20313395.953                    20313404.211
 122783094.237 7  95675148.27943  23364854.938                    23364866.266
 11  8 18 18 34  0.0000000  0 10G17G28G26G08G19G11G01G24G07G13
 122380518.232 7  95361515.782 6  23288245.930                    23288257.273
 117028061.100 8  91190808.24245  22269709.914                    22269717.996
 124119227.267 7  96716357.26644  23619111.953                    23619123.195
 108311915.851 8  84398975.65646  20611072.969                    20611082.066
 122926742.944 7  95787095.76344  23392187.336                    23392195.508
 113503778.176 8  88444633.76545  21599060.688                    21599069.168
 118807225.593 7  92577082.579 7  22608253.609                    22608267.188
 118615065.220 7  92427395.04944  22571688.133                    22571699.820
 106751751.884 8  83183222.626 8  20314181.109                    20314189.949
 122893245.429 7  95760980.20744  23385816.539                    23385827.539
 11  8 18 18 34 30.0000000  0 10G17G28G26G08G19G11G01G24G07G13
 122288089.391 7  95289493.384 6  23270657.938                    23270668.441
 117001698.538 7  91170265.98945  22264693.703                    22264702.242
 124049314.984 7  96661880.18944  23605808.063                    23605818.883
 108261521.553 8  84359707.37746  20601483.266                    20601492.258
 123026815.590 7  95865074.38144  23411230.195                    23411238.852
 113487184.949 8  88431703.99545  21595902.789                    21595911.301
 118747877.183 7  92530837.122 7  22596960.727                    22596973.656
 118561609.379 7  92385741.20244  22561516.609                    22561527.660
 106756325.421 7  83186786.416 8  20315051.766                    20315060.328
 123003477.324 7  95846875.02543  23406792.594                    23406803.492
 11  8 18 18 35  0.0000000  0 10G17G28G26G08G19G11G01G24G07G13
 122195900.037 7  95217657.582 6  23253114.016                    23253124.930
 116975407.786 7  91149779.69745  22259690.445                    22259698.703
 123979888.761 7  96607781.86344  23592596.594                    23592607.801
 108211439.862 8  84320682.69446  20591953.234                    20591962.230
 123127065.746 7  95943191.32744  23430307.547                    23430315.895
 113471137.472 8  88419199.49045  21592848.891                    21592857.203
 118688857.834 7  92484848.066 7  22585729.734                    22585742.527
 118508498.098 7  92344355.86144  22551409.750                    22551421.059
 106761344.340 8  83190697.253 8  20316006.695                    20316014.922
 123113786.695 7  95932830.21643  23427784.141                    23427795.117
 11  8 18 18 35 30.0000000  0 10G17G28G26G08G19G11G01G24G07G13
 122103952.506 7  95146010.220 6  23235617.523                    23235628.055
 116949187.901 7  91129348.62045  22254700.813                    22254709.250
 123910950.786 7  96554064.00143  23579478.125                    23579488.984
 108161673.464 8  84281903.69246  20582482.969                    20582492.203
 123227490.716 7  96021444.48344  23449417.813                    23449425.996
 113455637.173 8  88407121.34945  21589899.258                    21589907.832
 118630170.752 7  92439117.930 7  22574561.391                    22574574.578
 118455734.535 7  92303241.46044  22541369.086                    22541379.387
 106766810.465 7  83194956.558 8  20317047.125                    20317055.344
 123224170.651 7  96018843.53144  23448789.680                    23448800.320
 11  8 18 18 36  0.0000000  0 10G17G28G26G08G19G11G01G24G07G13
 122012248.066 7  95074552.305 6  23218166.695                    23218177.211
 116923038.273 7  91108972.29545  22249724.938                    22249733.285
 123842503.321 7  96500728.34243  23566453.086                    23566464.156
 108112224.178 8  84243371.79446  20573073.039                    20573081.926
 123328087.613 7  96099831.61444  23468560.563                    23468568.977
 113440685.170 8  88395470.43845  21587054.273                    21587062.664
 118571818.588 7  92393648.764 7  22563457.820                    22563470.555
 118403321.230 7  92262399.98844  22531394.555                    22531406.297
 106772724.416 8  83199564.824 8  20318172.508                    20318181.297
 123334625.885 7  96104912.41843  23469809.133                    23469819.938
 11  8 18 18 36 30.0000000  0 10G17G28G26G08G19G11G01G24G07G13
 121920788.472 7  95003285.169 6  23200762.563                    23200773.277
 116896958.285 7  91088650.23845  22244762.047                    22244770.777
 123774548.940 7  96447776.92243  23553521.172                    23553531.598
 108063095.193 8  84205089.47346  20563723.945                    20563732.914
 123428853.632 7  96178350.51344  23487736.781                    23487744.313
 113426283.086 8  88384248.04245  21584313.023                    21584322.051
 118513804.301 7  92348442.876 7  22552417.867                    22552431.164
 118351261.318 7  92221833.87844  22521488.211                    22521499.660
 106779087.763 8  83204523.264 8  20319383.305                    20319391.785
 123445150.182 7  96191035.04843  23490840.938                    23490852.043
 11  8 18 18 37  0.0000000  0 10G17G28G26G08G19G11G01G24G07G13
 121829575.597 7  94932210.263 6  23183405.289                    23183416.098
 116870947.161 8  91068381.84445  22239812.313                    22239820.582
 123707089.561 7  96395211.18943  23540684.859                    23540694.930
 108014289.203 8  84167058.84446  20554436.367                    20554445.277
 123529786.303 7  96256999.26844  23506942.508                    23506951.113
 113412432.057 8  88373455.05045  21581677.797                    21581686.227
 118456131.070 7  92303502.750 7  22541442.969                    22541455.676
 118299557.400 7  92181545.18244  22511649.250                    22511660.465
 106785901.382 8  83209832.564 8  20320680.063                    20320688.449
 123555740.053 7  96277208.79643  23511885.563                    23511896.332
 11  8 18 18 37 30.0000000  0 10G17G28G26G08G19G11G01G24G07G13
 121738610.947 7  94861328.800 6  23166095.000                    23166105.559
 116845004.016 7  91048166.40745  22234875.516                    22234883.754
 123640127.476 7  96343032.99743  23527941.914                    23527952.109
 107965808.569 8  84129281.73146  20545210.836                    20545220.000
 123630883.051 7  96335775.88844  23526180.648                    23526189.418
 113399133.124 8  88363092.25945  21579147.078                    21579155.703
 118398801.218 7  92258830.203 7  22530533.359                    22530546.273
 118248212.158 7  92141535.94744  22501878.273                    22501889.531
 106793166.457 8  83215493.652 8  20322062.258                    20322070.977
 123666392.378 6  96363431.25143  23532941.898                    23532953.430
 11  8 18 18 38  0.0000000  0 10G17G28G26G08G19G11G01G24G07G13
 121647896.636 7  94790642.380 6  23148832.766                    23148843.172
 116819128.190 7  91028003.44545  22229951.531                    22229959.910
 123573664.900 7  96291244.05343  23515294.383                    23515305.277
 107917655.449 8  84091759.82546  20536048.125                    20536056.566
 123732140.994 6  96414678.11144  23545449.461                    23545458.039
 113386387.560 8  88353160.66845  21576721.406                    21576730.359
 118341817.635 7  92214427.471 7  22519689.563                    22519702.570
 118197228.705 7  92101808.65744  22492176.133                    22492187.891
 106800884.457 8  83221507.669 8  20323531.086                    20323539.914
 123777104.440 6  96449700.19143  23554010.055                    23554021.039
 11  8 18 18 38 30.0000000  0 10G17G28G26G08G19G11G01G24G07G13
 121557433.894 7  94720152.017 6  23131617.320                    23131628.848
 116793318.516 8  91007892.00645  22225040.367                    22225048.438
 123507703.656 6  96239845.72243  23502742.266                    23502753.164
 107869832.214 8  84054494.96646  20526947.320                    20526956.102
 123833557.259 7  96493703.71544  23564748.523                    23564756.699
 113374196.143 8  88343660.88345  21574401.398                    21574410.070
 118285183.040 7  92170296.676 7  22508912.445                    22508925.387
 118146609.508 7  92062365.16444  22482543.969                    22482554.891
 106809055.742 8  83227874.890 8  20325085.992                    20325094.621
 123887872.930 6  96536013.14143  23575088.742                    23575099.703
 11  8 18 18 39  0.0000000  0 10G17G28G26G08G19G11G01G24G07G13
 121467224.586 7  94649859.125 6  23114452.227                    23114462.422
 116767574.476 8  90987831.72645  22220141.227                    22220149.406
 123442246.037 6  96188839.87243  23490286.258                    23490297.223
 107822341.551 8  84017489.26746  20517910.547                    20517919.281
 123935129.436 7  96572850.79744  23584077.242                    23584085.820
 113362560.489 8  88334594.15845  21572187.289                    21572195.867
 118228900.454 7  92126440.180 7  22498202.086                    22498215.160
 118096357.406 7  92023207.73044  22472981.891                    22472992.551
 106817681.962 8  83234596.607 8  20326727.570                    20326736.215
 123998695.110 6  96622367.89743  23596177.617                    23596189.285
 11  8 18 18 39 30.0000000  0 10G17G28G26G08G19G11G01G24G07G13
 121377270.360 7  94579765.002 6  23097333.930                    23097344.730
 116741895.783 8  90967822.36645  22215254.930                    22215263.730
 123377294.558 6  96138228.40343  23477925.813                    23477936.965
 107775186.136 8  83980744.80046  20508936.891                    20508945.563
 124036854.948 6  96652117.36044  23603435.406                    23603443.090
 113351481.821 8  88325961.45545  21570079.422                    21570087.703
 118172972.686 7  92082860.143 7  22487558.867                    22487572.191
 118046474.964 7  91984338.34244  22463488.992                    22463500.121
 106826764.083 8  83241673.575 8  20328456.008                    20328464.625
 124109568.014 7  96708762.17843  23617276.492                    23617287.727
 11  8 18 18 40  0.0000000  0 10G17G28G26G08G19G11G01G24G07G13
 121287572.684 7  94509870.783 7  23080264.719                    23080275.824
 116716281.347 7  90947863.07445  22210380.508                    22210389.039
 123312850.911 6  96088012.62243  23465662.883                    23465674.027
 107728368.175 8  83944263.27746  20500027.734                    20500036.344
 124138730.932 7  96731501.19444  23622821.719                    23622829.668
 113340960.859 8  88317763.32645  21568077.211                    21568085.738
 118117402.147 7  92039558.476 7  22476984.438                    22476997.172
 117996965.012 7  91945759.20344  22454067.648                    22454078.363
 106836303.105 8  83249106.567 8  20330271.422                    20330279.500
 124220488.700 7  96795193.69243  23638384.297                    23638396.102
 11  8 18 18 40 30.0000000  0 10G17G28G26G08G19G11G01G24G07G13
 121198133.157 7  94440177.730 6  23063245.617                    23063255.742
 116690730.216 8  90927953.10745  22205518.117                    22205526.320
 123248917.346 6  96038194.33443  23453496.648                    23453507.758
 107681890.469 8  83908046.88946  20491183.180                    20491192.063
 124240754.781 7  96811000.24044  23642236.383                    23642244.109
 113330998.607 8  88310000.53845  21566181.305                    21566190.340
 118062191.684 7  91996537.379 7  22466478.219                    22466491.512
 117947830.216 7  91907472.39344  22444717.859                    22444728.492
 106846299.714 8  83256896.126 8  20332173.469                    20332182.004
 124331454.103 7  96881660.05343  23659500.023                    23659511.090
 11  8 18 18 41  0.0000000  0 10G17G28G26G08G19G11G01G24G07G13
 121108953.886 7  94370687.470 7  23046274.805                    23046285.391
 116665241.919 8  90908092.10745  22200667.852                    22200676.137
 123185496.021 7  95988775.20744  23441427.961                    23441438.945
 107635755.557 8  83872097.60546  20482404.211                    20482412.758
 124342924.150 6  96890612.67044  23661678.523                    23661686.480
 113321596.534 8  88302674.27245  21564392.250                    21564400.660
 118007344.379 7  91953799.273 7  22456040.969                    22456054.277
 117899073.364 7  91869480.10844  22435439.969                    22435450.547
 106856755.791 8  83265043.710 8  20334163.078                    20334171.668
 124442461.501 7  96968159.14543  23680623.789                    23680635.918
 11  8 18 18 41 30.0000000  0 10G17G28G26G08G19G11G01G24G07G13
 121020036.120 7  94301400.991 7  23029354.414                    23029365.477
 116639815.818 8  90888279.56945  22195829.586                    22195837.699
 123122588.942 7  95939756.74544  23429457.109                    23429468.586
 107589965.884 8  83836417.35346  20473690.625                    20473699.281
 124445236.289 6  96970336.34744  23681147.266                    23681156.551
 113312755.203 8  88295784.95245  21562709.578                    21562718.258
 117952862.983 7  91911346.285 7  22445673.578                    22445686.723
 117850697.146 7  91831784.40444  22426234.039                    22426244.449
 106867671.610 8  83273549.538 8  20336240.570                    20336249.270
 124553507.807 7  97054688.50543  23701755.039                    23701767.441
 11  8 18 18 42  0.0000000  0 10G17G28G26G08G19G11G01G24G07G13
 120931381.650 7  94232319.640 6  23012483.883                    23012494.191
 116614451.054 8  90868514.83945  22191002.672                    22191011.141
 123060198.074 7  95891140.53144  23417583.992                    23417595.559
 107544523.820 8  83801007.95246  20465043.219                    20465052.039
 124547688.466 6  97050169.13643  23700643.820                    23700652.070
 113304475.801 8  88289333.49245  21561134.406                    21561142.551
 117898749.977 7  91869180.369 7  22435376.031                    22435389.211
 117802704.344 7  91794387.47044  22417101.086                    22417112.230
 106879048.448 8  83282414.595 8  20338405.164                    20338413.813
 124664590.209 7  97141246.02343  23722893.586                    23722905.785
 11  8 18 18 42 30.0000000  0 10G17G28G26G08G19G11G01G24G07G13
 120842992.198 7  94163444.804 6  22995664.078                    22995674.246
 116589147.209 8  90848797.56245  22186187.555                    22186195.648
 122998325.660 7  95842928.30144  23405810.445                    23405821.371
 107499432.050 8  83765871.51746  20456462.711                    20456471.258
 124650277.954 6  97130108.95444  23720165.750                    23720174.656
 113296759.291 8  88283320.64545  21559665.633                    21559674.016
 117845008.388 7  91827303.858 7  22425149.828                    22425162.594
 117755097.575 7  91757291.33044  22408041.555                    22408052.828
 106890887.554 8  83291639.858 8  20340658.359                    20340666.801
 124775705.942 6  97227829.50643  23744038.656                    23744050.715
 11  8 18 18 43  0.0000000  0 10G17G28G26G08G19G11G01G24G07G13
 120754869.084 7  94094777.515 6  22978894.906                    22978905.168
 116563903.261 8  90829126.96545  22181383.672                    22181392.055
 122936973.269 7  95795121.27244  23394135.828                    23394146.547
 107454692.457 8  83731009.50246  20447949.133                    20447957.699
 124753002.214 6  97210153.76344  23739713.680                    23739722.199
 113289606.200 8  88277746.82445  21558304.484                    21558312.977
 117791640.783 7  91785718.761 7  22414994.188                    22415007.074
 117707879.344 7  91720497.94645  22399055.969                    22399067.328
 106903189.374 8  83301225.675 8  20342999.086                    20343007.703
 124886851.584 7  97314436.29643  23765189.930                    23765201.352
 11  8 18 18 43 30.0000000  0 10G17G28G26G08G19G11G01G24G07G13
 120667013.920 7  94026319.011 6  22962176.844                    22962186.742
 116538718.285 7  90809502.31645  22176591.406                    22176599.152
 122876143.034 7  95747721.10844  23382559.938                    23382571.504
 107410307.726 8  83696423.99646  20439502.789                    20439511.547
 124855858.534 6  97290301.44244  23759286.773                    23759295.336
 113283017.616 8  88272612.87845  21557050.703                    21557059.301
 117738649.464 7  91744426.866 7  22404910.102                    22404923.063
 117661052.281 7  91684009.37944  22390145.586                    22390156.367
 106915954.722 8  83311172.685 8  20345428.469                    20345436.875
 124998024.228 6  97401064.09443  23786344.719                    23786356.770
 11  8 18 18 44  0.0000000  0 10G17G28G26G08G19G11G01G24G07G13
 120579428.457 7  93958070.661 6  22945509.570                    22945519.453
 116513591.964 8  90789923.37245  22171809.289                    22171818.043
 122815837.000 7  95700729.41644  23371083.781                    23371095.410
 107366280.647 8  83662117.18646  20431124.695                    20431133.254
 124958844.542 6  97370550.23144  23778883.828                    23778892.840
 113276994.684 8  88267919.69345  21555904.781                    21555913.305
 117686037.344 7  91703430.467 7  22394898.375                    22394911.258
 117614619.237 7  91647827.83445  22381309.359                    22381320.695
 106929184.995 8  83321481.978 8  20347946.242                    20347954.523
 125109220.947 6  97487710.68943  23807505.438                    23807517.281
 11  8 18 18 44 30.0000000  0 10G17G28G26G08G19G11G01G24G07G13
 120492114.351 7  93890033.758 6  22928894.086                    22928903.879
 116488523.682 7  90770389.66645  22167039.625                    22167047.664
 122756057.035 7  95654147.66244  23359708.188                    23359718.930
 107322613.824 8  83628091.08446  20422815.188                    20422823.809
 125061957.571 6  97450897.95144  23798506.063                    23798514.688
 113271538.155 7  88263667.86345  21554866.508                    21554874.684
 117633807.441 7  91662731.897 7  22384959.273                    22384972.051
 117568582.791 7  91611955.32844  22372548.695                    22372559.816
 106942880.934 8  83332154.122 8  20350552.453                    20350560.773
 125220439.226 7  97574374.05543  23828669.695                    23828681.184
 11  8 18 18 45  0.0000000  0 10G17G28G26G08G19G11G01G24G07G13
 120405072.794 7  93822209.228 6  22912330.078                    22912340.516
 116463512.285 8  90750900.27745  22162280.406                    22162288.543
 122696805.080 7  95607977.33344  23348432.992                    23348444.211
 107279309.156 8  83594347.19446  20414574.734                    20414583.270
 125165194.883 6  97531342.56044  23818151.414                    23818160.801
 113266648.686 8  88259857.89545  21553935.609                    21553944.320
 117581961.880 7  91622332.808 7  22375092.953                    22375106.109
 117522945.206 7  91576393.62845  22363864.250                    22363875.656
 106957043.307 8  83343189.725 8  20353247.227                    20353256.188
 125331675.767 7  97661051.64743  23849837.109                    23849849.438
 11  8 18 18 45 30.0000000  0 10G17G28G26G08G19G11G01G24G07G13
 120318305.544 7  93754598.442 6  22895818.961                    22895829.137
 116438557.850 7  90731455.27745  22157531.359                    22157539.840
 122638083.211 6  95562220.06143  23337258.172                    23337269.688
 107236369.512 8  83560887.73546  20406403.578                    20406412.258
 125268554.119 6  97611882.13044  23837820.313                    23837828.840
 113262327.054 7  88256490.40045  21553113.695                    21553122.184
 117530503.969 7  91582235.792 7  22365301.383                    22365314.375
 117477709.401 7  91541145.00744  22355256.266                    22355267.559
 106971673.408 8  83354589.786 8  20356031.336                    20356039.723
 125442928.155 6  97747741.59143  23871007.703                    23871020.465
 11  8 18 18 46  0.0000000  0 10G17G28G26G08G19G11G01G24G07G13
 120231814.026 7  93687202.517 6  22879360.211                    22879370.559
 116413659.124 8  90712053.68845  22152793.258                    22152801.625
 122579893.133 6  95516877.16843  23326185.086                    23326196.117
 107193797.244 7  83527714.54246  20398302.188                    20398310.977
 125372032.752 6  97692514.76944  23857511.703                    23857520.195
 113258574.375 8  88253566.24545  21552399.117                    21552408.113
 117479435.860 7  91542442.526 7  22355583.273                    22355596.328
 117432877.734 6  91506211.29545  22346724.742                    22346735.879
 106986771.775 7  83366354.730 8  20358904.727                    20358913.430
 125554193.077 6  97834441.28543  23892181.102                    23892193.539
 11  8 18 18 46 30.0000000  0 10G17G28G26G08G19G11G01G24G07G13
 120145600.178 7  93620022.955 7  22862953.938                    22862964.629
 116388815.548 8  90692695.06745  22148065.500                    22148073.906
 122522236.633 6  95471950.05243  23315213.570                    23315224.371
 107151595.074 8  83494829.73246  20390271.422                    20390280.277
 125475628.135 7  97773238.38344  23877225.094                    23877233.797
 113255391.459 8  88251086.05545  21551793.797                    21551802.223
 117428760.390 7  91502955.200 7  22345939.586                    22345952.801
 117388452.793 7  91471594.50944  22338270.805                    22338282.344
 107002339.242 8  83378485.210 8  20361866.438                    20361875.355
 125665467.778 6  97921148.58043  23913355.719                    23913368.449
 11  8 18 18 47  0.0000000  0 10G17G28G26G08G19G11G01G24G07G13
 120059664.944 7  93553060.513 7  22846601.227                    22846611.445
 116364026.614 8  90673379.03145  22143348.250                    22143356.758
 122465115.709 6  95427440.26043  23304343.578                    23304354.152
 107109765.309 8  83462235.11146  20382311.578                    20382320.402
 125579337.689 7  97854050.94844  23896961.023                    23896969.461
 113252778.633 7  88249050.08445  21551296.484                    21551305.020
 117378480.007 7  91463775.746 7  22336372.023                    22336384.957
 117344437.171 7  91437296.68545  22329895.094                    22329906.395
 107018376.461 8  83390981.730 7  20364918.789                    20364927.059
 125776749.598 6  98007861.46143  23934531.969                    23934544.473
 11  8 18 18 47 30.0000000  0 10G17G28G26G08G19G11G01G24G07G13
 119974010.192 7  93486316.607 7  22830301.648                    22830311.754
 116339291.441 7  90654104.87245  22138641.711                    22138650.164
 122408532.101 6  95383349.18444  23293576.180                    23293586.891
 107068310.281 8  83429932.48846  20374422.703                    20374431.613
 125683158.762 6  97934950.43644  23916716.680                    23916725.645
 113250736.854 8  88247459.09045  21550907.703                    21550916.195
 117328597.295 7  91424906.144 7  22326879.672                    22326892.684
 117300833.470 7  91403319.83744  22321597.258                    22321609.090
 107034884.544 8  83403845.158 8  20368059.797                    20368068.461
 125888035.264 6  98094577.29043  23955709.500                    23955722.016
 11  8 18 18 48  0.0000000  0 10G17G28G26G08G19G11G01G24G07G13
 119888637.446 7  93419792.449 7  22814055.453                    22814066.055
 116314609.243 8  90634872.00345  22133944.438                    22133952.789
 122352487.713 6  95339678.26643  23282910.750                    23282921.613
 107027232.381 8  83397923.74146  20366605.805                    20366614.426
 125787088.627 7  98015934.68144  23936494.547                    23936503.270
 113249266.601 7  88246313.44045  21550628.008                    21550636.762
 117279115.008 7  91386348.571 7  22317463.133                    22317476.082
 117257644.370 7  91369666.05345  22313378.367                    22313390.141
 107051864.042 8  83417075.928 8  20371291.406                    20371299.984
 125999322.059 6  98181294.05743  23976886.773                    23976899.648
 11  8 18 18 48 30.0000000  0 10G17G28G26G08G19G11G01G24G07G13
 119803547.921 7  93353488.972 7  22797863.570                    22797874.008
 116289979.954 8  90615680.35545  22129257.695                    22129266.051
 122296984.020 6  95296428.69443  23272348.828                    23272359.703
 106986533.949 8  83366210.68046  20358861.164                    20358870.242
 125891125.375 7  98097002.20944  23956292.375                    23956301.129
 113248368.257 8  88245613.43445  21550457.258                    21550465.719
 117230035.389 7  91348104.761 7  22308123.547                    22308136.699
 117214871.900 7  91336336.91644  22305239.586                    22305250.879
 107069315.687 8  83430674.590 8  20374611.930                    20374620.445
 126110606.897 6  98268009.31943  23998064.305                    23998076.535
 11  8 18 18 49  0.0000000  0 10G17G28G26G08G19G11G01G24G07G13
 119718743.073 7  93287407.331 7  22781725.844                    22781736.184
 116265402.695 8  90596529.24645  22124580.781                    22124588.992
 122242023.038 7  95253601.99343  23261890.391                    23261901.109
 106946217.794 8  83334795.49446  20351189.555                    20351198.520
 125995266.297 6  98178150.92243  23976109.328                    23976117.926
 113248042.918 8  88245359.91945  21550395.352                    21550403.566
 117181361.420 7  91310177.038 7  22298861.125                    22298873.984
 117172518.726 7  91303334.49044  22297180.086                    22297191.262
 107087240.549 8  83444642.003 8  20378023.188                    20378031.906
 126221887.319 6  98354721.07943  24019240.719                    24019252.422
 11  8 18 18 49 30.0000000  0 10G17G28G26G08G19G11G01G24G07G13
 119634224.901 7  93221549.056 7  22765642.563                    22765652.762
 116240876.814 8  90577418.19245  22119913.563                    22119921.777
 122187606.677 7  95211199.66943  23251534.953                    23251545.926
 106906286.061 8  83303679.86246  20343590.430                    20343599.684
 126099508.805 6  98259378.76943  23995945.969                    23995954.336
 113248291.035 8  88245553.25545  21550442.625                    21550451.254
 117133095.579 7  91272567.350 7  22289676.508                    22289689.121
 117130587.668 7  91270661.00045  22289201.156                    22289211.652
 107105639.686 8  83458978.977 8  20381524.531                    20381532.906
 126333160.407 6  98441427.17343  24040414.953                    24040426.879
 11  8 18 18 50  0.0000000  0 10G17G28G26G08G19G11G01G24G07G13
 119549994.376 7  93155914.938 6  22749614.094                    22749624.305
 116216401.294 8  90558346.37245  22115255.945                    22115264.480
 122133736.138 7  95169222.66944  23241284.258                    23241294.477
 106866740.612 8  83272865.23346  20336065.523                    20336074.309
 126203849.858 6  98340683.43943  24015801.047                    24015810.227
 113249112.997 7  88246193.75345  21550598.633                    21550607.414
 117085240.119 7  91235277.429 7  22280569.836                    22280582.844
 117089080.414 7  91238317.73445  22281302.227                    22281313.613
 107124512.771 8  83473685.251 8  20385115.742                    20385124.328
 126444422.837 6  98528124.91143  24061587.398                    24061600.270
 11  8 18 18 50 30.0000000  0 10G17G28G26G08G19G11G01G24G07G13
 119466053.231 7  93090506.297 7  22733640.828                    22733650.305
 116191975.985 7  90539313.66345  22110608.047                    22110616.441
 122080413.302 7  95127672.44444  23231136.789                    23231147.988
 106827584.600 8  83242354.05846  20328614.148                    20328622.730
 126308287.648 6  98422063.48843  24035675.938                    24035683.805
 113250509.646 8  88247282.05745  21550864.297                    21550873.039
 117037797.730 7  91198309.391 7  22271541.742                    22271554.824
 117047999.964 7  91206307.04645  22273484.945                    22273496.000
 107143861.374 8  83488762.065 8  20388797.766                    20388806.469
 126555672.302 6  98614812.52643  24082758.563                    24082771.016
 11  8 18 18 51  0.0000000  0 10G17G28G26G08G19G11G01G24G07G13
 119382402.502 7  93025323.980 7  22717721.914                    22717732.199
 116167599.765 7  90520319.21945  22105969.102                    22105977.773
 122027639.862 6  95086550.32244  23221094.688                    23221105.418
 106788820.103 8  83212147.95446  20321237.547                    20321246.395
 126412819.231 6  98503516.61743  24055566.828                    24055575.926
 113252481.208 7  88248818.34545  21551239.742                    21551248.324
 116990770.931 7  91161665.168 7  22262592.875                    22262605.516
 117007348.510 7  91174630.65145  22265749.109                    22265760.074
 107163685.440 8  83504209.364 8  20392570.445                    20392578.723
 126666905.752 6  98701487.65143  24103925.500                    24103938.500
 11  8 18 18 51 30.0000000  0 10G17G28G26G08G19G11G01G24G07G13
 119299043.899 7  92960369.261 7  22701859.500                    22701869.895
 116143272.794 7  90501363.14545  22101340.023                    22101348.477
 121975417.569 7  95045857.64644  23211157.500                    23211167.699
 106750450.129 8  83182249.27646  20313936.039                    20313944.648
 126517442.571 6  98585041.19643  24075476.313                    24075485.258
 113255028.742 8  88250803.43845  21551724.570                    21551733.027
 116944162.261 7  91125346.775 7  22253723.406                    22253735.953
 116967128.897 7  91143290.74144  22258095.164                    22258106.852
 107183986.156 8  83520028.084 8  20396433.297                    20396441.703
 126778120.740 6  98788148.36543  24125088.523                    24125102.262
 11  8 18 18 52  0.0000000  0 10G17G28G26G08G19G11G01G24G07G13
 119215979.151 7  92895643.536 7  22686052.484                    22686062.836
 116118994.520 7  90482445.02545  22096720.133                    22096728.422
 121923748.069 7  95005595.74244  23201325.148                    23201335.727
 106712476.783 8  83152659.66646  20306709.805                    20306718.742
 126622154.863 6  98666635.09243  24095402.227                    24095410.844
 113258151.934 7  88253237.10545  21552318.852                    21552327.434
 116897974.266 7  91089356.169 7  22244934.320                    22244946.734
 116927343.339 7  91112289.05645  22250524.523                    22250535.109
 107204764.261 8  83536218.797 8  20400387.422                    20400395.734
 126889313.966 6  98874792.10343  24146248.281                    24146261.805
 11  8 18 18 52 30.0000000  0 10G17G28G26G08G19G11G01G24G07G13
 119133209.193 7  92831147.515 7  22670302.039                    22670311.844
 116094763.658 7  90463563.83845  22092109.117                    22092117.270
 121872632.741 7  94965765.65544  23191598.117                    23191608.996
 106674902.079 8  83123380.67846  20299559.875                    20299568.316
 126726953.781 6  98748296.54643  24115345.680                    24115354.148
 113261851.575 7  88256119.95245  21553022.734                    21553031.219
 116852209.232 7  91053695.134 7  22236225.516                    22236237.898
 116887993.859 7  91081627.17545  22243036.227                    22243047.570
 107226019.993 8  83552781.682 8  20404432.008                    20404440.348
 127000482.547 6  98961416.67043  24167403.148                    24167416.711
 11  8 18 18 53  0.0000000  0 10G17G28G26G08G19G11G01G24G07G13
 119050735.560 7  92766882.403 7  22654607.695                    22654617.852
 116070579.867 7  90444719.33545  22087506.906                    22087515.477
 121822073.237 7  94926368.65344  23181976.633                    23181987.086
 106637728.763 8  83094414.46246  20292485.820                    20292494.688
 126831836.733 6  98830023.47743  24135303.078                    24135312.539
 113266128.227 8  88259452.41345  21553836.602                    21553845.016
 116806869.287 7  91018365.332 7  22227597.695                    22227609.871
 116849082.861 7  91051306.96645  22235631.141                    22235642.547
 107247754.158 8  83569717.383 8  20408567.922                    20408576.574
 127111623.894 6  99048020.00343  24188553.477                    24188566.438
 11  8 18 18 53 30.0000000  0 10G17G28G26G08G19G11G01G24G07G13
 118968559.678 7  92702849.306 7  22638970.266                    22638980.484
 116046442.433 7  90425910.96045  22082913.648                    22082922.121
 121772070.851 7  94887405.80044  23172461.289                    23172472.406
 106600958.658 8  83065762.43146  20285488.375                    20285497.313
 126936801.296 6  98911813.98244  24155276.992                    24155286.652
 113270981.727 7  88263234.37045  21554760.117                    21554768.512
 116761956.972 7  90983368.757 7  22219050.813                    22219063.734
 116810612.649 7  91021330.22344  22228311.023                    22228322.016
 107269967.044 8  83587026.118 8  20412795.211                    20412803.172
 127222734.902 6  99134599.79943  24209697.438                    24209709.680
 11  8 18 18 54  0.0000000  0 10G17G28G26G08G19G11G01G24G07G13
 118886682.839 7  92639049.230 7  22623389.273                    22623399.367
 116022351.122 8  90407138.50645  22078329.289                    22078337.992
 121722627.473 7  94848878.53844  23163052.805                    23163064.047
 106564594.860 8  83037427.00646  20278568.867                    20278577.379
 127041845.207 6  98993666.28144  24175267.305                    24175276.297
 113276413.081 8  88267466.60245  21555793.367                    21555802.543
 116717475.479 7  90948707.894 7  22210586.461                    22210599.137
 116772586.185 7  90991699.25045  22221075.086                    22221085.891
 107292659.724 8  83604708.712 8  20417113.586                    20417121.602
 127333813.223 7  99221154.08143  24230835.453                    24230847.703
 11  8 18 18 54 30.0000000  0 10G17G28G26G08G19G11G01G24G07G13
 118805106.537 7  92575483.328 7  22607866.172                    22607876.566
 115998305.277 7  90388401.49645  22073753.906                    22073761.781
 121673744.538 7  94810787.95844  23153750.375                    23153761.711
 106528639.947 8  83009410.18746  20271726.719                    20271735.762
 127146965.953 7  99075578.49144  24195271.188                    24195280.156
 113282422.465 8  88272149.25545  21556937.398                    21556945.582
 116673426.585 7  90914384.105 7  22202203.992                    22202216.250
 116735005.416 7  90962415.56445  22213923.727                    22213934.371
 107315832.595 8  83622765.489 8  20421522.852                    20421531.266
 127444856.110 6  99307680.75142  24251966.250                    24251977.594
 11  8 18 18 55  0.0000000  0 10G17G28G26G08G19G11G01G24G07G13
 118723831.984 7  92512152.569 7  22592400.172                    22592410.461
 115974304.607 7  90369699.67945  22069186.773                    22069194.879
 121625423.672 7  94773135.37544  23144555.313                    23144566.258
 106493096.281 8  82981713.81946  20264963.188                    20264971.777
 127252161.478 7  99157548.96844  24215289.664                    24215298.012
 113289010.330 7  88277282.65645  21558191.055                    21558199.531
 116629812.936 7  90880399.475 7  22193904.695                    22193917.398
 116697872.570 7  90933480.92044  22206857.641                    22206868.426
 107339486.304 8  83641196.938 7  20426023.930                    20426032.578
 127555860.629 6  99394177.62642  24273089.172                    24273101.676
 11  8 18 18 55 30.0000000  0 10G17G28G26G08G19G11G01G24G07G13
 118642860.546 7  92449058.005 7  22576991.906                    22577001.883
 115950348.239 8  90351032.39145  22064627.961                    22064636.168
 121577666.110 7  94735921.73244  23135467.703                    23135477.828
 106457965.383 8  82954339.09646  20258277.852                    20258286.676
 127357428.797 7  99239575.38844  24235321.211                    24235330.168
 113296176.506 8  88282866.70945  21559554.070                    21559562.879
 116586636.658 7  90846755.662 7  22185688.734                    22185701.238
 116661189.950 7  90904897.09644  22199876.656                    22199887.617
 107363621.123 8  83660003.281 7  20430616.922                    20430624.926
 127666823.840 6  99480642.17042  24294204.938                    24294218.203
 11  8 18 18 56  0.0000000  0 10G17G28G26G08G19G11G01G24G07G13
 118562193.611 7  92386200.707 7  22561641.414                    22561650.973
 115926435.458 8  90332399.05445  22060077.242                    22060085.930
 121530473.353 7  94699148.21244  23126486.102                    23126497.887
 106423249.676 8  82927287.89246  20251672.055                    20251680.688
 127462765.611 7  99321655.93844  24255366.008                    24255374.828
 113303921.414 7  88288901.71345  21561028.523                    21561037.074
 116543900.199 7  90813454.550 7  22177556.070                    22177568.293
 116624959.513 7  90876665.61145  22192982.875                    22192993.309
 107388237.671 8  83679184.987 7  20435301.023                    20435309.496
 127777743.120 5  99567072.49142  24315312.414                    24315326.305
 11  8 18 18 56 30.0000000  0 10G17G28G26G08G19G11G01G24G07G13
 118481832.625 7  92323581.814 7  22546349.000                    22546359.320
 115902565.963 7  90313799.45645  22055535.266                    22055543.723
 121483846.753 7  94662815.81444  23117613.883                    23117624.836
 106388951.979 8  82900562.41946  20245144.953                    20245154.164
 127568170.136 6  99403789.29744  24275423.984                    24275432.539
 113312245.430 7  88295387.97045  21562612.453                    21562620.832
 116501606.093 7  90780498.125 7  22169507.648                    22169520.184
 116589183.800 7  90848788.47645  22186174.734                    22186185.234
 107413336.590 8  83698742.576 8  20440077.102                    20440085.664
 127888615.903 5  99653466.54242  24336410.297                    24336425.266
 11  8 18 18 57  0.0000000  0 10G17G28G26G08G19G11G01G24G07G13
 118401778.866 7  92261202.325 7  22531114.664                    22531125.008
 115878739.312 7  90295233.23745  22051001.008                    22051009.227
 121437787.881 7  94626925.82844  23108849.125                    23108860.156
 106355074.465 8  82874164.35446  20238698.906                    20238707.613
 127673639.500 6  99485973.13544  24295494.500                    24295503.434
 113321148.835 8  88302325.69945  21564306.586                    21564315.172
 116459756.360 7  90747887.965 7  22161544.234                    22161556.313
 116553865.185 7  90821267.50345  22179453.508                    22179464.328
 107438918.043 8  83718676.158 8  20444945.570                    20444953.680
 127999439.204 6  99739821.97242  24357500.234                    24357513.945
 11  8 18 18 57 30.0000000  0 10G17G28G26G08G19G11G01G24G07G13
 118322033.632 7  92199063.234 7  22515940.016                    22515950.184
 115854954.583 8  90276699.70145  22046474.984                    22046483.273
 121392297.874 7  94591479.11543  23100192.445                    23100203.648
 106321619.423 8  82848095.49946  20232332.188                    20232340.754
 127779171.085 7  99568205.48544  24315576.133                    24315584.969
 113330631.737 8  88309714.98745  21566111.484                    21566119.531
 116418353.332 7  90715625.895 7  22153665.031                    22153677.867
 116519005.461 7  90794104.11544  22172820.211                    22172830.750
 107464982.490 8  83738986.097 8  20449905.328                    20449913.586
 128110210.287 6  99826136.74443  24378579.859                    24378594.039
 11  8 18 18 58  0.0000000  0 10G17G28G26G08G19G11G01G24G07G13
 118242597.663 7  92137165.128 7  22500823.844                    22500833.883
 115831211.432 7  90258198.54545  22041956.766                    22041965.008
 121347377.925 7  94556476.60544  23091644.930                    23091655.707
 106288588.656 8  82822357.23946  20226046.633                    20226055.621
 127884762.592 6  99650484.52844  24335669.844                    24335678.402
 113340693.614 8  88317555.41045  21568025.727                    21568034.219
 116377399.002 7  90683713.459 7  22145871.703                    22145884.152
 116484606.959 7  90767300.11445  22166274.211                    22166284.543
 107491530.114 8  83759672.540 7  20454957.164                    20454965.305
 128220926.333 6  99912408.67243  24399648.695                    24399662.219
 11  8 18 18 58 30.0000000  0 10G17G28G26G08G19G11G01G24G07G13
 118163472.581 7  92075509.287 7  22485766.813                    22485776.875
 115807509.676 8  90239729.65045  22037446.461                    22037455.004
 121303029.589 7  94521919.50544  23083205.391                    23083216.348
 106255984.915 8  82796951.73546  20219842.547                    20219851.219
 127990411.747 6  99732808.48543  24355773.844                    24355782.867
 113351335.292 8  88325847.62745  21570050.992                    21570059.734
 116336896.243 7  90652152.900 7  22138164.516                    22138177.195
 116450671.965 7  90740857.28845  22159816.594                    22159827.250
 107518561.777 8  83780736.143 8  20460101.258                    20460109.617
 128331584.709 6  99998635.66643  24420706.898                    24420720.535
 11  8 18 18 59  0.0000000  0 10G17G28G26G08G19G11G01G24G07G13
 118084659.965 7  92014096.901 7  22470769.109                    22470779.594
 115783848.817 8  90221292.62445  22032943.953                    22032952.133
 121259254.136 7  94487808.79143  23074875.430                    23074885.586
 106223810.932 8  82771881.09846  20213720.188                    20213728.563
 128096116.444 5  99815175.66142  24375887.969                    24375897.566
 113362556.879 8  88334591.71545  21572186.305                    21572194.633
 116296847.436 7  90620946.067 7  22130543.430                    22130555.777
 116417202.779 7  90714777.42445  22153447.781                    22153458.320
 107546077.823 8  83802177.194 7  20465337.344                    20465345.652
 128442182.918 7 100084815.79543  24441752.578                    24441766.813
 11  8 18 18 59 30.0000000  0 10G17G28G26G08G19G11G01G24G07G13
 118006160.876 7  91952928.845 7  22455831.109                    22455841.551
 115760228.054 8  90202886.84245  22028448.984                    22028457.660
 121216052.794 7  94454145.44343  23066654.125                    23066664.809
 106192068.299 8  82747146.58446  20207679.477                    20207688.461
 128201874.136 6  99897584.20543  24396013.695                    24396022.609
 113374358.363 8  88343787.68445  21574432.258                    21574440.555
 116257254.100 7  90590094.151 7  22123008.742                    22123021.066
 116384201.169 7  90689061.92145  22147167.281                    22147177.961
 107574078.632 8  83823995.986 7  20470665.805                    20470674.324
 128552718.009 7 100170946.74243  24462787.000                    24462801.602
 11  8 18 19  0  0.0000000  0 10G17G28G26G08G19G11G01G24G07G13
 117927976.572 7  91892006.045 7  22440953.148                    22440963.492
 115736646.881 8  90184511.91545  22023961.797                    22023969.887
 121173426.624 7  94420930.27244  23058542.656                    23058553.352
 106160759.314 8  82722749.97246  20201721.289                    20201730.348
 128307682.527 6  99980032.26442  24416148.328                    24416157.480
 113386739.395 8  88353435.23745  21576788.164                    21576796.566
 116218118.660 7  90559599.036 7  22115561.328                    22115574.355
 116351669.273 7  90663712.42045  22140977.023                    22140987.703
 107602564.170 8  83846192.481 7  20476086.180                    20476094.762
 128663186.869 6 100257026.06543  24483808.938                    24483823.363
 11  8 18 19  0 30.0000000  0 10G17G28G26G08G19G11G01G24G07G13
 117850108.030 7  91831329.333 7  22426135.234                    22426145.629
 115713104.901 8  90166167.52445  22019481.961                    22019490.297
 121131377.201 7  94388164.51644  23050541.297                    23050551.664
 106129886.558 8  82698693.28246  20195846.875                    20195855.570
 128413539.201 6 100062517.94543  24436293.141                    24436301.500
 113399700.236 8  88363534.60245  21579254.477                    21579262.684
 116179443.511 7  90529462.582 7  22108201.813                    22108214.414
 116319609.430 7  90638730.75145  22134876.422                    22134886.555
 107631535.000 8  83868767.140 7  20481599.492                    20481608.051
 128773587.517 6 100343052.23542  24504817.914                    24504832.141
 11  8 18 19  1  0.0000000  0 10G17G28G26G08G19G11G01G24G07G13
 117772556.336 7  91770899.514 7  22411377.563                    22411387.801
 115689601.714 8  90147853.36145  22015009.305                    22015017.633
 121089905.514 7  94355848.96444  23042649.109                    23042659.711
 106099452.283 8  82674978.25946  20190055.016                    20190063.996
 128519441.974 6 100145039.56143  24456445.039                    24456454.324
 113413241.078 8  88374085.90445  21581830.703                    21581839.773
 116141230.708 7  90499686.412 7  22100930.445                    22100942.457
 116288023.742 7  90614118.56645  22128865.656                    22128876.434
 107660991.581 8  83891720.303 8  20487204.438                    20487212.707
 128883917.063 6 100429023.10542  24525811.781                    24525827.070
 11  8 18 19  1 30.0000000  0 10G17G28G26G08G19G11G01G24G07G13
 117695323.224 7  91710717.921 7  22396680.648                    22396691.004
 115666137.103 8  90129569.25745  22010544.273                    22010552.527
 121049012.868 7  94323984.58044  23034867.719                    23034877.840
 106069459.016 8  82651606.88346  20184347.703                    20184356.445
 128625388.788 6 100227595.41743  24476605.758                    24476614.957
 113427361.763 8  88385089.02945  21584518.500                    21584526.570
 116103482.816 7  90470272.493 7  22093747.391                    22093759.762
 116256914.211 7  90589877.41545  22122945.578                    22122956.383
 107690934.233 8  83915052.211 7  20492902.438                    20492911.047
 128994172.943 5 100514936.43042  24546794.773                    24546808.910
 11  8 18 19  2  0.0000000  0 10G17G28G26G08G19G11G01G24G07G13
 117618409.975 7  91650785.572 7  22382044.305                    22382054.543
 115642710.611 8  90111314.86545  22006086.414                    22006094.598
 121008700.459 7  94292572.31944  23027196.695                    23027206.672
 106039908.899 8  82628580.81346  20178724.281                    20178733.270
 128731377.257 6 100310183.77943  24496774.789                    24496784.219
 113442062.384 8  88396544.06845  21587315.781                    21587324.449
 116066201.868 7  90441222.443 7  22086652.945                    22086665.141
 116226282.992 7  90566008.95945  22117116.688                    22117126.867
 107721363.216 8  83938763.086 7  20498693.172                    20498701.520
 129104352.083 5                  24567760.016
 11  8 18 19  2 30.0000000  0 10G17G28G26G08G19G11G01G24G07G13
 117541817.380 7  91591103.084 7  22367469.406                    22367479.098
 115619321.584 8  90093089.65945  22001635.164                    22001643.969
 120968969.337 7  94261613.03444  23019636.234                    23019646.121
 106010804.192 8  82605901.82246  20173186.094                    20173194.648
 128837405.041 6 100392802.77943  24516951.195                    24516960.645
 113457342.826 7  88408450.90945  21590223.539                    21590232.496
 116029389.805 7  90412537.743 7  22079647.852                    22079660.184
 116196131.838 7  90542514.58045  22111378.914                    22111389.648
 107752278.593 8  83962852.980 7  20504575.641                    20504584.484
 129214452.174 5                  24588711.797
 11  8 18 19  3  0.0000000  0 10G17G28G26G08G19G11G01G24G07G13
 117465546.581 7  91531671.350 7  22352955.563                    22352965.492
 115595969.503 8  90074893.25245  21997191.555                    21997200.031
 120929820.200 6  94231107.21844  23012185.938                    23012195.992
 105982147.057 8  82583571.58846  20167732.781                    20167741.426
 128943469.751 7 100475450.55443  24537135.242                    24537143.641
 113473202.898 7  88420809.40945  21593241.289                    21593249.922
 115993048.793 7  90384220.104 7  22072731.914                    22072744.863
 116166462.748 7  90519395.83845  22105733.078                    22105743.813
 107783680.570 8  83987322.022 8  20510551.523                    20510559.883
 129324470.657 6                  24609647.961
 11  8 18 19  3 30.0000000  0 10G17G28G26G08G19G11G01G24G07G13
 117389599.025 7  91472491.488 7  22338502.852                    22338512.969
 115572653.847 8  90056725.22145  21992754.836                    21992763.313
 120891254.550 7  94201056.09044  23004846.992                    23004857.586
 105953939.357 8  82561591.55946  20162365.133                    20162373.406
 129049569.139 7 100558125.41143  24557325.625                    24557334.301
 113489642.246 7  88433619.29345  21596369.148                    21596377.996
 115957180.850 7  90356271.088 7  22065906.859                    22065919.281
 116137277.817 7  90496654.35445  22100179.203                    22100190.383
 107815569.623 8  84012170.616 7  20516619.898                    20516628.770
 129434404.376 6                  24630569.133
 11  8 18 19  4  0.0000000  0 10G17G28G26G08G19G11G01G24G07G13
 117313975.382 7  91413564.021 7  22324112.391                    22324122.238
 115549374.052 8  90038585.12645  21988324.766                    21988333.195
 120853273.013 7  94171460.09044  22997619.188                    22997629.820
 105926182.857 8  82539963.12346  20157082.969                    20157092.105
 129155700.779 7 100640825.32744  24577521.289                    24577530.762
 113506660.644 7  88446880.38345  21599608.500                    21599616.727
 115921787.555 7  90328691.934 7  22059171.383                    22059184.148
 116108578.641 7  90474291.38645  22094718.039                    22094728.711
 107847945.516 8  84037398.563 7  20522780.781                    20522789.273
 129544250.506 6                  24651472.398
 11  8 18 19  4 30.0000000  0 10G17G28G26G08G19G11G01G24G07G13
 117238677.245 7  91354890.183 7  22309783.859                    22309793.730
 115526130.430 8  90020473.22945  21983901.656                    21983910.102
 120815877.247 7  94142320.55044  22990503.438                    22990513.836
 105898880.659 8  82518688.68846  20151887.734                    20151896.199
 129261862.927 6 100723549.03244  24597723.305                    24597732.707
 113524258.243 8  88460592.80045  21602957.156                    21602965.723
 115886872.131 7  90301485.125 7  22052527.398                    22052539.898
 116080367.781 7  90452308.92645  22089349.445                    22089360.656
 107880808.874 8  84063006.350 7  20529034.672                    20529043.289
 129654007.471 6                  24672357.742
